     2              OBSERVATION DATA    GPS                 RINEX VERSION / TYPE
TRRINEXO V2.4.6 UX                                          PGM / RUN BY / DATE
                                                            COMMENT
Original Marker Name: 0051                                  COMMENT
Campaign Name: STRC 1995                                    COMMENT
4-Character Station Name: CHER                              COMMENT
6-Character Antenna Code: TRMSST                            COMMENT
Vertical Measurement Point: TGP                             COMMENT
Vertical Offset to Rinex Ref. Point: 0.0629                 COMMENT
Radial Measurement Point: NGP                               COMMENT
Radial Offset to Rinex Ref. Point: 0.2334                   COMMENT
Antenna Height from Field Measurement: 1.6000 m             COMMENT
Original XYZ: -2399462.0676 -4719011.9805 3547321.5416      COMMENT
New XYZ position is based on association with SCEC monument COMMENT
E1D0S0U4+0011. Position of that monument is believed to be  COMMENT
valid to within 1 m horizontally; vertical accuracy         COMMENT
should be no worse than 3-times this value.                 COMMENT
                                                            COMMENT
Revised Rinex header created by UCSD GPS archive for        COMMENT
GSAC on 17-Apr-1999 (1999:107) 02:06:24 GMT                 COMMENT
For assistance contact dagnew@ucsd.edu or hjohnson@ucsd.edu COMMENT
                                                            COMMENT
CHER                                                        MARKER NAME
CHER                                                        MARKER NUMBER
J. Mcneill RIVERSIDE COUNTY FCWCD                           OBSERVER / AGENCY
2233 TRIMBLE 4000 SSE 6.01                                  REC # / TYPE / VERS
463 TR 4000SST L1/L2 GEO                                    ANT # / TYPE
 -2399463.0000 -4719012.0000  3547319.0000                  APPROX POSITION XYZ
        1.5200        0.0000        0.0000                  ANTENNA: DELTA H/E/N
     1     1     0                                          WAVELENGTH FACT L1/2
     5    C1    L1    L2    P2    P1                        # / TYPES OF OBSERV
    30                                                      INTERVAL
  1995     2    17    16     5   30.000000                  TIME OF FIRST OBS
  1995     2    17    23     0    0.000000                  TIME OF LAST OBS
     0                                                      # OF SATELLITES
                                                            END OF HEADER
 95  2 17 16  5 30.0000000  0  6  1 14 15 22 25 29
  24790747.070      279731.57115    103594.60259  24790746.4734
  21437895.164     -724990.26617   -488454.97759  21437892.8204
  21840898.703     1105198.07016    799106.28059  21840897.1334
  22983864.391     -871660.60316   -601519.90559  22983863.3124
  21507659.828      988412.41017    715381.78159  21507657.4614
  23116388.719     -623706.68216   -434572.15459  23116386.6094
 95  2 17 16  6  0.0000000  0  6  1 14 15 22 25 29
  24808997.578      375637.138 5    178326.16149  24808996.9224
  21429615.109     -768503.708 7   -522361.54549  21429612.9064
  21858180.766     1196017.542 6    869874.66849  21858179.3834
  22972318.211     -932332.073 6   -648796.29549  22972317.4734
  21523234.312     1070254.215 7    779154.61049  21523231.6054
  23109599.961     -659380.493 6   -462369.90049  23109598.1564
 95  2 17 16  6 30.0000000  0  6  1 14 15 22 25 29
  24827384.297      472259.478 5    253616.21349  24827385.5044
  21421530.141     -810987.910 7   -555466.11349  21421527.8204
  21875684.797     1288001.380 6    941550.37349  21875683.7074
  22960955.172     -992047.607 6   -695327.82649  22960954.5864
  21539017.234     1153193.890 7    843782.92549  21539014.5514
  23102967.109     -694235.025 6   -489529.25449  23102964.4964
 95  2 17 16  7  0.0000000  0  6  1 14 15 22 25 29
  24845899.156      569557.171 3    329432.52348  24845900.9614
  21413634.594     -852480.688 7   -587798.13949  21413632.2504
  21893401.852     1381104.891 6   1014098.52749  21893400.5984
  22949766.992    -1050839.667 6   -741139.74849  22949766.3484
  21554998.156     1237173.221 7    909221.35749  21554995.6844
  23096481.750     -728315.544 6   -516085.47349  23096479.0784
 95  2 17 16  7 30.0000000  0  6  1 14 15 22 25 29
  24864534.266      667485.770 2    405740.40849  24864535.8594
  21405917.922     -893030.490 7   -619395.37849  21405915.8714
  21911325.445     1475291.573 6   1087490.71749  21911324.0744
  22938745.516    -1108757.915 6   -786270.76349  22938744.6024
  21571167.672     1322147.832 7    975435.32249  21571165.2464
  23090137.289     -761654.858 6   -542064.14449  23090134.5824
 95  2 17 16  8  0.0000000  0  6  1 14 15 22 25 29
  24883286.703      766031.695 2    482529.35649  24883287.3594
  21398375.664     -932665.821 7   -650280.04349  21398373.8124
  21929450.359     1570537.109 6   1161707.99149  21929448.4024
  22927886.664    -1165823.305 6   -830737.25949  22927885.9734
  21587523.922     1408098.583 7   1042409.91749  21587521.5314
  23083931.742     -794264.732 6   -567474.41449  23083929.3874
 95  2 17 16  8 30.0000000  0  6  1 14 15 22 25 29
  24902150.922      865158.097 1    559770.60149  24902152.0824
  21390995.492     -971448.689 7   -680500.45449  21390993.6414
  21947765.844     1666784.310 7   1236705.76649  21947764.1454
  22917180.312    -1222086.141 6   -874578.37049  22917179.7854
  21604053.828     1494964.512 7   1110097.63349  21604051.2384
  23077853.297     -826204.991 6   -592362.91049  23077851.4224
 95  2 17 16  9  0.0000000  0  6  1 14 15 22 25 29
  24921117.414      964829.011 1    637436.11849  24921117.3204
  21383768.742    -1009424.811 7   -710092.23249  21383766.8094
  21966263.031     1763989.774 6   1312450.25549  21966261.6134
  22906619.172    -1277585.953 6   -917824.91249  22906618.6914
  21620753.039     1582718.854 7   1178477.62549  21620750.4384
  23071894.570     -857521.415 6   -616765.29649  23071892.6604
 95  2 17 16  9 30.0000000  0  6  1 14 15 22 25 29
  24940183.148     1065015.368 2    715503.31849  24940182.8094
  21376689.273    -1046628.673 7   -739082.24949  21376687.5394
  21984936.312     1862119.068 6   1388914.60849  21984934.9654
  22896199.422    -1332340.049 6   -960490.38749  22896198.9064
  21637617.852     1671343.294 7   1247535.60249  21637615.2734
  23066048.789     -888244.278 6   -640705.16349  23066045.7664
 95  2 17 16 10  0.0000000  0  6  1 14 15 22 25 29
  24959344.375     1165714.474 2    793970.04649  24959343.3094
  21369758.500    -1083049.229 7   -767461.90349  21369756.5904
  22003784.625     1961164.625 7   1466092.93349  22003783.0314
  22885924.352    -1386334.961 6  -1002564.31149  22885924.1054
  21654647.227     1760833.680 7   1317268.33949  21654644.7304
  23060314.570     -918376.250 6   -664184.58449  23060311.4884
 95  2 17 16 10 30.0000000  0  6  1 14 15 22 25 29
  24978599.531     1266898.138 3    872814.33449  24978599.7894
  21362976.484    -1118689.235 7   -795233.33349  21362974.8794
  22022804.961     2061116.480 6   1543977.46149  22022803.1804
  22875794.211    -1439568.112 6  -1044044.65449  22875793.8834
  21671839.609     1851180.664 7   1387668.56649  21671837.0664
  23054691.281     -947922.326 6   -687207.46849  23054688.8094
 95  2 17 16 11  0.0000000  0  6  1 14 15 22 25 29
  24997939.492     1368532.142 3    952009.55649  24997939.7034
  21356343.727    -1153545.439 7   -822394.00049  21356342.0164
  22041996.203     2161968.133 6   1622563.13049  22041994.3054
  22865811.914    -1492029.667 6  -1084923.75449  22865811.3634
  21689195.062     1942384.694 7   1458736.61749  21689192.6374
  23049179.227     -976888.504 6   -709778.50649  23049177.0004
 95  2 17 16 11 30.0000000  0  6  1 14 15 22 25 29
  25017362.734     1470600.729 3   1031543.42649  25017364.4924
  21349859.469    -1187620.101 7   -848945.67749  21349857.8524
  22061355.852     2263704.096 6   1701837.87449  22061354.4804
  22855973.633    -1543730.553 6  -1125210.14849  22855973.1884
  21706707.461     2034414.346 7   1530448.01049  21706705.1994
  23043774.773    -1005291.152 6   -731910.42249  23043772.1024
 95  2 17 16 12  0.0000000  0  5 14 15 22 25 29
  21343523.555    -1220915.753 7   -874890.34249  21343521.9024
  22080881.023     2366307.724 6   1781788.72349  22080879.4414
  22846274.133    -1594700.308 6  -1164926.83249  22846273.4414
  21724372.383     2127243.790 7   1602782.62049  21724370.0744
  23038473.688    -1033148.409 6   -753617.35949  23038471.5314
 95  2 17 16 12 30.0000000  0  5 14 15 22 25 29
  21337333.992    -1253441.255 7   -900234.87749  21337332.2704
  22100567.437     2469762.075 6   1862402.45449  22100566.5004
  22836708.586    -1644967.037 6  -1204095.71749  22836707.8244
  21742186.023     2220852.060 7   1675724.11049  21742183.4804
  23033272.195    -1060480.635 6   -774915.17649  23033270.2384
 95  2 17 16 13  0.0000000  0  5 14 15 22 25 29
  21331289.750    -1285204.588 7   -924985.52549  21331287.7704
  22120413.375     2574054.844 6   1943669.51949  22120412.3094
  22827275.836    -1694535.861 6  -1242720.78049  22827275.2854
  21760143.641     2315221.078 7   1749258.38749  21760141.2854
  23028168.578    -1087301.593 6   -795814.60049  23028165.9304
 95  2 17 16 13 30.0000000  0  5 14 15 22 25 29
  21325390.023    -1316208.719 7   -949144.58049  21325388.0314
  22140417.078     2679176.869 6   2025582.74749  22140416.5044
  22817975.516    -1743411.349 6  -1280805.58749  22817974.6844
  21778243.633     2410336.239 7   1823374.07549  21778241.4534
  23023163.531    -1113605.558 6   -816311.15549  23023160.5904
 95  2 17 16 14  0.0010000  0  5 14 15 22 25 29
  21319631.044    -1346472.670 7   -972726.87649  21319629.1464
  22160576.700     2785114.485 6   2108131.49549  22160575.8804
  22808805.505    -1791601.169 6  -1318356.11649  22808804.7674
  21796484.419     2506192.679 7   1898067.38249  21796482.2864
  23018255.591    -1139396.475 6   -836407.95549  23018253.1064
 95  2 17 16 14 30.0010000  0  5 14 15 22 25 29
  21314008.067    -1376021.334 7   -995751.79949  21314006.1464
  22180887.317     2891846.024 6   2191298.88149  22180886.3334
  22799768.903    -1839085.797 6  -1355357.14749  22799768.3174
  21814862.817     2602770.769 7   1973323.01449  21814860.6144
  23013444.661    -1164678.841 6   -856108.48249  23013442.5994
 95  2 17 16 15  0.0010000  0  5 14 15 22 25 29
  21308517.255    -1404875.310 7  -1018235.41449  21308515.2044
  22201348.489     2999367.604 6   2275081.88749  22201347.4814
  22790870.060    -1885849.820 6  -1391796.68449  22790869.2044
  21833377.169     2700065.482 7   2049137.05449  21833375.2004
  23008731.224    -1189447.088 6   -875408.38349  23008729.0674
 95  2 17 16 15 30.0010000  0  5 14 15 22 25 29
  21303157.255    -1433043.421 7  -1040184.58549  21303155.1224
  22221956.372     3107662.114 6   2359467.17549  22221955.4934
  22782103.646    -1931918.551 6  -1427694.44049  22782102.5794
  21852024.481     2798056.685 7   2125493.81149  21852022.2674
  23004113.200    -1213714.513 6   -894318.05649  23004110.9744
 95  2 17 16 16  0.0010000  0  5 14 15 22 25 29
  21297923.966    -1460542.766 7  -1061612.64349  21297922.0324
  22242706.724     3216704.820 6   2444435.46149  22242705.3644
  22773464.606    -1977316.961 6  -1463069.86949  22773463.5874
  21870797.645     2896711.553 7   2202367.70849  21870795.5014
  22999585.138    -1237510.144 6   -912860.08549  22999582.7944
 95  2 17 16 16 30.0010000  0  5 14 15 22 25 29
  21292818.685    -1487371.215 7  -1082517.92249  21292816.9154
  22263596.560     3326485.010 6   2529978.42049  22263595.2824
  22764950.349    -2022058.662 6  -1497933.57049  22764949.7044
  21889694.646     2996014.103 7   2279746.28949  21889692.5484
  22995143.458    -1260850.748 6   -931047.54649  22995141.1144
 95  2 17 16 17  0.0010000  0  5 14 15 22 25 29
  21287842.231    -1513522.317 7  -1102895.40049  21287840.4154
  22284625.395     3436990.844 6   2616086.82149  22284623.9894
  22756555.114    -2066180.628 6  -1532314.35549  22756553.8604
  21908714.372     3095964.340 7   2357629.56549  21908711.9814
  22990787.575    -1283743.782 6   -948886.26249  22990785.3724
 95  2 17 16 17 30.0010000  0  5 14 15 22 25 29
  21282997.786    -1538981.305 7  -1122733.57249  21282996.1574
  22305790.919     3548215.474 6   2702755.31549  22305789.5604
  22748276.786    -2109685.615 6  -1566214.36449  22748275.5444
  21927858.231     3196566.352 7   2436020.71249  21927856.0874
  22986512.599    -1306208.093 6   -966390.91649  22986509.9744
 95  2 17 16 18  0.0010000  0  5 14 15 22 25 29
  21278280.880    -1563767.961 7  -1142047.84749  21278279.0754
  22327089.466     3660141.386 6   2789970.25149  22327088.3534
  22740115.575    -2152571.779 6  -1599632.17949  22740114.5214
  21947126.997     3297823.927 7   2514922.69349  21947124.6064
  22982315.497    -1328263.367 6   -983576.81749  22982313.0484
 95  2 17 16 18 30.0010000  0  5 14 15 22 25 29
  21273690.497    -1587891.288 7  -1160845.24649  21273688.6574
  22348520.380     3772761.153 6   2877725.87049  22348519.3724
  22732073.185    -2194833.312 6  -1632563.25949  22732072.0364
  21966522.536     3399748.687 7   2594344.55649  21966520.2634
  22978194.138    -1349918.911 6  -1000451.24349  22978191.7004
 95  2 17 16 19  0.0010000  0  5 14 15 22 25 29
  21269224.138    -1611359.899 7  -1179132.47249  21269222.4624
  22370080.833     3886064.522 6   2966014.17149  22370080.2124
  22724150.825    -2236465.664 6  -1665004.02649  22724150.0754
  21986045.778     3502343.009 7   2674288.15649  21986043.6574
  22974148.841    -1371175.446 6  -1017014.75849  22974146.7674
 95  2 17 16 19 30.0010000  0  5 14 15 22 25 29
  21264883.356    -1634169.905 7  -1196906.51149  21264881.7394
  22391771.052     4000046.848 6   3054831.53249  22391770.5364
  22716353.333    -2277442.623 6  -1696934.07949  22716352.6184
  22005694.474     3605597.772 7   2754746.37849  22005692.2244
  22970178.028    -1392043.094 6  -1033275.25349  22970176.1184
 95  2 17 16 20  0.0010000  0  5 14 15 22 25 29
  21260666.122    -1656333.072 7  -1214176.50949  21260664.7394
  22413587.302     4114688.903 6   3144162.95349  22413586.6694
  22708675.950    -2317787.641 6  -1728371.71949  22708675.1064
  22025463.349     3709483.026 7   2835695.89349  22025460.9814
  22966279.481    -1412530.354 6  -1049239.32649  22966277.7824
 95  2 17 16 20 30.0010000  0  5 14 15 22 25 29
  21256574.216    -1677836.979 7  -1230932.79949  21256572.6104
  22435528.911     4229993.847 6   3234010.91549  22435527.6814
  22701118.997    -2357495.449 6  -1759312.81749  22701118.7394
  22045350.771     3813991.394 7   2917130.95249  22045348.6614
  22962457.349    -1432615.511 6  -1064890.08449  22962454.9114
 95  2 17 16 21  0.0010000  0  5 14 15 22 25 29
  21252605.864    -1698690.132 7  -1247182.01549  21252604.3414
  22457593.802     4345947.075 6   3324364.03749  22457592.8644
  22693681.622    -2396578.046 6  -1789766.72249  22693681.4584
  22065352.536     3919102.119 7   2999035.37349  22065350.2864
  22958710.161    -1452308.706 6  -1080235.40949  22958707.5134
 95  2 17 16 21 30.0010000  0  5 14 15 22 25 29
  21248760.591    -1718898.125 7  -1262928.50649  21248759.1034
  22479780.997     4462540.750 6   3415216.20949  22479779.8134
  22686362.919    -2435039.356 6  -1819736.49949  22686362.0874
  22085464.708     4024791.701 7   3081390.85649  22085462.3294
  22955035.341    -1471620.523 6  -1095283.56349  22955033.2434
 95  2 17 16 22  0.0010000  0  5 14 15 22 25 29
  21245033.411    -1738483.720 7  -1278190.01249  21245031.8414
  22502088.474     4579763.781 6   3506558.79549  22502087.3844
  22679157.544    -2472903.824 6  -1849241.22949  22679156.6884
  22105685.294     4131052.666 7   3164191.57049  22105682.9154
  22951432.169    -1490554.573 6  -1110037.35249  22951430.2244
 95  2 17 16 22 30.0010000  0  5 14 15 22 25 29
  21241423.474    -1757455.295 7  -1292973.06349  21241422.0094
  22524513.302     4697609.085 6   3598386.25849  22524512.1774
  22672065.661    -2510173.394 6  -1878282.39249  22672064.6424
  22126014.872     4237881.787 7   3247435.00949  22126012.1064
  22947899.450    -1509119.035 6  -1124503.14849  22947897.2354
 95  2 17 16 23  0.0010000  0  5 14 15 22 25 29
  21237932.067    -1775803.842 7  -1307270.65049  21237930.6144
  22547056.005     4816069.582 6   3690693.09649  22547054.6814
  22665084.888    -2546853.534 6  -1906864.26049  22665084.5604
  22146448.247     4345262.100 7   3331107.94649  22146445.7984
  22944432.286    -1527336.696 6  -1138698.65247  22944429.8724
 95  2 17 16 23 30.0010000  0  5 14 15 22 25 29
  21234561.919    -1793513.602 7  -1321070.44749  21234560.4424
  22569715.802     4935147.848 6   3783481.31649  22569715.0174
  22658219.466    -2582931.944 6  -1934977.26549  22658219.1614
  22166986.075     4453186.988 7   3415205.22849  22166983.5674
  22941034.067    -1545193.942 6  -1152613.44149  22941032.2864
 95  2 17 16 24  0.0010000  0  5 14 15 22 25 29
  21231312.146    -1810590.405 7  -1334377.05749  21231310.3414
  22592489.927     5054824.894 6   3876736.11249  22592488.8964
  22651467.200    -2618418.127 6  -1962628.79049  22651467.0604
  22187625.567     4561649.215 7   3499721.22149  22187623.0014
  22937702.606    -1562702.602 6  -1166256.51949  22937700.4154
 95  2 17 16 24 30.0010000  0  5 14 15 22 25 29
  21228184.169    -1827029.955 7  -1347187.10149  21228182.2594
  22615375.177     5175087.520 6   3970447.20149  22615373.3604
  22644829.177    -2653301.712 6  -1989810.77149  22644828.2164
  22208364.091     4670630.373 7   3584641.57149  22208361.7124
  22934436.052    -1579866.359 6  -1179630.86449  22934434.1534
 95  2 17 16 25  0.0010000  0  5 14 15 22 25 29
  21225180.286    -1842815.948 7  -1359487.87449  21225178.2004
  22638374.036     5295947.119 6   4064623.45949  22638372.0564
  22638311.981    -2687546.393 6  -2016494.89349  22638311.1144
  22229204.380     4780147.757 7   3669979.76349  22229202.3884
  22931241.427    -1596659.218 6  -1192716.19249  22931239.4354
 95  2 17 16 25 30.0010000  0  5 14 15 22 25 29
  21222296.513    -1857969.970 7  -1371296.20649  21222294.4624
  22661484.521     5417393.276 6   4159256.77949  22661483.1264
  22631918.216    -2721148.079 6  -2042677.99749  22631917.6184
  22250147.896     4890206.092 7   3755739.47549  22250145.6814
  22928117.364    -1613075.211 6  -1205507.85549  22928114.5994
 95  2 17 16 26  0.0010000  0  5 14 15 22 25 29
  21219530.630    -1872505.655 7  -1382622.71749  21219528.4384
  22684704.630     5539419.554 6   4254342.13249  22684703.8924
  22625646.067    -2754108.256 6  -2068361.22749  22625645.2594
  22271194.810     5000806.105 7   3841921.26949  22271192.7124
  22925062.630    -1629128.200 6  -1218016.66249  22925060.2514
 95  2 17 16 26 30.0010000  0  5 14 15 22 25 29
  21216883.021    -1886418.766 7  -1393464.10049  21216880.8294
  22708035.513     5662026.165 6   4349879.70549  22708034.7984
  22619497.005    -2786419.156 6  -2093538.53749  22619496.4074
  22292342.677     5111940.499 7   3928519.47749  22292340.6034
  22922076.685    -1644819.510 6  -1230243.65749  22922073.7204
 95  2 17 16 27  0.0010000  0  5 14 15 22 25 29
  21214352.856    -1899712.738 7  -1403823.04549  21214350.8414
  22731476.911     5785210.667 6   4445867.57749  22731476.5954
  22613471.700    -2818082.661 6  -2118211.38749  22613471.4074
  22313591.177     5223602.877 7   4015529.09349  22313588.7284
  22919156.583    -1660163.379 6  -1242199.90649  22919153.8644
 95  2 17 16 27 30.0010000  0  5 14 15 22 25 29
  21211933.981    -1912424.783 7  -1413728.53749  21211932.0014
  22755021.185     5908936.291 6   4542277.09949  22755020.5284
  22607560.021    -2849149.181 6  -2142419.03049  22607559.0834
  22334931.216     5335745.393 7   4102912.84649  22334928.6494
  22916294.177    -1675202.596 6  -1253918.75449  22916291.9274
 95  2 17 16 28  0.0010000  0  5 14 15 22 25 29
  21209633.028    -1924516.149 7  -1423150.38649  21209631.2244
  22778672.239     6033217.622 6   4639119.64749  22778671.4074
  22601764.841    -2879602.774 6  -2166149.07649  22601764.0914
  22356364.841     5448380.261 7   4190680.25749  22356362.1344
  22913492.247    -1689924.624 6  -1265390.46049  22913490.1964
 95  2 17 16 28 30.0010000  0  5 14 15 22 25 29
  21207463.146    -1935919.223 7  -1432035.89749  21207461.3764
  22802435.950     6158101.826 6   4736431.96349  22802435.2824
  22596096.060    -2909396.094 6  -2189364.62149  22596095.3334
  22377903.583     5561565.876 7   4278876.81849  22377900.8764
  22910763.255    -1704268.914 6  -1276567.81149  22910761.0754
 95  2 17 16 29  0.0010000  0  5 14 15 22 25 29
  21205413.935    -1946687.500 7  -1440426.76349  21205412.0714
  22826305.271     6283534.868 6   4834171.94549  22826304.7084
  22590541.294    -2938585.111 6  -2212109.26849  22590540.4034
  22399538.403     5675257.020 7   4367467.30149  22399535.9424
  22908097.505    -1718276.583 6  -1287482.86049  22908095.0914
 95  2 17 16 29 30.0010000  0  5 14 15 22 25 29
  21203486.544    -1956815.915 7  -1448319.03649  21203484.5284
  22850276.778     6409504.324 6   4932329.92349  22850276.4854
  22585101.403    -2967171.066 6  -2234383.99349  22585100.3844
  22421269.466     5789454.414 7   4456452.25949  22421266.6884
  22905496.278    -1731946.825 6  -1298134.98749  22905494.3104
 95  2 17 16 30  0.0010000  0  5 14 15 22 25 29
  21201684.638    -1966286.894 7  -1455699.01549  21201682.7864
  22874351.372     6536016.687 6   5030910.94349  22874350.7514
  22579779.731    -2995137.449 6  -2256175.93249  22579778.4074
  22443101.567     5904182.549 7   4545850.78249  22443099.0484
  22902962.200    -1745263.967 6  -1308511.96049  22902960.1264
 95  2 17 16 30 30.0010000  0  5 14 15 22 25 29
  21200004.591    -1975114.913 7  -1462577.98949  21200002.5754
  22898529.372     6663071.564 6   5129914.69549  22898528.6104
  22574576.739    -3022478.658 6  -2277480.72049  22574575.6734
  22465034.302     6019440.596 7   4635662.22549  22465031.8644
  22900495.872    -1758225.469 6  -1318611.81149  22900493.9504
 95  2 17 16 31  0.0010000  0  5 14 15 22 25 29
  21198445.255    -1983309.605 7  -1468963.46549  21198443.2864
  22922809.497     6790663.187 6   5229336.69549  22922808.3724
  22569493.411    -3049191.026 6  -2298295.50449  22569492.2984
  22487066.599     6135220.744 7   4725880.49249  22487064.4894
  22898093.849    -1770848.514 6  -1328447.93849  22898091.7634
 95  2 17 16 31 30.0010000  0  5 14 15 22 25 29
  21197008.138    -1990861.270 7  -1474847.87849  21197006.2634
  22947190.771     6918789.711 6   5329175.48949  22947189.7634
  22564531.028    -3075266.067 6  -2318613.67849  22564530.4424
  22509198.013     6251521.552 7   4816504.47349  22509195.5874
  22895754.192    -1783141.774 6  -1338027.09549  22895751.9314
 95  2 17 16 32  0.0010000  0  5 14 15 22 25 29
  21195691.263    -1997780.909 7  -1480239.80449  21195689.3064
  22971672.903     7047444.442 6   5429425.88349  22971672.3174
  22559689.489    -3100710.096 6  -2338440.14249  22559688.7164
  22531426.161     6368330.320 7   4907524.26749  22531423.8644
  22893477.747    -1795106.999 6  -1347350.64349  22893475.8844
 95  2 17 16 32 30.0010000  0  5 14 15 22 25 29
  21194493.731    -2004073.102 7  -1485142.80949  21194492.0324
  22996254.747     7176621.232 6   5530083.07049  22996253.8564
  22554970.528    -3125508.579 6  -2357763.59549  22554969.7434
  22553747.192     6485629.337 7   4998926.07549  22553745.1884
  22891261.286    -1806752.936 6  -1356425.39349  22891258.9544
 95  2 17 16 33  0.0010000  0  5 14 15 22 25 29
  21193419.591    -2009718.116 7  -1489541.51949  21193418.0324
  23020935.544     7306318.692 6   5631145.97849  23020933.9274
  22550377.325    -3149646.645 6  -2376572.44949  22550376.9624
  22576161.825     6603420.203 7   5090711.13049  22576159.8104
  22889109.786    -1818061.734 6  -1365237.43149  22889107.1734
 95  2 17 16 33 30.0010000  0  5 14 15 22 25 29
  21192468.294    -2014717.718 7  -1493437.31249  21192466.6304
  23045712.958     7436524.909 6   5732605.31649  23045711.3294
  22545909.950    -3173121.941 6  -2394864.85649  22545908.9664
  22598667.950     6721689.587 7   5182869.06149  22598666.0404
  22887023.544    -1829024.259 6  -1373779.64849  22887020.6734
 95  2 17 16 34  0.0010000  0  5 14 15 22 25 29
  21191638.645    -2019078.167 7  -1496835.06449  21191636.8294
  23070585.435     7567230.768 6   5834453.98249  23070584.2984
  22541568.169    -3195940.121 6  -2412645.23749  22541566.7284
  22621264.997     6840438.690 7   5275400.79849  22621262.7124
  22885003.075    -1839641.412 6  -1382052.74349  22885000.2864
 95  2 17 16 34 30.0010000  0  5 14 15 22 25 29
  21190932.552    -2022789.200 7  -1499726.77849  21190930.7714
  23095551.075     7698427.676 6   5936685.29049  23095550.1494
  22537349.060    -3218110.324 6  -2429920.70049  22537347.4544
  22643953.466     6959666.801 7   5368305.79249  22643951.3804
  22883046.755    -1849923.673 6  -1390064.88849  22883044.3884
 95  2 17 16 35  0.0020000  0  5 14 15 22 25 29
  21190351.150    -2025842.065 7  -1502105.63449  21190349.4864
  23120610.307     7830116.608 6   6039299.99549  23120609.0414
  22533249.986    -3239650.794 6  -2446705.46749  22533248.4864
  22666733.838     7079378.865 7   5461587.87949  22666731.7054
  22881151.354    -1859884.114 6  -1397826.25749  22881148.8224
 95  2 17 16 35 30.0020000  0  5 14 15 22 25 29
  21189893.182    -2028249.354 7  -1503981.44249  21189891.2834
  23145762.400     7962286.971 6   6142289.84649  23145761.4394
  22529269.088    -3260571.483 6  -2463007.28149  22529268.0104
  22689603.479     7199558.437 7   5555234.26749  22689601.4044
  22879311.174    -1869551.908 6  -1405359.60049  22879308.7954
 95  2 17 16 36  0.0020000  0  5 14 15 22 25 29
  21189556.627    -2030019.370 7  -1505360.68249  21189554.7994
  23171004.182     8094933.988 6   6245651.09949  23171003.0454
  22525404.549    -3280879.658 6  -2478831.82349  22525403.4124
  22712558.986     7320190.199 7   5649233.00649  22712556.7834
  22877521.838    -1878954.473 6  -1412686.26249  22877519.7294
 95  2 17 16 36 30.0020000  0  5 14 15 22 25 29
  21189338.846    -2031161.920 7  -1506250.98449  21189337.1464
  23196336.463     8228056.919 6   6349383.19749  23196335.6784
  22521657.057    -3300570.984 6  -2494175.69749  22521655.9554
  22735595.971     7441252.599 7   5743567.30149  22735594.2254
  22875783.689    -1888090.963 6  -1419805.59949  22875781.1004
 95  2 17 16 37  0.0020000  0  5 14 15 22 25 29
  21189236.057    -2031702.921 7  -1506672.54449  21189234.5684
  23221758.408     8361647.240 6   6453479.50849  23221757.1194
  22518029.471    -3319633.082 6  -2509029.26949  22518029.1074
  22758713.697     7562734.941 7   5838228.81549  22758711.7644
  22874094.447    -1896965.621 6  -1426720.90749  22874092.3034
 95  2 17 16 37 30.0020000  0  5 14 15 22 25 29
  21189247.580    -2031640.738 7  -1506624.09049  21189246.0924
  23247268.932     8495703.937 6   6557939.20649  23247268.1464
  22514525.588    -3338046.519 6  -2523377.38349  22514524.7444
  22781911.174     7684640.464 7   5933220.09649  22781909.2054
  22872462.205    -1905544.761 6  -1433405.94349  22872459.4394
 95  2 17 16 38  0.0020000  0  5 14 15 22 25 29
  21189375.900    -2030965.837 7  -1506098.19749  21189374.4824
  23272865.986     8630221.200 6   6662757.78049  23272865.3304
  22511146.174    -3355803.833 6  -2537214.21749  22511145.4824
  22805191.760     7806978.979 7   6028548.78149  22805189.2994
  22870891.791    -1913797.014 6  -1439836.25349  22870889.0494
 95  2 17 16 38 30.0020000  0  5 14 15 22 25 29
  21189619.518    -2029687.637 7  -1505102.20249  21189618.1584
  23298548.729     8765184.902 6   6767924.25149  23298547.7444
  22507889.885    -3372917.118 6  -2550549.21049  22507888.5374
  22828555.307     7929754.382 7   6124217.88549  22828552.7754
  22869384.424    -1921715.455 6  -1446006.45649  22869382.0804
 95  2 17 16 39  0.0020000  0  6 18 14 15 22 25 29
  25300837.611       -5722.87212
  21189983.666    -2027775.894 7  -1503612.53849  21189982.1784
  23324317.213     8900600.421 6   6873442.76649  23324316.6044
  22504758.369    -3389372.366 6  -2563371.45149  22504757.5964
  22852004.525     8052981.754 7   6220239.17949  22852001.8184
  22867942.588    -1929292.570 6  -1451910.69749  22867940.2444
 95  2 17 16 39 30.0020000  0  6 18 14 15 22 25 29
  25294330.088      -39924.661 3
  21190470.455    -2025215.274 7  -1501617.25649  21190468.9324
  23350170.588     9036455.646 6   6979303.91949  23350169.6034
  22501747.971    -3405194.324 7  -2575700.21449  22501746.7054
  22875536.025     8176641.171 6   6316597.11749  22875533.6824
  22866565.486    -1936531.718 7  -1457551.57249  22866562.8504
 95  2 17 16 40  0.0020000  0  6 18 14 15 22 25 29
  25287870.869      -73871.158 3    -15845.92358  25287867.5764
  21191082.174    -2022000.719 7  -1499112.41549  21191080.5454
  23376105.643     9172747.427 6   7085505.25049  23376104.2954
  22498856.299    -3420390.770 7  -2587541.57049  22498855.1154
  22899147.330     8300719.069 6   6413281.12249  22899145.5254
  22865246.979    -1943460.033 6  -1462950.24749  22865244.6114
 95  2 17 16 40 30.0020000  0  6 18 14 15 22 25 29
  25281460.197     -107562.236 3    -42098.67749  25281454.8074
  21191820.791    -2018119.512 7  -1496088.10549  21191819.1154
  23402123.775     9309474.676 6   7192045.89649  23402123.0614
  22496083.291    -3434961.733 7  -2598895.53149  22496082.2134
  22922835.025     8425199.791 6   6510279.02749  22922833.0214
  22863985.119    -1950088.344 6  -1468115.15549  22863983.0924
 95  2 17 16 41  0.0020000  0  6 18 14 15 22 25 29
  25275093.939     -141012.679 3    -68163.92949  25275092.4284
  21192687.971    -2013562.446 7  -1492537.15849  21192686.2254
  23428224.369     9446632.930 6   7298922.39549  23428223.6894
  22493430.424    -3448901.961 7  -2609758.00649  22493429.5104
  22946598.604     8550076.215 6   6607585.27449  22946596.5884
  22862781.135    -1956418.327 6  -1473047.60149  22862778.9434
 95  2 17 16 41 30.0020000  0  6 18 14 15 22 25 29
  25268775.143     -174224.682 3    -94043.44149  25268775.1544
  21193682.158    -2008337.640 7  -1488465.88449  21193680.7994
  23454405.416     9584218.085 6   7406131.55149  23454404.9124
  22490898.213    -3462206.203 7  -2620124.92149  22490897.6974
  22970439.049     8675358.883 6   6705208.07549  22970437.0924
  22861633.150    -1962452.620 6  -1477749.63449  22861630.7954
 95  2 17 16 42  0.0020000  0  6 18 14 15 22 25 29
  25262498.588     -207206.320 3   -119743.38347  25262499.5374
  21194800.971    -2002458.957 7  -1483885.10249  21194799.5414
  23480667.424     9722227.319 6   7513671.14249  23480667.5294
  22488491.721    -3474852.604 6  -2629979.23849  22488491.1824
  22994358.627     8801054.050 7   6803152.30549  22994356.8344
  22860539.854    -1968196.189 6  -1482225.13649  22860537.6624
 95  2 17 16 42 30.0020000  0  6 18 14 15 22 25 29
  25256259.346     -239994.373 3   -145292.43547  25256260.6114
  21196042.760    -1995932.713 7  -1478799.72549  21196041.2834
  23507008.072     9860645.483 6   7621529.38949  23507007.9674
  22486209.557    -3486844.711 6  -2639323.70749  22486209.2874
  23018355.791     8927161.668 6   6901417.92949  23018353.9514
  22859501.221    -1973652.208 6  -1486476.56549  22859499.5334
 95  2 17 16 43  0.0020000  0  6 18 14 15 22 25 29
  25250057.385     -272585.117 3   -170687.81948  25250055.4634
  21197407.361    -1988761.194 7  -1473211.54149  21197405.9784
  23533425.830     9999475.170 5   7729708.31749  23533425.8074
  22484055.729    -3498164.933 7  -2648144.63449  22484055.0254
  23042434.182     9053694.608 6   7000014.97249  23042432.4594
  22858517.057    -1978824.220 6  -1490506.70249  22858514.9944
 95  2 17 16 43 30.0020000  0  6 18 14 15 22 25 29
  25243895.721     -304974.225 3   -195926.07549  25243896.9984
  21198895.619    -1980941.027 7  -1467117.91349  21198894.3304
  23559923.705    10138720.628 5   7838211.21149  23559923.5644
  22482030.072    -3508812.506 7  -2656441.41549  22482029.3694
  23066593.104     9180649.612 6   7098940.89549  23066591.4164
  22857587.416    -1983709.606 6  -1494313.49049  22857585.6114
 95  2 17 16 44  0.0020000  0  6 18 14 15 22 25 29
  25237766.932     -337175.015 3   -221017.55849  25237765.6194
  21200509.564    -1972461.430 7  -1460510.43749  21200508.1584
  23586499.861    10278374.490 6   7947032.32849  23586499.4634
  22480130.854    -3518791.759 7  -2664217.44149  22480129.6934
  23090828.111     9308006.268 6   7198179.80049  23090826.4244
  22856712.291    -1988309.581 6  -1497897.87449  22856710.2874
 95  2 17 16 44 30.0020000  0  6 18 14 15 22 25 29
  25231673.838     -369189.797 3   -245964.10549  25231672.8894
  21202248.697    -1963321.288 7  -1453388.25349  21202247.1974
  23613150.947    10418425.704 6   8056163.06649  23613150.3264
  22478356.549    -3528113.406 7  -2671481.05449  22478355.8574
  23115138.064     9435754.716 6   7297724.00349  23115136.2954
  22855890.635    -1992626.488 6  -1501261.68949  22855888.1504
 95  2 17 16 45  0.0020000  0  6 18 14 15 22 25 29
  25225619.486     -400994.671 3   -270747.14749  25225622.3694
  21204112.330    -1953528.199 7  -1445757.27549  21204110.7484
  23639877.564    10558876.652 6   8165605.29749  23639876.8264
  22476709.658    -3536769.179 7  -2678225.80349  22476709.0374
  23139521.924     9563893.121 6   7397572.05449  23139520.2714
  22855125.205    -1996648.237 6  -1504395.51749  22855122.9084
 95  2 17 16 45 30.0020000  0  6 18 14 15 22 25 29
  25219606.400     -432590.312 2   -295367.10449  25219606.7054
  21206100.385    -1943082.108 7  -1437617.46949  21206098.9204
  23666678.830    10699717.614 6   8275351.42549  23666678.7014
  22475188.994    -3544764.348 7  -2684455.79449  22475187.9754
  23163978.830     9692416.048 6   7497719.74049  23163976.9084
  22854415.424    -2000378.530 6  -1507302.24149  22854413.2444
 95  2 17 16 46  0.0020000  0  6 18 14 15 22 25 29
  25213639.502     -463963.083 3   -319813.35748  25213640.5924
  21208212.682    -1931980.655 7  -1428966.98649  21208211.1464
  23693553.525    10840945.846 6   8385399.33349  23693553.4904
  22473795.963    -3552082.621 7  -2690158.33249  22473794.6394
  23188509.463     9821323.262 6   7598166.87449  23188508.0214
  22853760.830    -2003819.485 6  -1509983.50449  22853758.7564
 95  2 17 16 46 30.0020000  0  6 18 14 15 22 25 29
  25207713.236     -495095.589 3   -344072.43849  25207715.9084
  21210447.877    -1920234.292 7  -1419813.97749  21210446.3544
  23720502.939    10982563.116 6   8495750.38849  23720502.4004
  22472532.353    -3558722.476 7  -2695332.22649  22472531.0184
  23213114.572     9950625.012 6   7698921.44049  23213112.5454
  22853160.885    -2006972.009 6  -1512440.01349  22853158.6114
 95  2 17 16 47  0.0020000  0  6 18 14 15 22 25 29
  25201829.986     -526009.324 3   -368161.02647  25201832.3074
  21212805.986    -1907841.713 7  -1410157.42249  21212804.5924
  23747524.377    11124559.003 6   8606396.46749  23747523.3574
  22471396.314    -3564691.614 7  -2699983.48549  22471395.0254
  23237793.439    10080313.387 6   7799977.27049  23237791.3894
  22852612.385    -2009852.515 6  -1514684.56349  22852610.0064
 95  2 17 16 47 30.0020000  0  6 18 14 15 22 25 29
  25195991.424     -556702.559 3   -392077.81249  25195994.5764
  21215288.635    -1894795.440 7  -1399991.49749  21215287.2054
  23774617.643    11266934.222 6   8717338.12849  23774616.0494
  22470388.557    -3569984.197 7  -2704107.56349  22470387.8774
  23262545.377    10210384.813 6   7901331.58549  23262543.4904
  22852115.072    -2012462.683 6  -1516718.45749  22852113.2324
 95  2 17 16 48  0.0020000  0  6 18 14 15 22 25 29
  25190193.650     -587162.575 3   -415812.88948  25190194.6704
  21217895.143    -1881101.226 7  -1389320.67949  21217893.5144
  23801782.971    11409690.164 6   8828576.44749  23801782.4084
  22469511.955    -3574593.645 7  -2707699.31849  22469511.2174
  23287369.252    10340835.139 6   8002981.13749  23287367.3774
  22851674.002    -2014783.441 6  -1518526.84149  22851672.3734
 95  2 17 16 48 30.0020000  0  6 18 14 15 22 25 29
  25184437.838     -617414.614 3   -439385.88748  25184436.9004
  21220622.643    -1866768.223 7  -1378152.11049  21220620.7564
  23829018.033    11552814.211 5   8940101.61149  23829017.0614
  22468762.307    -3578533.080 7  -2710768.99449  22468761.1114
  23312264.033    10471655.044 6   8104918.67949  23312262.4634
  22851288.533    -2016812.655 6  -1520108.04849  22851286.3304
 95  2 17 16 49  0.0020000  0  6 18 14 15 22 25 29
  25178720.635     -647464.024 3   -462800.97649  25178720.0844
  21223473.369    -1851785.773 7  -1366477.47649  21223471.4474
  23856323.611    11696304.105 5   9051911.83149  23856323.2714
  22468142.041    -3581790.696 7  -2713307.38449  22468141.4084
  23337226.744    10602837.775 6   8207138.92549  23337225.3504
  22850959.869    -2018538.697 7  -1521453.01849  22850957.3144
 95  2 17 16 49 30.0020000  0  6 18 14 15 22 25 29
  25173043.744     -677289.051 3   -486041.23049  25173042.0574
  21226447.111    -1836158.417 7  -1354300.32349  21226445.3424
  23883697.268    11840154.868 5   9164003.25549  23883696.6824
  22467652.979    -3584362.681 7  -2715311.51249  22467652.2294
  23362257.580    10734373.378 6   8309634.14949  23362255.9164
  22850689.393    -2019959.032 6  -1522559.77349  22850687.0254
 95  2 17 16 50  0.0020000  0  6 18 14 15 22 25 29
  25167408.986     -706907.166 4   -509120.24049  25167406.9124
  21229547.377    -1819866.903 7  -1341605.63849  21229545.5724
  23911138.525    11984359.947 5   9276370.77649  23911139.1824
  22467293.814    -3586249.917 7  -2716782.06749  22467292.6434
  23387356.471    10866269.159 6   8412410.03349  23387354.8894
  22850475.760    -2021082.634 6  -1523435.30449  22850473.5104
 95  2 17 16 50 30.0020000  0  6 18 14 15 22 25 29
  25161810.979     -736326.622 3   -532044.45349  25161811.0964
  21232780.072    -1802879.217 7  -1328368.48349  21232778.3734
  23938648.580    12128923.473 5   9389017.61149  23938648.5804
  22467067.213    -3587439.995 7  -2717709.38649  22467065.9824
  23412525.682    10998535.415 6   8515474.59449  23412524.3814
  22850316.947    -2021915.460 7  -1524084.26049  22850314.3574
 95  2 17 16 51  0.0020000  0  6 18 14 15 22 25 29
  25156250.916     -765539.045 3   -554807.31949  25156252.6974
  21236143.643    -1785203.952 7  -1314595.55949  21236141.9204
  23966222.791    12273833.756 5   9501934.61849  23966222.7914
  22466973.135    -3587936.216 7  -2718096.04549  22466972.1394
  23437764.197    11131163.224 6   8618820.87849  23437763.0724
  22850210.697    -2022475.536 7  -1524520.67449  22850208.4244
 95  2 17 16 51 30.0020000  0  6 18 14 15 22 25 29
  25150733.650     -794535.635 3   -577402.03449  25150734.4364
  21239638.728    -1766838.175 7  -1300284.56949  21239637.0294
  23993865.049    12419091.093 5   9615122.10549  23993865.1434
  22467011.002    -3587737.593 7  -2717941.25349  22467010.0644
  23463073.682    11264165.765 6   8722459.17249  23463072.5574
  22850156.611    -2022760.586 7  -1524742.79149  22850153.9044
 95  2 17 16 52  0.0030000  0  6 18 14 15 22 25 29
  25145253.405     -823331.645 3   -599840.40249  25145254.3784
  21243265.171    -1747779.246 7  -1285433.46349  21243263.7184
  24021572.929    12564697.030 5   9728581.19949  24021572.2614
  22467181.647    -3586839.853 7  -2717241.71349  22467180.6514
  23488455.952    11397549.544 6   8826394.52249  23488454.9794
  22850155.171    -2022767.102 7  -1524747.87149  22850152.6044
 95  2 17 16 52 30.0030000  0  6 18 14 15 22 25 29
  25139815.460     -851910.025 3   -622109.24348  25139815.5774
  21247018.890    -1728052.431 7  -1270061.93049  21247017.3904
  24049344.233    12710632.187 5   9842296.84549  24049343.8704
  22467483.210    -3585255.308 7  -2716006.99149  22467481.9914
  23513905.874    11531291.879 6   8930609.27249  23513904.6324
  22850207.843    -2022490.704 7  -1524532.49149  22850205.2764
 95  2 17 16 53  0.0030000  0  6 18 14 15 22 25 29
  25134419.007     -880259.925 3   -644200.03349  25134421.0584
  21250897.741    -1707670.639 7  -1254180.02449  21250896.2654
  24077178.499    12856900.358 5   9956271.95349  24077178.2884
  22467914.554    -3582987.259 7  -2714239.67349  22467913.4874
  23539424.741    11665396.461 6   9035106.30449  23539423.4994
  22850315.804    -2021923.637 7  -1524090.61349  22850313.2264
 95  2 17 16 53 30.0030000  0  6 18 14 15 22 25 29
  25129064.507     -908401.666 3   -666128.60749  25129065.7614
  21254903.296    -1686620.519 7  -1237777.34449  21254901.9364
  24105074.710    13003498.504 5  10070504.19249  24105074.5934
  22468474.772    -3580042.251 7  -2711944.86149  22468473.8234
  23565011.944    11799853.174 6   9139877.70249  23565010.8784
  22850479.241    -2021065.562 7  -1523421.97849  22850476.5464
 95  2 17 16 54  0.0030000  0  6 18 14 15 22 25 29
  25123744.780     -936357.096 3   -687912.02349  25123745.3544
  21259034.929    -1664909.176 7  -1220859.42249  21259033.4294
  24133032.296    13150415.597 5  10184984.96649  24133031.6864
  22469162.616    -3576427.784 7  -2709128.39349  22469161.7844
  23590660.186    11934634.756 6   9244902.25649  23590658.9214
  22850696.522    -2019925.582 7  -1522533.67049  22850694.0974
 95  2 17 16 54 30.0030000  0  6 18 14 15 22 25 29
  25118460.679     -964122.907 3   -709547.66949  25118461.5694
  21263291.468    -1642541.678 7  -1203430.21649  21263289.8394
  24161049.694    13297650.705 5  10299713.52149  24161049.4484
  22469979.358    -3572135.131 7  -2705783.47249  22469978.4334
  23616369.054    12069738.046 6   9350177.49749  23616367.6474
  22850967.101    -2018501.096 7  -1521423.67849  22850964.4524
 95  2 17 16 55  0.0030000  0  6 18 14 15 22 25 29
  25113209.601     -991716.698 3   -731049.30949  25113208.8394
  21267673.960    -1619511.006 7  -1185484.24849  21267672.3904
  24189126.554    13445197.696 5  10414685.12349  24189126.5194
  22470928.327    -3567149.747 7  -2701898.75149  22470927.2374
  23642137.483    12205150.438 6   9455693.59749  23642136.1244
  22851290.960    -2016800.591 7  -1520098.60149  22851288.3944
 95  2 17 16 55 30.0030000  0  6 18 14 15 22 25 29
  25107989.226       -8209.51013   -752423.14847  25107989.8824
  21272183.304    -1595813.499 7  -1167018.66949  21272181.7574
  24217261.429    13593046.115 5  10529891.60649  24217261.9684
  22472008.312    -3561474.601 7  -2697476.56049  22472007.2694
  23667962.390    12340861.321 6   9561442.28449  23667960.8434
  22851665.882    -2014830.268 7  -1518563.28049  22851663.1044
 95  2 17 16 56  0.0030000  0  6 18 14 15 22 25 29
  25102810.218      -21760.79513   -773636.05949  25102808.5654
  21276821.835    -1571438.434 7  -1148025.12549  21276820.1244
  24245456.233    13741210.432 5  10645344.22249  24245456.3744
  22473225.780    -3555076.508 7  -2692491.03749  22473224.7494
  23693848.616    12476895.823 6   9667443.14449  23693847.3864
  22852095.897    -2012571.432 7  -1516803.15149  22852093.1444
 95  2 17 16 56 30.0030000  0  6 18 14 15 22 25 29
  25097672.827      -48758.566 3   -794673.21249  25097670.0974
  21281589.444    -1546383.401 7  -1128501.74149  21281587.9214
  24273710.960    13889684.979 5  10761038.58749  24273710.9484
  22474581.538    -3547953.736 7  -2686940.82649  22474580.0974
  23719800.632    12613271.245 6   9773709.66749  23719798.6284
  22852579.155    -2010031.806 7  -1514824.22049  22852576.6364
 95  2 17 16 57  0.0030000  0  6 18 14 15 22 25 29
  25092577.491      -75531.723 3   -815535.41949  25092576.5544
  21286489.952    -1520632.604 7  -1108436.19749  21286488.4764
  24302024.358    14038469.628 5  10876974.60249  24302024.1834
  22476071.640    -3540121.234 7  -2680837.58049  22476070.3974
  23745816.890    12749987.976 6   9880242.13649  23745815.5654
  22853115.765    -2007210.821 7  -1512626.04649  22853113.1874
 95  2 17 16 57 30.0030000  0  6 18 14 15 22 25 29
  25087525.155     -102078.433 3   -836221.12049  25087524.9334
  21291520.116    -1494198.196 7  -1087837.96249  21291518.5934
  24330395.015    14187559.010 5  10993148.06149  24330394.8744
  22477695.218    -3531589.689 7  -2674189.62449  22477694.2224
  23771899.765    12887054.937 6   9987047.52249  23771897.8314
  22853706.577    -2004104.754 7  -1510205.72049  22853704.0224
 95  2 17 16 58  0.0030000  0  6 18 14 15 22 25 29
  25082517.452     -128404.380 4   -856734.84449  25082516.9954
  21296678.944    -1467090.092 7  -1066714.77649  21296677.1634
  24358823.116    14336947.929 5  11109554.90049  24358822.5074
  22479452.538    -3522353.464 7  -2666992.56549  22479451.9174
  23798049.616    13024472.676 6  10094126.23649  23798048.0224
  22854352.726    -2000709.714 7  -1507560.22349  22854350.3474
 95  2 17 16 58 30.0030000  0  6 18 14 15 22 25 29
  25077542.499     -154546.402 4   -877105.19049  25077541.5974
  21301963.890    -1439317.326 7  -1045073.67349  21301962.1324
  24387305.983    14486623.771 5  11226185.34849  24387305.7614
  22481340.179    -3512435.892 7  -2659264.58249  22481339.3704
  23824260.968    13162214.086 6  10201457.15849  23824259.2574
  22855052.108    -1997033.811 7  -1504695.87749  22855049.8824
 95  2 17 16 59  0.0030000  0  6 18 14 15 22 25 29
  25072601.218     -180508.580 4   -897335.43749  25072600.4094
  21307377.944    -1410866.481 7  -1022904.18649  21307376.1164
  24415844.054    14636595.267 5  11343046.15249  24415843.5974
  22483360.788    -3501818.665 7  -2650991.41749  22483359.6044
  23850533.515    13300275.005 6  10309037.05849  23850532.0504
  22855809.319    -1993053.219 7  -1501594.11049  22855807.0584
 95  2 17 16 59 30.0030000  0  6 18 14 15 22 25 29
  25067692.601     -206302.253 4   -917434.35049  25067692.2724
  21312917.390    -1381755.183 7  -1000220.07049  21312915.9254
  24444435.163    14786842.461 5  11460121.79249  24444434.6594
  22485515.335    -3490498.380 7  -2642170.41749  22485513.9994
  23876864.804    13438649.133 6  10416861.00849  23876863.2224
  22856623.194    -1988777.856 7  -1498262.65349  22856621.0974
 95  2 17 17  0  0.0030000  0  6 18 14 15 22 25 29
  25062814.577     -231929.282 3   -937403.44049  25062814.8584
  21318586.233    -1351965.756 7   -977007.53849  21318584.5584
  24473078.335    14937366.445 5  11577413.10349  24473077.8784
  22487805.593    -3478462.285 7  -2632791.64949  22487804.5384
  23903253.710    13577326.065 6  10524920.92049  23903252.3394
  22857491.054    -1984216.601 7  -1494708.42549  22857488.6164
 95  2 17 17  0 30.0030000  0  6 18 14 15 22 25 29
  25057973.304     -257377.438 3   -957233.14649  25057972.9174
  21324387.280    -1321481.669 7   -953253.71249  21324385.7924
  24501774.671    15088168.918 5  11694921.42849  24501774.9404
  22490233.233    -3465701.459 7  -2622848.15349  22490232.3434
  23929701.999    13716310.706 6  10633220.59249  23929700.3234
  22858412.202    -1979378.023 7  -1490938.10949  22858409.5544
 95  2 17 17  1  0.0030000  0  6 18 14 15 22 25 29
  25053169.405     -282622.457 4   -976904.55649  25053171.1984
  21330318.991    -1290309.484 7   -928963.71149  21330317.5034
  24530522.866    15239239.753 5  11812638.86149  24530523.5814
  22492802.062    -3452204.888 7  -2612331.34549  22492801.0654
  23956208.741    13855603.240 6  10741760.19149  23956207.5224
  22859383.944    -1974271.322 7  -1486958.85749  22859381.3664
 95  2 17 17  1 30.0030000  0  6 18 14 15 22 25 29
  25048406.038     -307654.937 4   -996410.33349  25048405.8154
  21336380.163    -1258456.232 7   -904143.00249  21336378.7924
  24559320.499    15390574.742 5  11930562.13949  24559321.1904
  22495510.124    -3437971.868 7  -2601240.67349  22495508.9294
  23982773.007    13995198.482 6  10850535.66149  23982771.9054
  22860403.608    -1968911.287 7  -1482782.19749  22860401.4404
 95  2 17 17  2  0.0030000  0  6 18 14 15 22 25 29
  25043681.413     -332478.096 3  -1015753.02849  25043682.6204
  21342572.288    -1225917.511 7   -878788.16049  21342570.7654
  24588167.210    15542165.589 5  12048684.76649  24588167.2694
  22498356.929    -3423014.093 7  -2589585.25949  22498356.0974
  24009388.968    14135070.252 6  10959526.60549  24009388.1474
  22861469.562    -1963310.398 7  -1478417.86649  22861467.4994
 95  2 17 17  2 30.0030000  0  6 18 14 15 22 25 29
  25039001.601     -357075.277 4  -1034919.58749  25039001.6944
  21348896.343    -1192686.565 7   -852893.92449  21348894.6084
  24617063.624    15694011.475 5  12167006.15249  24617063.4724
  22501340.069    -3407335.453 7  -2577368.13949  22501339.1324
  24036058.507    14275217.855 6  11068732.47549  24036057.9214
  22862585.062    -1957449.008 7  -1473850.55049  22862582.9994
 95  2 17 17  3  0.0030000  0  6 18 14 15 22 25 29
  25034360.351     -381461.633 4  -1053921.90149  25034359.7654
  21355351.913    -1158762.744 7   -826459.79049  21355349.9794
  24646007.687    15846108.229 5  12285522.99849  24646007.4294
  22504457.718    -3390948.078 7  -2564598.75249  22504457.0034
  24062779.983    14415640.734 6  11178152.84949  24062778.7064
  22863752.694    -1951311.449 7  -1469068.03049  22863750.3864
 95  2 17 17  3 30.0030000  0  6 18 14 15 22 25 29
  25029757.124     -405654.204 4  -1072773.24149  25029757.3944
  21361944.374    -1124116.961 7   -799463.08849  21361942.6284
  24674998.655    15998459.601 5  12404238.23949  24674998.3274
  22507711.710    -3373851.646 7  -2551276.83949  22507710.7614
  24089555.460    14556347.408 6  11287794.36149  24089554.3584
  22864974.468    -1944890.064 7  -1464064.35149  22864972.2184
 95  2 17 17  4  0.0030000  0  6 18 14 15 22 25 29
  25025190.554       -7978.31614  -1091477.66149  25025189.4874
  21368675.976    -1088743.629 7   -771899.46049  21368674.0544
  24704036.343    16151054.320 5  12523143.11549  24704035.9334
  22511098.046    -3356057.100 7  -2537410.93349  22511096.8274
  24116384.366    14697331.734 6  11397652.21949  24116384.0734
  22866249.413    -1938190.527 7  -1458843.92449  22866247.4684
 95  2 17 17  4 30.0030000  0  6 18 14 15 22 25 29
  25020656.874      -31797.201 5  -1110037.80549  25020654.9404
  21375543.655    -1052652.351 7   -743776.39749  21375541.8514
  24733119.976    16303890.982 5  12642236.50249  24733121.0774
  22514619.101    -3337554.461 7  -2522993.27049  22514617.9874
  24143270.913    14838623.173 6  11507749.37849  24143270.4794
  22867578.108    -1931208.996 7  -1453403.76749  22867576.2104
 95  2 17 17  5  0.0030000  0  6 18 14 15 22 25 29
  25016156.655      -55450.934 5  -1128469.24749  25016156.9484
  21382545.679    -1015856.500 7   -715104.32249  21382543.8974
  24762248.937    16456965.777 5  12761515.47649  24762249.8394
  22518277.546    -3318329.653 7  -2508012.87149  22518276.2574
  24170217.702    14980227.302 6  11618090.20249  24170217.2454
  22868957.913    -1923959.064 7  -1447754.46549  22868955.9684
 95  2 17 17  5 30.0030000  0  6 18 14 15 22 25 29
  25011688.452      -78930.307 5  -1146764.81049  25011687.9014
  21389676.765     -978383.290 7   -685904.43149  21389674.9604
  24791421.843    16610268.646 5  12880972.13149  24791423.1904
  22522075.562    -3298373.432 7  -2492462.53849  22522074.1204
  24197220.124    15122125.804 6  11728660.39249  24197218.9764
  22870384.327    -1916461.068 7  -1441911.86449  22870382.5224
 95  2 17 17  6  0.0030000  0  6 18 14 15 22 25 29
  25007255.843     -102223.821 5  -1164915.55149  25007255.5624
  21396932.069     -940257.696 7   -656196.18649  21396930.2884
  24820638.046    16763800.167 5  13000606.98249  24820639.1244
  22526011.358    -3277687.159 7  -2476343.33149  22526010.1404
  24224280.186    15264329.526 6  11839468.43549  24224279.3544
  22871860.522    -1908701.809 7  -1435865.69249  22871858.7294
 95  2 17 17  6 30.0030000  0  6 18 14 15 22 25 29
  25002855.187     -125347.265 5  -1182933.75649  25002853.9684
  21404307.663     -901498.618 7   -625994.31749  21404305.7764
  24849895.038    16917550.313 5  13120412.18149  24849896.7144
  22530085.812    -3256275.453 7  -2459658.85449  22530085.0974
  24251396.569    15406826.438 6  11950504.93949  24251396.0074
  22873389.077    -1900672.923 7  -1429609.42049  22873387.0974
 95  2 17 17  7  0.0040000  0  6 18 14 15 22 25 29
  24998489.746     -148283.990 4  -1200806.48349  24998489.5124
  21411806.199     -862092.371 7   -595288.16149  21411804.3364
  24879195.965    17071525.788 5  13240392.96349  24879196.4804
  22534297.441    -3234143.149 7  -2442412.86749  22534296.6094
  24278564.785    15549596.118 6  12061753.97949  24278563.5784
  22874969.465    -1892368.665 7  -1423138.56049  22874967.0164
 95  2 17 17  7 30.0040000  0  6 18 14 15 22 25 29
  24994166.871     -171000.761 4  -1218507.81549  24994166.3674
  21419431.777     -822020.525 7   -564063.36149  21419430.0784
  24908538.809    17225719.961 5  13360544.15149  24908539.6874
  22538644.676    -3211298.315 7  -2424611.65049  22538643.6914
  24305784.973    15692633.048 6  12173211.25749  24305783.8124
  22876604.644    -1883774.665 7  -1416441.93449  22876602.2074
 95  2 17 17  8  0.0040000  0  6 18 14 15 22 25 29
  24989881.309     -193515.125 3  -1236051.41849  24989880.4654
  21427188.988     -781254.946 7   -532297.98249  21427187.1844
  24937921.238    17380125.295 5  13480859.90149  24937921.9064
  22543123.832    -3187759.890 7  -2406269.98949  22543122.9534
  24333052.395    15835925.094 6  12284867.33149  24333050.8954
  22878294.887    -1874891.136 7  -1409519.70749  22878292.7544
 95  2 17 17  8 30.0040000  0  6 18 14 15 22 25 29
  24985635.934     -215828.860 4  -1253438.68349  24985634.7734
  21435081.363     -739780.193 7   -499980.00949  21435079.8054
  24967342.863    17534736.970 5  13601336.42349  24967344.0704
  22547739.355    -3163505.031 7  -2387370.06149  22547738.7114
  24360364.645    15979453.362 6  12396707.46249  24360363.8244
  22880036.699    -1865737.857 7  -1402387.28249  22880035.0124
 95  2 17 17  9  0.0040000  0  6 18 14 15 22 25 29
  24981429.184     -237938.030 4  -1270666.58449  24981428.4804
  21443111.035     -697584.559 7   -467100.30349  21443109.3484
  24996802.980    17689551.219 5  13721970.77349  24996802.6644
  22552493.543    -3138521.625 7  -2367902.43849  22552492.4884
  24387722.988    16123221.339 6  12508734.39349  24387721.5944
  22881828.410    -1856322.875 7  -1395050.92449  22881826.4414
 95  2 17 17  9 30.0040000  0  6 18 14 15 22 25 29
  24977259.707     -259853.190 5  -1287743.25449  24977259.6374
  21451278.785     -654664.061 7   -433655.77349  21451276.7704
  25026301.043    17844564.780 5  13842760.47149  25026302.4964
  22557388.480    -3112796.149 7  -2347856.58349  22557387.8714
  24415127.965    16267233.786 6  12620951.80049  24415126.8754
  22883670.855    -1846641.191 7  -1387506.74949  22883668.6174
 95  2 17 17 10  0.0040000  0  6 18 14 15 22 25 29
  24973122.262     -281590.413 4  -1304681.30249  24973120.6454
  21459581.863     -611028.730 7   -399654.23249  21459580.0004
  25055836.684    17999774.956 5  13963703.32749  25055836.7304
  22562426.676    -3086321.562 7  -2327227.01349  22562425.9024
  24442580.301    16411498.499 6  12733365.77849  24442579.7154
  22885563.176    -1836697.870 7  -1379758.71049  22885561.1374
 95  2 17 17 10 30.0040000  0  6 18 14 15 22 25 29
  24969018.949     -303149.333 4  -1321480.44449  24969018.5744
  21468016.715     -566704.242 7   -365115.68549  21468014.8404
  25085409.215    18155179.066 5  14084797.32849  25085410.0004
  22567608.168    -3059092.676 7  -2306009.67649  22567607.1484
  24470084.473    16556032.523 6  12845989.60749  24470083.6294
  22887504.512    -1826496.531 7  -1371809.61349  22887502.1334
 95  2 17 17 11  0.0040000  0  6 18 14 15 22 25 29
  24964950.848     -324529.674 4  -1338140.41149  24964950.1684
  21476580.840     -521699.287 7   -330046.90049  21476578.8594
  25115017.449    18310767.861 5  14206035.22249  25115017.0744
  22572928.848    -3031133.807 7  -2284223.50449  22572927.5704
  24497639.863    16700837.111 6  12958824.28349  24497639.1484
  22889496.324    -1816028.707 7  -1363652.85849  22889493.9804
 95  2 17 17 11 30.0040000  0  6 18 14 15 22 25 29
  24960914.387     -345738.990 4  -1354667.11849  24960915.1374
  21485273.668     -476017.704 7   -294450.88149  21485271.6874
  25144658.113    18466529.901 5  14327408.09949  25144657.5624
  22578385.684    -3002457.846 7  -2261878.57149  22578384.4184
  24525246.066    16845909.126 6  13071867.33049  24525245.6214
  22891536.543    -1805306.073 7  -1355297.55649  22891534.0474
 95  2 17 17 12  0.0040000  0  6 18 14 15 22 25 29
  24956911.285     -366773.407 4  -1371057.52249  24956909.8914
  21494096.434     -429654.115 7   -258323.42049  21494094.7934
  25174332.238    18622465.221 5  14448916.01249  25174331.4414
  22583980.613    -2973054.547 7  -2238966.88549  22583979.6994
  24552904.207    16991254.722 5  13185123.55149  24552904.0554
  22893626.074    -1794324.824 7  -1346740.74349  22893623.7544
 95  2 17 17 12 30.0040000  0  6 18 14 15 22 25 29
  24952944.879     -387618.388 4  -1387300.31049  24952944.0944
  21503054.230     -382580.573 7   -221642.74849  21503052.3444
  25204040.809    18778582.891 5  14570566.02649  25204039.3324
  22589718.965    -2942898.387 7  -2215468.55149  22589718.0164
  24580612.387    17136863.322 5  13298584.71549  24580611.9064
  22895769.629    -1783063.796 7  -1337965.91849  22895767.1214
 95  2 17 17 13  0.0040000  0  6 18 14 15 22 25 29
  24949011.840     -408283.769 4  -1403403.17749  24949010.9024
  21512151.527     -334773.597 7   -184390.56949  21512149.5004
  25233783.309    18934881.456 5  14692356.96449  25233784.5044
  22595603.223    -2911976.908 7  -2191373.86749  22595602.2154
  24608366.777    17282713.207 5  13412233.88849  24608366.6724
  22897965.395    -1771526.014 7  -1328975.43749  22897962.8634
 95  2 17 17 13 30.0040000  0  6 18 14 15 22 25 29
  24945113.754     -428778.017 5  -1419372.68149  24945112.8054
  21521390.348     -286224.604 7   -146560.19149  21521388.2384
  25263559.770    19091357.679 5  14814286.35249  25263560.6254
  22601633.059    -2880288.761 7  -2166681.77749  22601631.6644
  24636165.184    17428790.978 5  13526060.63749  24636164.9144
  22900212.113    -1759718.140 7  -1319774.50049  22900209.8524
 95  2 17 17 14  0.0040000  0  6 18 14 15 22 25 29
  24941245.785     -449104.483 5  -1435211.48649  24941244.5664
  21530765.566     -236957.972 7   -108170.62149  21530763.6334
  25293366.816    19248002.660 4  14936347.25849  25293367.6134
  22607805.645    -2847854.668 7  -2141408.42849  22607804.1914
  24664000.332    17575065.709 5  13640040.88349  24663999.1724
  22902509.871    -1747641.501 7  -1310364.13549  22902507.7504
 95  2 17 17 14 30.0040000  0  6 18 14 15 22 25 29
  24937408.988     -469265.695 5  -1450921.46949  24937409.5044
  21540275.051     -186984.344 7    -69230.14249  21540273.1874
  25323206.129    19404807.190 4  15058532.45449  25323208.2034
  22614115.332    -2814695.433 7  -2115570.04549  22614114.0784
  24691868.066    17721516.918 5  13754158.62149  24691867.6804
  22904856.832    -1735309.835 7  -1300755.04249  22904854.6294
 95  2 17 17 15  0.0040000  0  7 18 14 15 19 22 25 29
  24933606.371     -489249.014 5  -1466492.86849  24933604.9414
  21549917.184     -136314.041 7    -29746.79949  21549915.3794
  25353075.371    19561768.721 4  15180840.03549  25353077.4344
  26001971.324      -12927.33313
  22620559.223    -2780833.173 7  -2089183.84249  22620557.8984
  24719773.816    17868158.722 5  13868424.87449  24719773.5944
  22907253.355    -1722714.930 7  -1290940.83349  22907250.7544
 95  2 17 17 15 30.0040000  0  7 18 14 15 19 22 25 29
  24929841.254     -509037.394 5  -1481912.33149  24929839.6024
  21559685.902      -84980.057 7     10253.70049  21559684.1684
  25382971.746    19718876.861 4  15303261.83249  25382973.8674
  25995302.332      -47972.728 3
  22627130.848    -2746295.170 7  -2062271.08849  22627129.6994
  24747715.840    18014993.812 5  13982841.75949  24747715.3714
  22909701.012    -1709854.372 7  -1280919.61749  22909698.4924
 95  2 17 17 16  0.0040000  0  7 18 14 15 19 22 25 29
  24926112.957     -528625.811 5  -1497176.03549  24926112.2544
  21569579.551      -32989.756 7     50765.61449  21569577.4534
  25412896.488    19876133.332 4  15425799.21249  25412898.0354
  25988693.785      -82704.263 3    -22535.94758  25988696.2464
  22633834.332    -2711069.266 7  -2034822.30549  22633833.6294
  24775695.137    18162028.465 5  14097414.13549  24775695.2194
  22912199.730    -1696721.130 7  -1270685.92749  22912197.4104
 95  2 17 17 16 30.0040000  0  7 18 14 15 19 22 25 29
  24922421.441     -548024.978 5  -1512292.21249  24922420.2814
  21579601.238       19674.620 7     91802.77149  21579599.0824
  25442848.457    20033529.716 4  15548445.65449  25442849.6294
  25982142.863     -117129.457 3    -49360.75549  25982144.0004
  22640672.715    -2675135.146 7  -2006821.66849  22640671.5434
  24803716.574    18309282.122 5  14212157.18049  24803716.4224
  22914748.715    -1683327.251 7  -1260249.14649  22914746.3954
 95  2 17 17 17  0.0040000  0  7 18 14 15 19 22 25 29
  24918764.754     -567237.633 5  -1527263.08849  24918763.0084
  21589750.090       73007.912 7    133361.16749  21589748.0744
  25472826.816    20191065.425 4  15671200.55949  25472830.0984
  25975647.973     -151260.832 4    -75956.58249  25975649.4964
  22647648.051    -2638481.045 7  -1978260.00349  22647646.1524
  24831782.895    18456768.978 6  14327081.91849  24831782.5784
  22917346.684    -1669674.690 7  -1249610.78649  22917344.4574
 95  2 17 17 17 30.0040000  0  7 18 14 15 19 22 25 29
  24915145.254     -586262.823 5  -1542087.90049  24915144.0234
  21600028.980      127025.223 7    175452.56249  21600027.1054
  25502832.551    20348744.196 4  15794067.03749  25502834.5194
  25969208.027     -185103.097 4   -102327.12149  25969209.2344
  22654765.793    -2601073.647 7  -1949111.36349  22654764.1764
  24859893.770    18604489.320 6  14442188.60749  24859892.8914
  22919992.051    -1655773.631 7  -1238778.79649  22919989.7894
 95  2 17 17 18  0.0040000  0  7 18 14 15 19 22 25 29
  24911554.488     -605131.152 5  -1556790.47649  24911553.5274
  21610440.441      181736.406 7    218084.63649  21610438.2624
  25532862.215    20506553.518 4  15917035.20049  25532864.5124
  25962819.605     -218672.265 4   -128484.90149  25962821.0124
  22662029.645    -2562903.253 7  -1919368.18849  22662028.1914
  24888048.051    18752441.796 6  14557476.17149  24888046.7624
  22922683.066    -1641630.307 7  -1227758.02349  22922681.0164
 95  2 17 17 18 30.0040000  0  7 18 14 15 19 22 25 29
  24907994.191     -623837.139 5  -1571366.55549  24907992.3164
  21620985.543      237153.127 7    261266.47349  21620983.4454
  25562916.629    20664490.509 4  16040102.86349  25562918.7504
  25956485.129     -251958.902 4   -154422.46549  25956486.3244
  22669436.629    -2523980.721 7  -1889038.93149  22669435.2814
  24916248.574    18900636.466 6  14672952.45949  24916248.1994
  22925420.582    -1627243.810 7  -1216547.76749  22925418.4024
 95  2 17 17 19  0.0040000  0  7 18 14 15 19 22 25 29
  24904467.855     -642375.257 5  -1585811.79049  24904466.5204
  21631663.644      293266.490 7    304991.15949  21631661.5594
  25592995.559    20822551.315 4  16163266.98649  25592998.0084
  25950203.832     -284967.801 3   -180143.65149  25950205.3444
  22676983.285    -2484321.571 7  -1858135.68149  22676982.2544
  24944491.785    19049057.417 6  14788605.06849  24944491.0004
  22928206.863    -1612602.958 7  -1205139.30649  22928204.6374
 95  2 17 17 19 30.0040000  0  7 18 14 15 19 22 25 29
  24900969.504     -660752.213 5  -1600131.46549  24900968.4734
  21642476.988      350090.508 7    349269.60349  21642474.9024
  25623096.566    20980733.561 5  16286525.75249  25623098.5944
  25943974.668     -317703.052 3   -205651.62049  25943976.7544
  22684671.191    -2443922.080 7  -1826655.55649  22684670.1134
  24972779.215    19197708.902 6  14904437.32949  24972777.5864
  22931043.598    -1597694.920 7  -1193522.65249  22931041.5004
 95  2 17 17 20  0.0040000  0  7 18 14 15 19 22 25 29
  24897503.019     -678966.274 5  -1614324.21649  24897503.3124
  21653426.418      407628.350 7    394104.27549  21653424.4614
  25653221.105    21139037.269 5  16409879.16249  25653221.8324
  25937798.793     -350152.965 3   -230937.20949  25937800.8094
  22692497.957    -2402792.424 7  -1794606.47449  22692496.6214
  25001110.965    19346591.238 6  15020449.46649  25001109.9574
  22933933.480    -1582510.176 7  -1181690.38449  22933931.3594
 95  2 17 17 20 30.0050000  0  7 18 14 15 19 22 25 29
  24894068.727     -697016.500 5  -1628389.29249  24894067.6964
  21664508.102      465863.979 7    439482.66949  21664506.0874
  25683366.095    21297449.511 4  16533317.15749  25683366.4464
  25931675.306     -382332.286 3   -256011.99349  25931676.5364
  22700460.188    -2360950.080 7  -1762002.04849  22700458.5954
  25029482.321    19495679.617 6  15136622.14949  25029481.5714
  22936872.681    -1567064.489 7  -1169654.77749  22936870.4664
 95  2 17 17 21  0.0050000  0  7 18 14 15 19 22 25 29
  24890665.478     -714894.535 5  -1642320.20349  24890665.3724
  21675722.696      524798.650 7    485405.76849  21675720.8454
  25713531.188    21455965.184 5  16656835.70649  25713532.0094
  25925606.017     -414230.683 3   -280867.84849  25925608.2204
  22708564.352    -2318360.779 7  -1728815.58849  22708563.1814
  25057888.759    19644957.523 6  15252942.51449  25057887.4934
  22939863.923    -1551345.622 7  -1157406.30549  22939861.4974
 95  2 17 17 21 30.0050000  0  7 18 14 15 19 22 25 29
  24887297.509     -732595.234 5  -1656112.88349  24887298.8804
  21687073.196      584443.198 7    531882.02149  21687070.9354
  25743715.235    21614587.497 4  16780437.41349  25743717.7554
  25919592.899     -445826.612 3   -305488.00649  25919593.9314
  22716813.438    -2275011.899 7  -1695037.23949  22716812.4314
  25086332.056    19794429.319 6  15369413.98049  25086331.2354
  22942907.579    -1535351.396 7  -1144943.26649  22942905.0834
 95  2 17 17 22  0.0050000  0  7 18 14 15 19 22 25 29
  24883967.798     -750097.167 5  -1669750.73349  24883967.5404
  21698556.767      644791.260 7    578906.45649  21698554.7984
  25773918.595    21773313.366 3  16904119.76549  25773920.8214
  25913643.142     -477092.420 3   -329850.92749  25913645.4744
  22725207.470    -2230904.853 7  -1660668.11949  22725206.2864
  25114810.821    19944083.607 5  15486027.64149  25114810.2004
  22946004.563    -1519076.472 7  -1132261.51849  22946002.5244
 95  2 17 17 22 30.0050000  0  7 18 14 15 19 22 25 29
  24880673.415     -767408.537 5  -1683240.06349  24880672.3954
  21710171.478      705825.762 7    626465.78549  21710169.7554
  25804142.352    21932134.000 3  17027875.98649  25804144.3804
  25907755.853     -508028.392 3   -353956.84749  25907757.9154
  22733745.954    -2186031.932 7  -1625702.21749  22733744.5604
  25143322.181    20093911.961 6  15602776.94249  25143321.2434
  22949153.720    -1502524.372 7  -1119363.78349  22949151.5524
 95  2 17 17 23  0.0050000  0  7 18 14 15 19 22 25 29
  24877413.829     -784540.183 5  -1696589.36249  24877413.3024
  21721915.876      767542.722 7    674556.90449  21721914.0954
  25834382.126    22091046.349 3  17151703.65849  25834382.1494
  25901933.884     -538629.461 3   -377801.76849  25901933.8134
  22742428.524    -2140403.537 7  -1590147.64449  22742427.7634
  25171866.368    20243914.430 5  15719661.91849  25171865.5484
  22952356.329    -1485697.926 7  -1106252.26149  22952353.9504
 95  2 17 17 23 30.0050000  0  7 18 14 15 19 22 25 29
  24874187.720     -801490.286 5  -1709797.19749  24874186.5954
  21733789.478      829937.821 7    723176.43849  21733787.5674
  25864639.634    22250049.019 3  17275601.72749  25864643.1034
  25896172.931     -568898.463 3   -401387.97349  25896173.6814
  22751249.126    -2094052.169 7  -1554029.71249  22751248.0134
  25200444.868    20394097.356 5  15836687.49449  25200444.9854
  22955608.735    -1468605.557 7  -1092933.54349  22955606.3804
 95  2 17 17 24  0.0050000  0  7 18 14 15 19 22 25 29
  24870997.087     -818259.697 5  -1722864.22149  24870996.4894
  21745791.134      893007.438 7    772321.57049  21745789.0134
  25894914.259    22409143.539 3  17399571.35549  25894916.6854
  25890474.134     -598849.155 3   -424726.14749  25890475.2244
  22760206.884    -2046979.757 7  -1517349.92749  22760205.4314
  25229058.813    20544463.602 5  15953855.92949  25229058.2514
  22958910.970    -1451253.026 7  -1079412.09049  22958908.2284
 95  2 17 17 24 30.0050000  0  7 18 14 15 19 22 25 29
  24867837.329     -834866.663 5  -1735804.69449  24867836.2274
  21757922.993      956761.302 7    821999.88249  21757921.0014
  25925205.352    22568322.877 3  17523607.07649  25925207.4624
  25884830.313     -628507.485 3   -447836.51449  25884831.2984
  22769299.915    -1999193.013 7  -1480113.52249  22769299.1184
  25257706.720    20695009.653 5  16071164.46049  25257705.8524
  22962258.704    -1433662.204 7  -1065704.96049  22962256.1144
 95  2 17 17 25  0.0050000  0  7 18 14 15 19 22 25 29
  24864705.446     -851323.974 5  -1748628.54049  24864705.1304
  21770186.423     1021205.747 7    872216.31549  21770184.4194
  25955510.321    22727575.819 3  17647700.12849  25955513.4154
  25879237.829     -657896.299 3   -470736.86449  25879239.7044
  22778526.798    -1950708.715 7  -1442333.57249  22778525.6264
  25286389.313    20845736.454 5  16188613.84349  25286387.6854
  22965648.134    -1415848.284 7  -1051823.99249  22965645.5094
 95  2 17 17 25 30.0050000  0  7 18 14 15 19 22 25 29
  24861603.196     -867623.777 5  -1761329.65549  24861602.7274
  21782583.079     1086351.267 7    922979.03549  21782580.8414
  25985829.110    22886902.072 3  17771850.33749  25985830.7744
  25873695.884     -687014.978 3   -493426.73349  25873698.4034
  22787890.946    -1901499.724 7  -1403988.90749  22787889.5524
  25315107.087    20996649.954 5  16306208.72449  25315105.9504
  22969080.845    -1397809.917 7  -1037768.12149  22969078.5134
 95  2 17 17 26  0.0050000  0  7 18 14 15 19 22 25 29
  24858529.634     -883774.369 5  -1773914.50649  24858529.3994
  21795113.626     1152198.382 7    974288.44949  21795111.5404
  26016162.290    23046299.912 3  17896056.29849  26016165.4894
  25868208.204     -715855.116 3   -515899.52949  25868210.3844
  22797397.024    -1851544.912 7  -1365063.10349  22797395.7704
  25343861.845    21147751.866 5  16423950.39849  25343861.0484
  22972558.899    -1379532.192 7  -1023525.73849  22972556.2044
 95  2 17 17 26 30.0050000  0  7 18 14 15 19 22 25 29
  24855484.126     -899782.862 5  -1786388.62149  24855483.9854
  21807777.001     1218745.320 7   1026143.18149  21807775.3024
  26046506.759    23205761.742 3  18020312.11749  26046510.6144
  25862772.845     -744420.434 4   -538158.18749  25862774.0404
  22807043.438    -1800852.001 7  -1325562.14449  22807042.1614
  25372649.735    21299035.889 5  16541833.98149  25372648.7864
  22976084.540    -1361006.005 7  -1009089.75049  22976081.9034
 95  2 17 17 27  0.0050000  0  7 18 14 15 19 22 25 29
  24852468.274     -915629.453 5  -1798736.57549  24852467.3954
  21820573.431     1285991.956 7   1078543.13849  21820571.8024
  26076864.399    23365296.319 3  18144624.64949  26076865.9704
  25857392.470     -772695.227 4   -560190.44549  25857393.6184
  22816831.696    -1749411.845 7  -1285478.92049  22816830.6534
  25401473.337    21450504.925 5  16659861.70649  25401472.3294
  22979663.884    -1342195.370 7   -994432.12049  22979661.4934
 95  2 17 17 27 30.0050000  0  7 18 14 15 19 22 25 29
  24849487.376     -931294.849 5  -1810943.32749  24849485.3254
  21833501.938     1353931.392 7   1131482.93549  21833500.3684
  26107235.454    23524896.926 3  18268988.66449  26107238.9114
  25852068.517     -800667.362 4   -581986.90849  25852069.5604
  22826761.634    -1697229.119 7  -1244817.06649  22826760.7434
  25430327.665    21602134.671 5  16778014.70749  25430328.0524
  22983299.360    -1323090.974 7   -979545.57749  22983297.3214
 95  2 17 17 28  0.0050000  0  7 18 14 15 19 22 25 29
  24846541.493     -946775.542 5  -1823006.16749  24846539.6304
  21846562.532     1422566.368 7   1184964.71449  21846561.0444
  26137618.517    23684560.131 3  18393401.44149  26137621.0244
  25846802.993     -828339.032 4   -603549.19149  25846804.3884
  22836829.384    -1644324.683 7  -1203592.84349  22836828.4934
  25459210.251    21753913.011 5  16896283.45649  25459209.6774
  22986990.454    -1303695.109 7   -964431.92149  22986987.9464
 95  2 17 17 28 30.0050000  0  7 18 14 15 19 22 25 29
  24843632.415     -962062.619 5  -1834918.18149  24843631.0564
  21859759.603     1491915.117 7   1239002.67549  21859758.0674
  26168013.001    23844280.417 3  18517858.65249  26168015.9424
  25841593.368     -855714.407 4   -624880.60649  25841594.4704
  22847033.970    -1590700.406 7  -1161807.69749  22847032.8454
  25488118.438    21905826.048 5  17014657.19449  25488118.3104
  22990735.345    -1284016.023 7   -949097.57449  22990733.0714
 95  2 17 17 29  0.0050000  0  7 18 14 15 19 22 25 29
  24840759.868     -977154.065 5  -1846677.72949  24840759.2704
  21873091.767     1561975.732 7   1293595.34049  21873089.8334
  26198415.571      111839.42213  18642356.18449  26198418.7594
  25836443.540     -882781.758 4   -645971.97849  25836443.9974
  22857378.173    -1536341.017 7  -1119449.73549  22857377.1774
  25517052.478    22057871.178 5  17133133.83849  25517051.8334
  22994528.821    -1264079.441 7   -933562.57549  22994526.6534
 95  2 17 17 29 30.0050000  0  7 18 14 15 19 22 25 29
  24837925.157     -992051.660 5  -1858286.23049  24837924.6304
  21886559.532     1632749.962 7   1348744.06849  21886557.5994
  26228829.735      271660.104 3  18766891.70949  26228832.2434
  25831353.618     -909526.176 4   -666811.69149  25831354.6144
  22867864.681    -1481233.299 7  -1076508.66349  22867863.9314
  25546013.665    22210061.976 5  17251723.98849  25546013.3024
  22998365.782    -1243916.270 7   -917851.01649  22998363.6384
 95  2 17 17 30  0.0050000  0  8 18 14 15 19  4 22 25 29
  24835123.353    -1006774.731 5  -1869758.72249  24835122.5324
  21900164.212     1704243.025 7   1404452.92749  21900162.4774
  26259252.868      431531.387 3  18891466.56048  26259256.5244
  25826325.899     -935947.751 5   -687399.89349  25826326.8844
  26500779.446       26782.61813
  22878495.157    -1425370.013 7  -1032978.83549  22878494.3844
  25575005.329    22362413.807 5  17370439.61649  25575003.7594
  23002245.313    -1223530.320 7   -901965.86449  23002243.1694
 95  2 17 17 30 30.0050000  0  8 18 14 15 19  4 22 25 29
  24832351.649    -1021336.205 5  -1881105.29549  24832351.0404
  21913902.462     1776439.280 7   1460709.73349  21913900.8684
  26289683.048      591446.003 3  19016075.24349  26289685.2984
  25821360.634     -962042.425 5   -707733.36249  25821360.8334
  26507531.970       62262.825 3
  22889271.743    -1368740.218 7   -988851.70849  22889270.5604
  25604028.110    22514931.621 5  17489284.59249  25604027.4894
  23006167.415    -1202918.959 7   -885905.05649  23006165.0834
 95  2 17 17 31  0.0050000  0  8 18 14 15 19  4 22 25 29
  24829611.571    -1035736.081 5  -1892325.94849  24829610.9384
  21927772.829     1849326.579 7   1517505.01749  21927771.3764
  26320123.110      751406.075 3  19140719.29049  26320126.2164
  25816458.407     -987804.888 5   -727807.96049  25816457.9974
  26514404.251       98374.369 3     18811.24759  26514402.5054
  22900195.220    -1311335.631 7   -944120.85149  22900194.0954
  25633085.454    22667629.977 5  17608270.23849  25633085.6654
  23010132.868    -1182078.436 7   -869665.69649  23010130.6304
 95  2 17 17 31 30.0050000  0  8 18 14 15 19  4 22 25 29
  24826898.345    -1049995.562 5  -1903437.19749  24826897.9814
  21941770.642     1922884.719 7   1574823.02849  21941769.2124
  26350568.032      911394.273 3  19265385.29049  26350568.9814
  25811612.376    -1013266.938 5   -747648.45449  25811612.4934
  26521390.923      135094.107 3     47423.99749  26521391.0634
  22911260.009    -1253188.348 7   -898811.27249  22911259.0484
  25662172.970    22820487.330 5  17727379.78749  25662172.5954
  23014146.657    -1160986.448 7   -853230.38449  23014144.5604
 95  2 17 17 32  0.0050000  0  8 18 14 15 19  4 22 25 29
  24824209.103    -1064132.163 5  -1914452.70649  24824208.1184
  21955893.806     1997103.481 7   1632655.80349  21955892.2594
  26381015.306     1071395.240 3  19390061.17149  26381016.0794
  25806819.462    -1038454.929 5   -767275.40749  25806820.8924
  26528491.423      172414.779 2     76505.01346  26528491.7164
  22922462.962    -1194315.938 7   -852936.65649  22922462.2124
  25691287.470    22973484.366 5  17846598.15949  25691287.0714
  23018212.149    -1139622.235 7   -836582.95649  23018209.8994
 95  2 17 17 32 30.0050000  0  8 18 14 15 19  4 22 25 29
  24821547.509    -1078115.670 5  -1925348.92849  24821546.6424
  21970145.306     2071995.302 7   1691013.04849  21970143.3724
  26411469.321     1231427.711 4  19514761.70849  26411470.7864
  25802081.087    -1063353.826 5   -786677.13249  25802081.5794
  26535713.056      210355.072 3    106068.85649  26535711.8134
  22933806.720    -1134701.104 7   -806483.53149  22933805.9234
  25720432.392    23126640.874 5  17965940.81649  25720432.0524
  23022334.056    -1117962.118 7   -819704.94149  23022331.8524
 95  2 17 17 33  0.0050000  0  8 18 14 15 19  4 22 25 29
  24818920.978    -1091919.594 5  -1936105.18949  24818919.9704
  21984529.626     2147584.248 7   1749913.50349  21984527.8684
  26441932.688     1391510.683 4  19639501.52649  26441933.9784
  25797400.446    -1087951.831 5   -805844.35949  25797400.9274
  26543052.352      248933.319 3    136129.76549  26543050.8064
  22945292.024    -1074348.279 7   -759455.34749  22945291.1104
  25749609.235    23279967.716 5  18085416.16549  25749609.5054
  23026515.220    -1095990.176 7   -802583.94549  23026512.9584
 95  2 17 17 33 30.0060000  0  8 18 14 15 19  4 22 25 29
  24816329.639    -1105539.074 6  -1946717.74449  24816328.2564
  21999048.217     2223881.629 7   1809365.98349  21999046.6234
  26472403.412     1551643.900 3  19764280.53149  26472404.5964
  25792776.318    -1112250.479 5   -824778.31249  25792776.5534
  26550516.404      288145.595 3    166684.75248  26550516.3104
  22956913.951    -1013276.779 7   -711867.15549  22956913.0374
  25778817.506    23433457.874 5  18205018.79949  25778816.6034
  23030755.685    -1073705.957 7   -785219.62549  23030753.6354
 95  2 17 17 34  0.0060000  0  8 18 14 15 19  4 22 25 29
  24813773.342    -1118972.137 5  -1957185.03249  24813772.0534
  22013699.834     2300876.722 7   1869362.13149  22013698.2174
  26502880.240     1711796.668 3  19889074.75349  26502880.1464
  25788210.084    -1136249.522 5   -843478.81249  25788210.1894
  26558097.967      327992.987 3    197734.59249  26558095.5534
  22968668.459     -951506.412 7   -663734.39749  22968667.5924
  25808051.506    23587083.217 5  18324726.75349  25808051.5534
  23035048.381    -1051149.637 7   -767643.28049  23035046.0724
 95  2 17 17 34 30.0060000  0  8 18 14 15 19  4 22 25 29
  24811254.654    -1132204.447 5  -1967495.89649  24811253.8104
  22028487.475     2378583.251 7   1929912.64949  22028485.6464
  26533362.146     1871978.354 3  20013891.50749  26533362.6624
  25783702.029    -1159931.665 4   -861932.38449  25783701.6544
  26565802.326      368478.868 3    229282.06347  26565797.5924
  22980556.342     -889034.921 7   -615055.31849  22980555.4754
  25837312.248    23740848.447 5  18444543.72449  25837311.8144
  23039388.646    -1028340.553 7   -749869.97849  23039386.2794
 95  2 17 17 35  0.0060000  0  8 18 14 15 19  4 22 25 29
  24808776.225    -1145228.389 5  -1977644.38049  24808775.0764
  22043414.053     2457024.880 7   1991035.97349  22043412.3304
  26563848.537     2032186.844 3  20138729.11549  26563848.2684
  25779258.209    -1183285.676 4   -880130.26249  25779259.3694
  26573629.834      409615.443 3    261336.51949  26573627.6894
  22992580.943     -825844.043 7   -565815.68549  22992579.9474
  25866598.287    23894746.556 5  18564464.21049  25866597.3504
  23043778.740    -1005271.006 7   -731893.71149  23043776.4554
 95  2 17 17 35 30.0060000  0  8 18 14 15 19  4 22 25 29
  24806338.576    -1158036.100 5  -1987624.40349  24806338.2604
  22058482.529     2536210.857 7   2052739.31349  22058481.1584
  26594340.381     2192420.250 3  20263586.17249  26594340.0064
  25774879.287    -1206300.279 5   -898063.69149  25774879.8504
  26581580.287      451395.654 3    293892.46749  26581577.9554
  23004750.310     -761896.564 7   -515986.48449  23004749.0454
  25895911.420    24048789.178 5  18684497.32249  25895910.6934
  23048220.498     -981928.651 7   -713704.87349  23048218.0964
 95  2 17 17 36  0.0060000  0  8 18 14 15 19  4 22 25 29
  24803941.959    -1170633.348 5  -1997440.41049  24803941.4674
  22073692.248     2616136.975 7   2115019.38449  22073690.9244
  26624837.084     2352680.326 3  20388463.97049  26624837.1664
  25770565.107    -1228971.305 5   -915729.36549  25770565.7174
  26589654.334      493818.514 3    326949.20946  26589655.9044
  23017067.803     -697165.179 7   -465546.44849  23017066.7484
  25925255.748    24202990.947 5  18804654.42749  25925256.0884
  23052715.178     -958308.871 7   -695299.85849  23052712.3534
 95  2 17 17 36 30.0060000  0  7 18 14 19  4 22 25 29
  24801581.256    -1183039.156 5  -2007107.25549  24801579.6504
  22089039.904     2696790.303 7   2177866.11249  22089038.3574
  25766314.881    -1251311.855 5   -933137.52749  25766315.1034
  26597846.006      536868.626 3    360494.71949  26597846.9084
  23029537.826     -631637.389 7   -414485.85849  23029536.8304
  25954630.584    24357356.006 5  18924938.78849  25954629.6234
  23057264.162     -934404.155 7   -676672.82549  23057261.7954
 95  2 17 17 37  0.0060000  0  7 18 14 19  4 22 25 29
  24799255.990    -1195259.185 5  -2016629.32049  24799255.1354
  22104522.967     2778153.553 7   2241266.02349  22104521.5024
  25762122.936    -1273335.523 5   -950298.78449  25762123.6154
  26606156.685      580538.628 3    394523.28249  26606157.0844
  23042156.928     -565319.625 7   -362809.69049  23042156.0254
  25984037.982    24511893.073 5  19045357.21549  25984037.4324
  23061870.982     -910193.952 7   -657807.73649  23061868.7444
 95  2 17 17 37 30.0060000  0  7 18 14 19  4 22 25 29
  24796965.709    -1207294.399 5  -2026007.37849  24796964.9124
  22120135.982     2860201.346 7   2305199.34149  22120134.5184
  25757992.131    -1295040.460 5   -967211.65249  25757993.8654
  26614579.857      624811.764 3    429021.80742  26614579.8574
  23054923.873     -498230.235 7   -310532.26149  23054923.1354
  26013478.662    24666607.127 5  19165913.51249  26013480.0574
  23066533.967     -885688.832 7   -638712.85349  23066531.8464
 95  2 17 17 38  0.0060000  0  7 18 14 19  4 22 25 29
  24794709.357    -1219149.483 5  -2035245.08549  24794708.5024
  22135877.342     2942921.800 7   2369656.80849  22135876.1824
  25753921.592    -1316431.558 5   -983879.98749  25753922.1784
  26623124.303      669704.178 3    464002.89248  26623125.0294
  23067832.935     -430390.045 7   -257669.79549  23067832.1974
  26042951.248    24821486.872 5  19286598.91049  26042951.8934
  23071252.154     -860895.259 7   -619393.19249  23071250.2444
 95  2 17 17 38 30.0060000  0  7 18 14 19  4 22 25 29
  24792490.904    -1230809.849 5  -2044331.03949  24792489.7684
  22151747.873     3026322.531 7   2434644.36749  22151746.5144
  25749912.123    -1337497.407 4  -1000294.84149  25749913.7874
  26631786.061      715222.958 3    499471.97149  26631784.7134
  23080886.662     -361797.160 7   -204220.81549  23080885.8184
  26072454.771    24976528.978 5  19407410.84049  26072454.2564
  23076026.225     -835807.684 7   -599844.44149  23076024.5614
 95  2 17 17 39  0.0060000  0  7 18 14 19  4 22 25 29
  24790308.240    -1242278.521 5  -2053267.65249  24790307.5374
  22167747.521     3110400.379 7   2500159.54649  22167746.0924
  25745965.967    -1358236.373 4  -1016454.99749  25745968.2404
  26640568.107      761369.013 3    535429.93745  26640567.2284
  23094079.178     -292469.050 7   -150198.93249  23094078.1234
  26101986.029    25131714.431 5  19528334.48849  26101986.6034
  23080852.803     -810442.974 7   -580079.74349  23080851.0804
 95  2 17 17 39 30.0060000  0  7 18 14 19  4 22 25 29
  24788159.646    -1253567.228 5  -2062064.02349  24788158.8614
  22183876.428     3195158.420 7   2566204.74049  22183874.9984
  25742079.670       -2705.17914  -1032364.92649  25742080.2094
  26649468.529      808144.053 3    571877.95749  26649470.1354
  23107413.076     -222400.256 7    -95599.89049  23107412.1864
  26131540.334    25287023.925 5  19649354.78849  26131541.3074
  23085729.068     -784820.221 7   -560113.96749  23085727.0644
 95  2 17 17 40  0.0060000  0  7 18 14 19  4 22 25 29
  24786044.529    -1264683.973 6  -2070726.40949  24786043.7794
  22200137.482     3280611.251 7   2632791.33149  22200136.3694
  25738255.146      -14038.17114  -1048030.30249  25738256.4124
  26658491.873      855557.303 3    608823.31349  26658493.6544
  23120888.662     -151584.379 7    -40418.70149  23120887.6434
  26161118.311    25442454.562 5  19770469.44949  26161118.4514
  23090656.303     -758926.868 7   -539937.33749  23090654.3344
 95  2 17 17 40 30.0060000  0  7 18 14 19  4 22 25 29
  24783963.600    -1275621.778 6  -2079249.35049  24783962.8734
  22216534.107     3366776.757 7   2699933.25549  22216532.9124
  25734491.287      -33817.039 4  -1063442.35149  25734492.9514
  26667633.975      903604.036 3    646262.28348  26667632.4164
  23134506.045      -80024.445 7     15342.27449  23134505.1434
  26190718.818    25598009.375 5  19891680.91849  26190718.8304
  23095636.717     -732755.070 7   -519543.73949  23095634.7364
 95  2 17 17 41  0.0060000  0  7 18 14 19  4 22 25 29
  24781916.959    -1286374.700 6  -2087628.21949  24781916.0334
  22233066.928     3453654.113 7   2767629.87149  22233065.4984
  25730786.350      -53285.490 5  -1078612.49849  25730787.1004
  26676897.303      952279.523 3    684191.17148  26676898.1704
  23148260.146       -7746.118 7     71663.03849  23148258.9984
  26220341.756    25753678.323 5  20012981.29249  26220341.6854
  23100669.162     -706307.373 7   -498935.15649  23100667.3694
 95  2 17 17 41 30.0060000  0  7 18 14 19  4 22 25 29
  24779908.920    -1296925.133 6  -2095849.32849  24779907.3384
  22249737.131     3541256.918 7   2835891.76949  22249735.7714
  25727142.193      -72436.486 5  -1093535.28649  25727142.8034
  26686281.201     1001593.307 3    722617.43249  26686281.5644
  23162152.935       65261.665 7    128552.20549  23162152.1744
  26249990.006    25909481.536 5  20134386.27849  26249988.8224
  23105758.498     -679562.585 7   -478095.07149  23105756.8464
 95  2 17 17 42  0.0060000  0  7 18 14 19  4 22 25 29
  24777941.631    -1307264.068 6  -2103905.62249  24777940.4354
  22266546.904     3629594.840 7   2904726.49049  22266545.6864
  25723561.107      -91258.287 5  -1108201.57249  25723561.5764
  26695785.748     1051549.203 3    761544.13149  26695786.5684
  23176183.717      138994.195 7    186006.11349  23176182.8964
  26279665.881    26065424.836 5  20255900.42349  26279664.3344
  23110905.889     -652511.175 7   -457016.05549  23110904.2134
 95  2 17 17 42 30.0060000  0  7 18 14 19  4 22 25 29
  24776013.975    -1317392.650 6  -2111798.00849  24776012.6974
  22283493.912     3718650.590 7   2974120.55349  22283492.6934
  25720040.568     -109754.958 5  -1122614.50749  25720041.5294
  26705414.287     1102138.340 3    800964.15249  26705415.0614
  23190350.006      213438.744 7    244014.84249  23190349.0454
  26309364.592    26221492.462 5  20377511.45849  26309362.5884
  23116109.771     -625167.093 7   -435708.99149  23116107.8504
 95  2 17 17 43  0.0060000  0  7 18 14 19  4 22 25 29
  24774124.178    -1327320.751 6  -2119534.17149  24774123.2754
  22300576.428     3808420.446 7   3044071.06549  22300575.3034
  25716582.795     -127927.871 5  -1136775.15949  25716582.6664
  26715162.889     1153363.650 3    840879.98949  26715162.0334
  23204655.350      288614.446 7    302593.31449  23204654.5534
  26339087.428    26377689.929 5  20499223.65349  26339089.5844
  23121369.568     -597527.763 7   -414171.85849  23121367.7524
 95  2 17 17 43 30.0060000  0  7 18 14 19  4 22 25 29
  24772268.029    -1337078.611 6  -2127137.68649  24772267.1864
  22317792.631     3898890.817 7   3114567.43449  22317791.3534
  25713186.553     -145772.634 5  -1150680.09749  25713187.2564
  26725028.514     1205211.070 3    881280.50347  26725030.4004
  23219104.553      364543.867 7    361759.09149  23219103.6744
  26368834.779    26534011.710 5  20621032.73049  26368832.4124
  23126683.951     -569599.753 7   -392409.78749  23126682.0184
 95  2 17 17 44  0.0060000  0  7 18 14 19  4 22 25 29
  24770443.318    -1346666.176 6  -2134608.48949  24770442.2174
  22335138.756     3990046.473 7   3185597.79249  22335137.5374
  25709854.201     -163282.785 5  -1164324.29449  25709854.7284
  26735010.428     1257663.560 3    922152.59749  26735008.6354
  23233697.326      441228.285 7    421513.18249  23233696.4474
  26398601.764    26690438.898 5  20742923.93149  26398601.9394
  23132052.842     -541385.583 7   -370424.72049  23132050.9674
 95  2 17 17 44 30.0060000  0  7 18 14 19  4 22 25 29
  24768653.912    -1356068.955 6  -2141935.32549  24768653.1864
  22352614.373     4081881.772 7   3257157.74349  22352613.5414
  25706586.201     -180459.164 5  -1177708.40249  25706587.7134
  26745105.834     1310720.722 3    963495.73449  26745105.0844
  23248437.795      518688.258 7    481871.60349  23248436.6584
  26428389.490    26846972.695 5  20864898.20849  26428391.0254
  23137477.623     -512879.535 7   -348212.22149  23137475.9944
 95  2 17 17 45  0.0060000  0  7 18 14 19  4 22 25 29
  24766899.107    -1365293.713 6  -2149123.43149  24766897.7834
  22370219.568     4174396.769 7   3329247.33049  22370218.5494
  25703377.873     -197314.621 5  -1190842.44049  25703379.1854
  26755314.201     1364374.127 3   1005303.56449  26755316.0884
  23263326.451      596930.504 7    542839.58549  23263325.5614
  26458197.678    27003613.332 4  20986955.72649  26458199.1074
  23142956.748     -484085.786 7   -325775.53149  23142954.9554
 95  2 17 17 45 30.0060000  0  7 18 14 19  4 22 25 29
  24765181.279    -1374323.078 6  -2156159.26649  24765180.4124
  22387952.068     4267583.011 7   3401859.95949  22387951.1664
  25700229.303     -213860.529 5  -1203735.25949  25700230.3344
  26765636.912     1418618.448 3   1047571.74947  26765638.4004
  23278360.490      675935.896 7    604402.22249  23278359.8344
  26488025.764    27160364.692 4  21109099.50449  26488027.5104
  23148489.467     -455010.958 7   -303119.82749  23148487.7444
 95  2 17 17 46  0.0070000  0  7 18 14 19  4 22 25 29
  24763502.269    -1383143.029 6  -2163031.94649  24763500.8514
  22405815.956     4361457.556 7   3475008.92749  22405814.7024
  25697139.065     -230102.827 5  -1216391.54449  25697139.8154
  26776075.065     1473468.109 3   1090311.72248  26776074.4094
  23293536.339      755685.367 7    666544.65449  23293535.8584
  26517877.745    27317236.873 4  21231337.45847  26517879.0114
  23154075.597     -425655.550 7   -280245.48649  23154073.9444
 95  2 17 17 46 30.0070000  0  7 18 14 19  4 22 25 29
  24761857.339    -1391788.145 6  -2169768.38449  24761856.6834
  22423808.651     4456010.280 7   3548686.35249  22423807.5034
  25694103.206     -246060.383 5  -1228825.93249  25694103.6984
  26786627.526     1528917.759 3   1133519.21449  26786628.6634
  23308848.120      836147.368 7    729242.30449  23308847.4404
  26547749.526    27474214.724 4  21353657.77248  26547750.6514
  23159710.729     -396043.518 7   -257171.17849  23159709.0304
 95  2 17 17 47  0.0070000  0  7 18 14 19  4 22 25 29
  24760245.276    -1400259.746 6  -2176369.62449  24760244.1634
  22441933.808     4551257.846 7   3622905.22049  22441932.5654
  25691123.589     -261720.612 5  -1241028.64649  25691122.5814
  26797295.854     1584976.881 3   1177201.62949  26797293.1244
  23324291.909      917306.106 7    792482.86649  23324291.0894
  26577644.034    27631312.813 3  21476071.74049  26577645.3354
  23165395.987     -366167.601 7   -233891.23849  23165393.9954
 95  2 17 17 47 30.0070000  0  7 18 14 19  4 22 25 29
  24758669.214    -1408541.201 6  -2182822.69449  24758668.6044
  22460192.183     4647205.198 7   3697669.36349  22460191.0464
  25688206.011     -277048.306 5  -1252972.24849  25688205.1204
  26808081.323     1641657.396 3   1221368.20049  26808079.4834
  23339867.698      999159.278 7    856264.54249  23339866.9484
  26607562.519    27788532.662 4  21598580.55749  26607562.1084
  23171134.190     -336012.645 7   -210393.87249  23171132.0224
 95  2 17 17 48  0.0070000  0  7 18 14 19  4 22 25 29
  24757125.667    -1416653.661 6  -2189144.07049  24757123.8624
  22478581.636     4743844.111 7   3772972.39049  22478580.7224
  25685353.659     -292037.453 5  -1264652.05949  25685354.2694
  26818986.394     1698966.905 3   1266024.91749  26818987.7654
  23355577.675     1081714.061 7    920592.92149  23355576.7614
  26637498.948    27945847.702 5  21721163.57549  26637499.9914
  23176928.604     -305564.132 7   -186667.75749  23176926.6474
 95  2 17 17 48 30.0070000  0  7 18 14 19  4 22 25 29
  24755613.245    -1424599.016 6  -2195335.25449  24755612.3084
  22497098.378     4841150.905 7   3848795.84449  22497097.7104
  25682563.183     -306695.117 5  -1276073.58449  25682563.0304
  26830009.229     1756894.990 3   1311163.61049  26830010.1904
  23371419.925     1164963.625 7    985462.69149  23371418.8004
  26667449.581    28103238.850 4  21843805.97749  26667451.5614
  23182778.808     -274819.867 7   -162711.19449  23182777.0034
 95  2 17 17 49  0.0070000  0  7 18 14 19  4 22 25 29
  24754137.722    -1432352.401 6  -2201376.83849  24754136.9484
  22515741.745     4939119.407 7   3925134.90849  22515740.7614
  25679836.472     -321024.168 5  -1287239.01749  25679836.4954
  26841150.565     1815443.026 3   1356785.44849  26841151.6324
  23387396.370     1248922.076 7   1050884.83549  23387395.5384
  26697415.823    28260710.006 4  21966510.64249  26697417.9914
  23188687.362     -243769.405 7   -138516.03349  23188685.4994
 95  2 17 17 49 30.0070000  0  7 18 14 19  4 22 25 29
  24752697.526    -1439920.940 6  -2207274.41449  24752696.6944
  22534506.628     5037735.081 7   4001978.25749  22534505.5854
  25677169.987     -335034.706 5  -1298156.28149  25677170.3394
  26852409.128     1874605.298 3   1402885.92848  26852409.9254
  23403510.401     1333600.892 7   1116868.29549  23403509.5224
  26727395.464    28418252.638 5  22089270.98749  26727396.6014
  23194652.800     -212421.027 7   -114088.73349  23194650.8434
 95  2 17 17 50  0.0070000  0  7 18 14 19  4 22 25 29
  24751291.269    -1447314.297 6  -2213035.45149  24751290.5194
  22553395.222     5136994.298 7   4079323.07749  22553394.5544
  25674558.448     -348762.360 5  -1308853.11949  25674558.7064
  26863781.550     1934363.416 3   1449450.62249  26863781.9484
  23419760.612     1418997.089 7   1183410.75349  23419759.5814
  26757388.698    28575868.639 5  22212088.54449  26757388.7694
  23200671.003     -180796.201 7    -89446.01949  23200668.9524
 95  2 17 17 50 30.0070000  0  7 18 14 19  4 22 25 29
  24749920.597    -1454511.790 6  -2218643.88649  24749920.2334
  22572411.104     5236921.490 7   4157188.39849  22572410.3784
  25672003.136     -362187.742 5  -1319314.42549  25672003.4054
  26875265.722     1994710.715 3   1496474.45349  26875264.2574
  23436149.534     1505121.963 7   1250521.01349  23436148.5734
  26787402.690    28733596.750 4  22334993.46349  26787405.2574
  23206739.011     -148909.288 7    -64599.08149  23206736.7264
 95  2 17 17 51  0.0070000  0  6 18 14 19  4 22 29
  24748586.292    -1461526.192 6  -2224109.64649  24748585.6594
  22591553.073     5337511.919 7   4235570.52149  22591552.3114
  25669508.440     -375298.455 5  -1329530.52849  25669509.0614
  26886858.847     2055637.232 3   1543949.57649  26886861.2844
  23452677.761     1591978.664 7   1318201.53949  23452676.7764
  23212852.995     -116779.603 7    -39562.97549  23212850.6984
 95  2 17 17 51 30.0070000  0  6 18 14 19  4 22 29
  24747286.683    -1468357.152 6  -2229432.45649  24747285.9094
  22610824.675     5438786.136 7   4314485.46649  22610823.9484
  25667076.815     -388080.171 5  -1339490.24849  25667076.6754
  26898563.597     2117147.565 3   1591879.75349  26898564.3944
  23469346.222     1679570.299 7   1386454.73949  23469345.2724
  23219013.542      -84406.442 7    -14337.14049  23219011.4684
 95  2 17 17 52  0.0070000  0  6 18 14 19  4 22 29
  24746023.058    -1474994.482 6  -2234604.38449  24746022.2374
  22630229.479     5540759.061 7   4393944.85949  22630228.7414
  25664708.112     -400523.300 5  -1349186.16349  25664707.7374
  26910383.034     2179251.545 3   1640272.40548  26910380.4684
  23486154.815     1767900.325 7   1455283.30549  23486154.1014
  23225221.417      -51782.887 7     11083.80249  23225219.3664
 95  2 17 17 52 30.0070000  0  6 18 14 19  4 22 29
  24744795.394    -1481445.902 6  -2239631.45049  24744794.9484
  22649765.222     5643419.039 7   4473939.61549  22649764.4134
  25662404.964     -412624.139 5  -1358615.32849  25662405.7724
  26922314.917     2241958.792 3   1689135.10047  26922314.6474
  23503102.729     1856962.423 7   1524682.33949  23503102.0154
  23231478.511      -18900.966 7     36706.07249  23231476.5894
 95  2 17 17 53  0.0070000  0  6 18 14 19  4 22 29
  24743602.519    -1487718.144 6  -2244518.90749  24743601.7804
  22669427.847     5746746.342 7   4554454.36749  22669427.0504
  25660161.534     -424414.728 5  -1367802.75149  25660161.8624
  26934361.315     2305265.451 3   1738464.95149  26934362.6984
  23520187.456     1946742.477 7   1594640.80749  23520186.6714
  23237788.065       14254.196 7     62541.25249  23237786.1674
 95  2 17 17 53 30.0070000  0  6 18 14 19  4 22 29
  24742445.815    -1493796.729 6  -2249255.45349  24742444.7494
  22689220.229     5850755.066 7   4635500.09649  22689219.4094
  25657973.183     -435917.593 5  -1376765.96549  25657973.4294
  26946523.636     2369180.615 3   1788268.92749  26946523.3784
  23537407.425     2037234.170 7   1665153.80549  23537406.5584
  23244154.269       47708.703 7     88609.69749  23244152.3234
 95  2 17 17 54  0.0070000  0  6 18 14 19  4 22 29
  24741322.175    -1499700.443 6  -2253855.74649  24741321.1324
  22709135.261     5955410.250 7   4717049.55849  22709134.1124
  25655834.729     -447159.300 5  -1385525.69449  25655834.2844
  26958798.972     2433681.820 3   1838529.61247  26958798.4334
  23554757.034     2128405.002 7   1736196.00649  23554756.2614
  23250576.167       81457.496 7    114907.45449  23250574.2924
 95  2 17 17 54 30.0070000  0  6 18 14 19  4 22 29
  24740231.347    -1505431.696 6  -2258321.63549  24740230.2804
  22729170.495     6060697.021 7   4799091.17249  22729169.4294
  25653742.089     -458149.837 5  -1394089.67549  25653742.3004
  26971181.683     2498757.202 3   1889237.64649  26971185.2924
  23572230.987     2220233.477 7   1807750.65549  23572230.0974
  23257055.862      115509.656 7    141441.60049  23257053.8114
 95  2 17 17 55  0.0070000  0  6 18 14 19  4 22 29
  24739175.854    -1510977.872 6  -2262643.31149  24739174.8474
  22749328.761     6166627.370 7   4881634.27649  22749327.7414
  25651699.636     -468884.969 5  -1402454.67349  25651699.6834
  26983674.690     2564404.239 3   1940391.15648  26983674.9134
  23589829.222     2312715.011 7   1879814.17749  23589828.4364
  23263594.214      149868.928 7    168215.05149  23263592.2574
 95  2 17 17 55 30.0070000  0  6 18 14 19  4 22 29
  24738154.894    -1516344.090 6  -2266824.77949  24738153.9444
  22769610.628     6273208.533 7   4964684.50149  22769609.5854
  25649707.620     -479350.368 5  -1410609.47449  25649708.6514
  26996277.276     2630628.297 3   1991994.31249  26996275.9404
  23607553.479     2405857.065 7   1952392.38749  23607553.0344
  23270189.604      184526.165 7    195220.68149  23270187.8114
 95  2 17 17 56  0.0070000  0  6 18 14 19  4 22 29
  24737164.362    -1521549.301 6  -2270880.77749  24737163.1324
  22790014.440     6380430.664 7   5048234.18649  22790013.3044
  25647768.722     -489533.023 5  -1418543.96549  25647769.8944
  27008985.964     2697418.409 3   2044038.46649  27008985.5774
  23625406.917     2499675.393 7   2025497.55549  23625406.3544
  23276839.159      219470.236 7    222449.81749  23276837.3314
 95  2 17 17 56 30.0070000  0  6 18 14 19  4 22 29
  24736205.050    -1526590.626 6  -2274809.07049  24736203.9364
  22810542.542     6488306.555 7   5132293.29549  22810541.4174
  25645890.612     -499406.406 5  -1426237.45549  25645891.6904
  27021805.612     2764782.727 3   2096530.12449  27021803.5264
  23643392.667     2594189.597 7   2099144.97649  23643392.1164
  23283541.854      254693.554 7    249896.54849  23283540.1674
 95  2 17 17 57  0.0070000  0  6 18 14 19  4 22 29
  24735270.987    -1531499.858 6  -2278634.44149  24735269.3354
  22831192.753     6596826.139 7   5216853.98449  22831191.5114
  25644070.831     -508970.050 5  -1433689.58849  25644071.3004
  27034732.948     2832713.978 3   2149463.53549  27034731.4134
  23661511.831     2689405.393 7   2173339.08749  23661511.0584
  23290293.370      290171.428 7    277541.63549  23290291.4364
 95  2 17 17 57 30.0080000  0  6 18 14 19  4 22 29
  24734362.148    -1536277.285 6  -2282357.09249  24734360.7074
  22851964.945     6705981.986 7   5301910.45949  22851963.5164
  25642312.281     -518212.119 5  -1440891.14749  25642311.9304
  27047767.859     2901215.691 3   2202841.45649  27047766.7694
  23679764.703     2785325.530 7   2248082.03449  23679763.7424
  23297092.820      325903.250 7    305384.60749  23297090.7584
 95  2 17 17 58  0.0080000  0  6 18 14 19  4 22 29
  24733479.266    -1540916.423 6  -2285971.99649  24733477.9184
  22872852.711     6815748.550 7   5387442.81549  22872851.1994
  25640614.250     -527138.041 5  -1447846.36349  25640614.5904
  27060909.055     2970271.945 3   2256651.48749  27060909.1134
  23698143.141     2881906.732 7   2323340.08049  23698142.9534
  23303937.609      361872.655 7    333412.70249  23303935.6994
 95  2 17 17 58 30.0080000  0  6 18 14 19  4 22 29
  24732627.883    -1545388.344 6  -2289456.60349  24732626.7584
  22893856.555     6926126.433 7   5473451.51949  22893855.7694
  25638975.758     -535747.963 5  -1454555.35049  25638975.7694
  27074156.492     3039891.279 3   2310900.28549  27074157.2304
  23716642.773     2979124.009 7   2399093.77349  23716642.4804
  23310827.648      398081.760 7    361627.58649  23310825.7974
 95  2 17 17 59  0.0080000  0  6 18 14 19  4 22 29
  24731813.109    -1549669.506 6  -2292792.54049  24731812.0664
  22914977.156     7037115.812 7   5559936.72049  22914976.4534
  25637394.148     -544059.672 5  -1461031.95749  25637394.3364
  27087511.719     3110072.463 3   2365586.91448  27087511.7074
  23735262.539     3076970.521 7   2475337.76849  23735261.9764
  23317767.562      434551.090 7    390045.23849  23317765.9574
 95  2 17 17 59 30.0080000  0  6 18 14 19  4 22 29
  24731041.492    -1553727.357 6  -2295954.49349  24731040.1684
  22936217.844     7148736.766 7   5646914.06149  22936217.0124
  25635868.078     -552077.446 5  -1467279.54549  25635868.5704
  27100972.562     3180810.300 3   2420707.32546  27100972.5514
  23754001.789     3175445.111 7   2552071.19149  23754000.9224
  23324759.734      471295.679 7    418677.38449  23324758.1644
 95  2 17 18  0  0.0080000  0  6 18 14 19  4 22 29
  24730310.172    -1557570.623 6  -2298949.23049  24730309.0824
  22957580.344     7260994.889 7   5734387.88849  22957579.2304
  25634398.656     -559798.550 5  -1473295.95249  25634399.5704
  27114539.414     3252100.173 3   2476257.78649  27114538.1604
  23772862.703     3274561.161 7   2629304.44849  23772861.6484
  23331805.578      508322.544 7    447529.48149  23331804.0664
 95  2 17 18  0 30.0080000  0  6 18 14 19  4 22 29
  24729614.469    -1561226.013 6  -2301797.57249  24729613.3794
  22979062.727     7373886.245 7   5822355.15049  22979061.5664
  25632983.359     -567233.422 5  -1479089.30249  25632983.8874
  27128205.055     3323916.973 3   2532218.89048  27128206.5314
  23791850.469     3374344.165 7   2707057.41249  23791849.9774
  23338906.969      545639.206 7    476607.39949  23338905.3754
 95  2 17 18  1  0.0080000  0  6 18 14 19  4 22 29
  24728950.680    -1564711.991 6  -2304513.90949  24728949.6844
  23000667.461     7487419.457 7   5910822.55549  23000666.7584
  25631623.891     -574378.006 5  -1484656.44049  25631624.1954
  27141971.523     3396254.126 3   2588585.47549  27141973.9144
  23810970.726     3474820.181 7   2785350.37849  23810970.3164
  23346064.070      583248.544 7    505913.36849  23346062.4064
 95  2 17 18  1 30.0080000  0  6 18 14 19  4 22 29
  24728318.937    -1568033.687 6  -2307102.23449  24728317.9414
  23022391.836     7601581.912 7   5999780.28349  23022391.0164
  25630320.914     -581227.420 5  -1489993.59349  25630321.3714
  27155835.047     3469111.048 3   2645357.06747  27155833.2424
  23830222.453     3575988.894 7   2864183.11649  23830221.9844
  23353273.133      621133.084 7    535433.78149  23353271.4454
 95  2 17 18  2  0.0080000  0  6 18 14 19  4 22 29
  24727717.164    -1571194.208 6  -2309564.98249  24727716.5434
  23044231.477     7716349.390 7   6089209.45849  23044230.5394
  25629073.836     -587783.296 5  -1495102.01549  25629074.2464
  27169797.601     3542489.312 3   2702534.89149  27169797.5194
  23849606.008     3677849.336 7   2943554.87649  23849605.5984
  23360533.305      659285.624 7    565163.02649  23360531.5124
 95  2 17 18  2 30.0080000  0  6 18 14 19  4 22 29
  24727146.602    -1574191.372 6  -2311900.43149  24727145.6174
  23066183.562     7831709.199 7   6179100.18049  23066182.6484
  25627878.078     -594068.991 6  -1499999.90549  25627877.9024
  27183859.945     3616385.517 3   2760116.32549  27183861.7504
  23869117.437     3780381.106 7   3023449.74149  23869117.0274
  23367841.641      697690.913 7    595089.21449  23367839.9534
 95  2 17 18  3  0.0080000  0  6 18 14 19  4 22 29
  24726612.766    -1576997.376 6  -2314086.92149  24726611.8164
  23088251.133     7947676.462 7   6269464.24349  23088250.4304
  25626734.227     -600076.237 5  -1504680.81849  25626734.5434
  27198028.211     3690835.575 3   2818129.33648  27198031.0704
  23888753.851     3883573.105 7   3103859.06949  23888753.6054
  23375198.000      736349.286 7    625212.61549  23375196.3014
 95  2 17 18  3 30.0080000  0  6 18 14 19  4 22 29
  24726111.281    -1579631.400 6  -2316139.39749  24726110.1444
  23110432.398     8064240.488 7   6360293.32549  23110431.8484
  25625641.000     -605817.134 5  -1509154.17749  25625641.7264
  27212302.008     3765843.220 3   2876576.83149  27212302.2664
  23908513.383     3987407.979 7   3184769.34549  23908512.7624
  23382600.711      775251.049 7    655525.67549  23382599.0004
 95  2 17 18  4  0.0080000  0  6 18 14 19  4 22 29
  24725638.906    -1582115.174 6  -2318074.80849  24725638.1564
  23132730.672     8181415.896 7   6451598.80149  23132729.9694
  25624599.961     -611286.959 5  -1513416.32749  25624600.8054
  27226681.734     3841410.687 3   2935460.48649  27226683.5984
  23928396.000     4091889.480 7   3266183.48949  23928394.9804
  23390051.859      814406.232 7    686036.20249  23390049.9264
 95  2 17 18  4 30.0080000  0  6 18 14 19  4 22 29
  24725192.461    -1584460.461 6  -2319902.31649  24725192.1334
  23155147.344     8299217.300 7   6543392.06349  23155146.5944
  25623611.531     -616480.485 5  -1517463.17349  25623612.3054
  27241170.844     3917549.822 3   2994789.67149  27241170.2114
  23948399.937     4197012.567 7   3348097.57149  23948399.1294
  23397554.047      853830.416 7    716756.33949  23397551.9614
 95  2 17 18  5  0.0080000  0  6 18 14 19  4 22 29
  24724769.727    -1586682.735 6  -2321633.95749  24724769.1874
  23177680.422     8417630.301 7   6635661.89349  23177679.8594
  25622675.672     -621400.729 5  -1521297.05949  25622676.2694
  27255763.492     3994241.913 3   3054549.70649  27255765.6254
  23968524.852     4302770.993 7   3430506.72049  23968524.2894
  23405107.398      893523.315 7    747685.86449  23405105.4304
 95  2 17 18  5 30.0080000  0  6 18 14 19  4 22 29
  24724370.570    -1588779.411 6  -2323267.73049  24724369.5514
  23200330.586     8536656.045 7   6728409.18849  23200329.9064
  25621794.492     -626033.338 5  -1524906.85649  25621794.9374
  27270461.664     4071487.452 3   3114740.98249  27270462.7074
  23988773.062     4409174.420 7   3513418.47349  23988772.4064
  23412714.273      933498.373 7    778835.26149  23412712.4804
 95  2 17 18  6  0.0080000  0  6 18 14 19  4 22 29
  24724001.101    -1590722.550 6  -2324781.86149  24724000.2464
  23223095.305     8656286.571 7   6821627.73849  23223094.5784
  25620965.805     -630388.881 5  -1528300.75549  25620965.8404
  27285265.422     4149273.256 3   3175353.25549  27285265.7274
  24009141.734     4516211.653 7   3596824.09749  24009140.9614
  23420376.461      973764.805 7    810211.69449  23420374.5274
 95  2 17 18  6 30.0080000  0  6 18 14 19  4 22 29
  24723670.258    -1592463.269 6  -2326138.26449  24723669.3204
  23245975.469     8776523.138 7   6915318.53349  23245975.2464
  25620190.555     -634458.997 5  -1531472.26549  25620190.3554
  27300173.203     4227617.192 3   3236400.42049  27300172.3484
  24029631.859     4623890.964 7   3680730.04749  24029631.3914
  23428097.836     1014338.578 7    841827.61249  23428095.6444
 95  2 17 18  7  0.0080000  0  6 18 14 19  4 22 29
  24723378.601    -1593993.660 6  -2327330.77749  24723377.7234
  23268971.125     8897364.268 7   7009480.41649  23268970.8324
  25619469.602     -638249.760 5  -1534426.07149  25619470.0234
  27315184.601     4306501.786 3   3297868.91849  27315185.3514
  24050243.031     4732204.117 7   3765129.89349  24050242.8204
  23435873.406     1055199.624 7    873667.38149  23435871.1684
 95  2 17 18  7 30.0080000  0  6 18 14 19  4 22 29
  24723128.476    -1595308.031 6  -2328354.97049  24723127.7154
  23292081.281     9018809.456 7   7104112.99349  23292080.5554
  25618799.984     -641769.009 5  -1537168.31749  25618800.1374
  27330299.195       31831.07713   3359760.29149  27330299.2424
  24070973.437     4841142.504 7   3850016.92749  24070973.2154
  23443702.641     1096343.026 7    905727.16349  23443700.4144
 95  2 17 18  8  0.0080000  0  6 18 14 19  4 22 29
  24722918.727    -1596409.113 6  -2329212.94549  24722917.9064
  23315305.164     9140847.842 7   7199207.79849  23315304.0624
  25618179.602     -645027.023 5  -1539706.99649  25618180.3054
  27345512.227      111774.792 3   3422054.06049  27345512.2154
  24091820.992     4950695.976 7   3935383.26049  24091820.3014
  23451583.453     1137755.994 7    937996.99449  23451581.2974
 95  2 17 18  8 30.0080000  0  6 18 14 19  4 22 29
  24722744.758    -1597322.369 6  -2329924.56049  24722743.7854
  23338641.078     9263478.991 7   7294764.49749  23338639.9884
  25617611.219     -648012.404 5  -1542033.22249  25617611.4414
  27360821.445      192219.003 3   3484737.84648  27360820.5084
  24112784.391     5060860.717 7   4021225.90049  24112783.7114
  23459512.961     1179425.673 7    970466.86449  23459510.8164
 95  2 17 18  9  0.0090000  0  6 18 14 19  4 22 29
  24722602.114    -1598075.328 6  -2330511.27149  24722601.1064
  23362089.559     9386703.517 7   7390783.57049  23362088.4934
  25617095.825     -650720.188 5  -1544143.15949  25617096.1654
  27376220.950      273149.372 3   3547800.46549  27376220.2594
  24133865.333     5171641.611 7   4107548.65449  24133864.6184
  23467490.903     1221351.056 7   1003135.98049  23467488.9464
 95  2 17 18  9 30.0090000  0  6 18 14 19  4 22 29
  24722490.044    -1598661.122 6  -2330967.72349  24722488.9664
  23385645.231     9510490.996 7   7487241.30549  23385644.4584
  25616634.403     -653143.877 5  -1546031.71849  25616634.7784
  27391714.349      354561.586 3   3611238.47649  27391715.1924
  24155062.653     5283032.516 7   4194346.73149  24155062.2674
  23475519.567     1263541.944 7   1036011.98649  23475517.8924
 95  2 17 18 10  0.0090000  0  6 18 14 19  4 22 29
  24722411.724    -1599075.068 6  -2331290.25549  24722410.4464
  23409311.020     9634851.977 7   7584145.93049  23409310.0714
  25616231.958     -655259.937 5  -1547680.57749  25616232.2164
  27407298.122      436457.221 3   3675053.28147  27407297.5954
  24176377.716     5395044.806 7   4281629.00649  24176377.3994
  23483600.380     1306008.430 7   1069102.74849  23483598.6344
 95  2 17 18 10 30.0090000  0  6 18 14 19  4 22 29
  24722363.388    -1599325.100 6  -2331485.07649  24722362.7314
  23433082.958     9759775.263 7   7681488.71149  23433082.2784
  25615888.833     -657068.249 6  -1549089.61349  25615888.5994
  27422976.802      518847.210 3   3739253.26045  27422975.7354
  24197811.388     5507678.223 7   4369395.27449  24197810.8134
  23491735.091     1348754.075 7   1102411.03349  23491733.2514
 95  2 17 18 11  0.0090000  0  6 18 14 19  4 22 29
  24722351.239    -1599392.295 6  -2331537.42249  24722350.5364
  23456960.325     9885253.551 7   7779263.95649  23456959.8454
  25615602.091     -658570.895 6  -1550260.46949  25615602.0564
  27438751.864      601746.208 3   3803849.85546  27438749.9194
  24219363.903     5620937.877 7   4457649.51349  24219363.6814
  23499924.239     1391789.897 7   1135945.42149  23499922.3764
 95  2 17 18 11 30.0090000  0  6 18 14 19  4 22 29
  24722372.911    -1599277.578 6  -2331448.00849  24722371.8684
  23480945.997    10011297.819 7   7877480.23549  23480945.5054
  25615374.520     -659766.200 6  -1551191.84549  25615374.1694
  27454625.591      685167.320 3   3868853.16349  27454626.5404
  24241035.942     5734825.828 7   4546393.34549  24241035.6734
  23508170.661     1435125.634 7   1169713.50549  23508168.7634
 95  2 17 18 12  0.0090000  0  6 18 14 19  4 22 29
  24722425.333    -1599003.080 6  -2331234.09849  24722424.0094
  23505041.020    10137919.904 7   7976146.75749  23505040.4814
  25615204.794     -660659.934 6  -1551888.23149  25615204.5834
  27470599.614      769113.538 3   3934265.79249  27470599.9774
  24262829.755     5849351.163 7   4635633.82949  24262829.5444
  23516473.130     1478754.273 7   1203709.83349  23516471.3024
 95  2 17 18 12 30.0090000  0  6 18 14 19  4 22 29
  24722508.966    -1598564.105 6  -2330892.02149  24722507.7004
  23529246.520    10265119.501 7   8075263.29349  23529245.7594
  25615087.841     -661274.303 6  -1552366.92649  25615087.7124
  27486674.192      853582.781 3   4000085.93149  27486673.4774
  24284743.060     5964506.501 7   4725365.22649  24284742.6024
  23524829.966     1522670.341 7   1237930.12749  23524828.2314
 95  2 17 18 13  0.0090000  0  6 18 14 19  4 22 29
  24722622.505    -1597966.012 6  -2330425.95949  24722621.3924
  23553562.341    10392898.848 7   8174831.56649  23553561.5204
  25615022.849     -661615.857 5  -1552633.01749  25615022.6964
  27502846.192      938566.873 3   4066307.23949  27502846.2744
  24306773.747     6080280.702 7   4815578.84649  24306773.3024
  23533240.583     1566866.826 7   1272368.92649  23533238.8024
 95  2 17 18 13 30.0090000  0  6 18 14 19  4 22 29
  24722767.263    -1597205.384 6  -2329833.24249  24722765.9854
  23577991.981    10521277.036 7   8274866.47949  23577990.9744
  25615011.192     -661676.638 6  -1552680.33849  25615011.4274
  27519114.231     1024059.750 3   4132925.09947  27519115.0174
  24328922.677     6196673.256 7   4906274.30149  24328922.2084
  23541703.028     1611336.262 7   1307020.41049  23541701.2004
 95  2 17 18 14  0.0090000  0  6 18 14 19  4 22 29
  24722950.567    -1596243.161 6  -2329083.45049  24722949.2314
  23602534.794    10650249.025 7   8375364.09049  23602533.8094
  25615053.231     -661452.230 5  -1552505.43049  25615053.1144
  27535479.122     1110056.051 3   4199935.12249  27535478.7704
  24351187.700     6313673.140 7   4997443.00849  24351186.8104
  23550215.895     1656070.981 7   1341878.61749  23550214.0444
 95  2 17 18 14 30.0090000  0  6 18 14 19  4 22 29
  24723175.864    -1595056.476 6  -2328158.75449  24723174.9624
  23627189.224    10779811.560 7   8476321.86849  23627188.6384
  25615150.934     -660941.664 6  -1552107.54349  25615150.7244
  27551938.560     1196554.812 3   4267336.69047  27551938.5604
  24373564.841     6431266.356 7   5089074.05249  24373564.0324
  23558780.505     1701078.750 7   1376949.58149  23558778.6884
 95  2 17 18 15  0.0090000  0  6 18 14 19  4 22 29
  24723439.005    -1593672.241 6  -2327080.11949  24723438.4894
  23651953.880    10909950.589 7   8577728.86549  23651953.5634
  25615301.442     -660149.710 6  -1551490.39749  25615302.2164
  27568495.739       40661.44712   4335131.72546  27568498.5524
  24396054.356     6549450.981 7   5181165.93249  24396053.8644
  23567398.044     1746365.374 7   1412237.84949  23567396.2514
 95  2 17 18 15 30.0090000  0  6 18 14 19  4 22 29
  24723741.528    -1592084.246 6  -2325842.71549  24723740.9424
  23676826.372    11040655.533 7   8679576.83549  23676825.8804
  25615502.559     -659094.414 6  -1550668.05249  25615503.2164
  27585148.388      128170.847 3   4403320.86448  27585147.6494
  24418656.247     6668225.366 7   5273717.36649  24418656.1534
  23576069.528     1791934.923 7   1447746.57149  23576067.6304
 95  2 17 18 16  0.0090000  0  6 18 14 19  4 22 29
  24724081.559    -1590296.790 6  -2324449.88349  24724080.9154
  23701802.122    11171904.003 7   8781848.32749  23701801.3954
  25615750.458     -657789.690 6  -1549651.35949  25615751.2674
  27601899.255      216195.335 3   4471911.29749  27601900.7204
  24441370.911     6787591.438 7   5366729.85549  24441370.6064
  23584797.450     1837799.677 7   1483485.32649  23584795.4814
 95  2 17 18 16 30.0090000  0  6 18 14 19  4 22 29
  24724455.231    -1588334.379 6  -2322920.72349  24724454.4114
  23726881.380    11303695.214 7   8884542.73349  23726880.5364
  25616044.864     -656245.159 6  -1548447.79149  25616045.0634
  27618749.380      304738.061 3   4540905.57946  27618746.0634
  24464201.411     6907568.890 7   5460218.74949  24464201.3994
  23593584.825     1883978.241 7   1519468.61049  23593583.1144
 95  2 17 18 17  0.0090000  0  6 18 14 19  4 22 29
  24724861.755    -1586195.903 6  -2321254.36549  24724861.0524
  23752062.536    11436021.085 7   8987653.75149  23752061.5174
  25616386.349     -654450.950 6  -1547049.68749  25616386.1614
  27635694.442      393789.993 3   4610296.68049  27635698.5674
  24487149.645     7028160.309 7   5554186.06449  24487149.8334
  23602432.263     1930472.048 7   1555697.54349  23602430.7164
 95  2 17 18 17 30.0090000  0  6 18 14 19  4 22 29
  24725307.591    -1583852.701 6  -2319428.49549  24725306.7704
  23777345.856    11568885.154 7   9091184.15549  23777344.8134
  25616778.317     -652390.655 6  -1545444.21949  25616777.7784
  27652731.817      483325.838 3   4680064.80549  27652732.2634
  24510212.958     7149358.686 7   5648626.32349  24510212.6884
  23611339.200     1977278.008 7   1592169.71249  23611337.7244
 95  2 17 18 18  0.0090000  0  6 18 14 19  4 22 29
  24725792.216    -1581306.578 6  -2317444.49649  24725791.0794
  23802732.005    11702291.865 7   9195137.38949  23802731.2904
  25617226.013     -650035.174 6  -1543608.76249  25617225.6384
  27669862.786      573334.311 4   4750201.23449  27669863.4424
  24533390.372     7271156.825 7   5743533.93349  24533390.3724
  23620306.036     2024400.424 7   1628888.47449  23620304.6774
 95  2 17 18 18 30.0090000  0  6 18 14 19  4 22 29
  24726311.911    -1578575.357 6  -2315316.27449  24726311.2314
  23828219.981    11836231.878 7   9299506.19049  23828219.3374
  25617731.185     -647380.204 6  -1541539.90849  25617731.8174
  27687077.020      663800.061 4   4820693.95749  27687075.4504
  24556677.794     7393530.817 7   5838890.26849  24556677.4314
  23629330.052     2071822.091 7   1665840.41749  23629328.5994
 95  2 17 18 19  0.0090000  0  6 18 14 19  4 22 29
  24726869.513    -1575646.765 6  -2313034.26149  24726868.9854
  23853812.794    11970722.900 7   9404304.33949  23853812.3024
  25618297.864     -644404.713 6  -1539221.32349  25618297.9814
  27704380.552      754736.741 3   4891553.70147  27704377.0594
  24580071.903     7516469.961 7   5934686.97349  24580071.5284
  23638409.942     2119536.655 7   1703020.58949  23638408.2554
 95  2 17 18 19 30.0090000  0  6 18 14 19  4 22 29
  24727464.817    -1572519.751 6  -2310597.61749  24727464.2084
  23879511.747    12105772.017 7   9509537.37449  23879511.5484
  25618923.614     -641114.110 6  -1536657.20349  25618924.1184
  27721775.419      846148.853 3   4962783.91349  27721775.7354
  24603573.802     7639971.782 7   6030922.14249  24603573.3804
  23647545.958     2167546.135 7   1740430.56649  23647544.3414
 95  2 17 18 20  0.0090000  0  6 18 14 19  4 22 29
  24728095.372    -1569204.252 6  -2308014.11949  24728094.8804
  23905316.669    12241377.499 7   9615203.94449  23905316.5994
  25619607.716     -637516.577 6  -1533853.90549  25619607.5754
  27739265.513      938059.878 3   5034402.82048  27739269.0054
  24627183.966     7764044.525 7   6127602.17749  24627183.4624
  23656738.200     2215850.312 7   1778070.18449  23656736.6884
 95  2 17 18 20 30.0100000  0  6 18 14 19  4 22 29
  24728762.478    -1565698.574 6  -2305282.42249  24728761.7054
  23931228.721    12377547.071 7   9721310.06649  23931228.6034
  25620346.877     -633637.128 6  -1530830.93549  25620346.8074
  27756850.361     1030469.905 3   5106410.62548  27756851.8734
  24650905.564     7888701.291 7   6224737.29849  24650905.3894
  23665985.353     2264443.945 7   1815935.34849  23665983.6434
 95  2 17 18 21  0.0100000  0  6 18 14 19  4 22 29
  24729468.861    -1561986.594 6  -2302389.96649  24729467.6784
  23957248.791    12514280.987 7   9827855.93549  23957248.3924
  25621135.783     -629491.261 6  -1527600.36749  25621135.6314
  27774527.642     1123353.136 3   5178787.09949  27774527.6544
  24674736.603     8013935.173 7   6322322.11149  24674736.4044
  23675287.627     2313329.754 7   1854028.18349  23675285.6464
 95  2 17 18 21 30.0100000  0  6 18 14 19  4 22 29
  24730214.814    -1558068.119 7  -2299336.60749  24730213.8074
  23983370.846    12651552.837 7   9934820.96749  23983370.0844
  25621972.533     -625094.482 6  -1524174.30749  25621972.5684
  27792288.424     1216689.614 3   5251516.72449  27792285.8104
  24698677.252     8139744.634 7   6420355.43149  24698676.9594
  23684645.658     2362504.120 7   1892345.86049  23684643.8654
 95  2 17 18 22  0.0100000  0  6 18 14 19  4 22 29
  24730998.369    -1553949.178 6  -2296127.03649  24730997.3144
  24009595.213    12789365.309 7  10042207.26349  24009594.8264
  25622855.916     -620452.753 6  -1520557.35449  25622856.0804
  27810138.174     1310493.328 3   5324610.49747  27810139.0764
  24722728.205     8266133.027 7   6518839.87549  24722728.1934
  23694057.252     2411962.770 7   1930885.06549  23694055.0144
 95  2 17 18 22 30.0100000  0  6 18 14 19  4 22 29
  24731822.830    -1549616.606 6  -2292750.99949  24731821.7754
  24035922.541    12927714.953 7  10150012.13849  24035922.2134
  25623785.072     -615569.672 6  -1516752.35749  25623785.4824
  27828075.955     1404768.204 3   5398071.41049  27828078.6394
  24746887.838     8393092.125 7   6617769.02449  24746887.8384
  23703524.072     2461712.562 7   1969651.12449  23703522.0214
 95  2 17 18 23  0.0100000  0  6 18 14 19  4 22 29
  24732688.775    -1545065.611 7  -2289204.77349  24732688.0494
  24062350.822    13066596.477 7  10258231.47149  24062350.0964
  25624762.877     -610425.071 6  -1512743.55349  25624763.0064
  27846108.877     1499522.121 3   5471905.57549  27846110.5534
  24771154.353     8520612.680 7   6717135.67149  24771154.4124
  23713049.494     2511768.004 7   2008655.35449  23713047.4434
 95  2 17 18 23 30.0100000  0  6 18 14 19  4 22 29
  24733594.564    -1540308.130 7  -2285497.64249  24733593.7914
  24088879.682    13206006.851 7  10366862.87849  24088879.1664
  25625794.393     -605008.699 6  -1508522.98149  25625794.8964
  27864234.283     1594773.471 3   5546127.38149  27864235.2914
  24795529.150     8648704.278 7   6816947.29049  24795528.9864
  23722632.549     2562128.226 7   2047897.08149  23722630.7794
 95  2 17 18 24  0.0100000  0  6 18 14 19  4 22 29
  24734535.830    -1535362.470 7  -2281643.87649  24734534.7054
  24115511.705    13345958.785 7  10475916.28649  24115511.0144
  25626875.908     -599323.878 6  -1504093.21249  25626875.7214
  27882453.088     1690519.484 2   5620734.62247  27882456.7324
  24820011.822     8777360.302 7   6917198.71649  24820011.6114
  23732275.189     2612801.232 7   2087382.53649  23732273.6544
 95  2 17 18 24 30.0100000  0  6 18 14 19  4 22 29
  24735512.627    -1530228.646 7  -2277643.49449  24735511.3504
  24142245.392    13486444.412 7  10585385.55149  24142244.6784
  25628011.080     -593358.875 6  -1499445.13349  25628011.2324
  27900761.908     1786725.954 3   5695700.66546  27900761.0064
  24844600.877     8906576.821 7   7017886.87949  24844600.2684
  23741978.314     2663789.883 7   2127113.94149  23741976.5924
 95  2 17 18 25  0.0100000  0  5 18 14 19 22 29
  24736523.135    -1524917.971 7  -2273505.30649  24736521.7644
  24169078.525    13627453.363 7  10695262.60149  24169077.8224
  25629201.096     -587106.040 6  -1494572.76149  25629201.0024
  24869295.314     9036347.593 7   7119006.94449  24869294.5764
  23751737.674     2715075.610 7   2167076.83949  23751736.0924
 95  2 17 18 25 30.0100000  0  5 18 14 19 22 29
  24737569.650    -1519419.497 7  -2269220.78149  24737568.2094
  24196010.353    13768981.584 7  10805544.28049  24196009.8964
  25630445.525     -580566.554 6  -1489477.03649  25630445.4784
  24894095.463     9166671.571 7   7220558.06249  24894094.5254
  23761552.150     2766651.783 7   2207266.05149  23761550.6624
 95  2 17 18 26  0.0100000  0  5 18 14 19 22 29
  24738655.143    -1513714.730 7  -2264775.51449  24738653.7364
  24223038.642    13911017.185 7  10916221.32849  24223038.5374
  25631746.439     -573730.966 6  -1484150.58849  25631746.2644
  24918997.682     9297534.860 7   7322529.42149  24918996.9204
  23771423.010     2818523.743 7   2247685.75549  23771421.4984
 95  2 17 18 26 30.0100000  0  5 18 14 19 22 29
  24739786.299    -1507770.679 7  -2260143.78949  24739785.2094
  24250160.572    14053541.747 7  11027279.38649  24250160.6424
  25633102.807     -566602.483 6  -1478595.91149  25633102.7954
  24944001.643     9428931.496 7   7424916.37949  24944001.2324
  23781350.314     2870692.691 7   2288336.87749  23781348.7914
 95  2 17 18 27  0.0100000  0  5 18 14 19 22 29
  24740963.986    -1501580.797 7  -2255320.50049  24740963.1664
  24277375.057    14196553.680 7  11138717.20849  24277374.7874
  25634514.588     -559183.009 6  -1472814.46449  25634514.5064
  24969104.494     9560847.350 7   7527707.92549  24969104.0494
  23791335.111     2923161.759 7   2329221.85349  23791333.3894
 95  2 17 18 27 30.0100000  0  5 18 14 19 22 29
  24742187.252    -1495151.136 7  -2250310.37849  24742186.3734
  24304683.119    14340056.994 7  11250537.92549  24304682.3814
  25635980.275     -551477.507 6  -1466810.14249  25635980.5924
  24994306.002     9693283.025 7   7630904.52749  24994306.0254
  23801379.432     2975945.027 7   2370351.66249  23801377.6274
 95  2 17 18 28  0.0100000  0  5 18 14 19 22 29
  24743456.736    -1488480.974 7  -2245112.85749  24743456.0334
  24332085.033    14484056.226 7  11362745.06949  24332084.1664
  25637502.064     -543482.613 6  -1460580.32349  25637502.5454
  25019610.057     9826256.520 6   7734520.20049  25019610.1274
  23811488.283     3029068.125 7   2411746.27749  23811486.7014
 95  2 17 18 28 30.0100000  0  5 18 14 19 22 29
  24744768.643    -1481587.238 7  -2239741.11549  24744767.7754
  24359583.674    14628561.907 7  11475346.83749  24359582.6194
  25639077.549     -535204.178 6  -1454129.56449  25639077.6424
  25045018.697     9959781.231 6   7838565.40149  25045018.5574
  23821663.182     3082536.169 7   2453409.67749  23821661.4944
 95  2 17 18 29  0.0100000  0  5 18 14 19 22 29
  24746116.713    -1474503.073 7  -2234220.98649  24746115.6004
  24387179.205    14773579.777 7  11588347.72049  24387178.6194
  25640708.244     -526637.463 6  -1447454.16849  25640707.8344
  25070533.900    10093862.323 6   7943044.14549  25070533.6894
  23831900.596     3136334.784 7   2495330.67149  23831899.0374
 95  2 17 18 29 30.0100000  0  5 18 14 19 22 29
  24747499.432    -1467236.306 7  -2228558.57549  24747498.2484
  24414871.564    14919103.230 7  11701742.56449  24414871.2254
  25642388.822     -517803.998 6  -1440570.91149  25642388.7524
  25096154.447    10228500.243 6   8047956.78249  25096154.7644
  23842202.221     3190470.040 7   2537513.98249  23842200.7684
 95  2 17 18 30  0.0100000  0  5 18 14 19 22 29
  24748919.525    -1459771.423 7  -2222741.77949  24748918.4474
  24442662.080    15065141.434 7  11815538.51249  24442661.7644
  25644120.283     -508706.438 6  -1433481.87849  25644119.6624
  25121881.596    10363696.858 6   8153304.75549  25121881.7954
  23852570.283     3244953.895 7   2579968.92949  23852568.4434
 95  2 17 18 30 30.0100000  0  6 18 14 28 19 22 29
  24750377.346    -1452109.395 7  -2216771.37249  24750376.4084
  24470552.963    15211708.988 7  11929746.93549  24470552.4474
  28043428.228        1706.92113
  25645900.666     -499347.071 6  -1426188.84149  25645900.3144
  25147712.572    10499438.769 6   8259077.63849  25147712.2914
  23862999.924     3299763.342 7   2622677.57649  23862998.2364
 95  2 17 18 31  0.0100000  0  6 18 14 28 19 22 29
  24751874.830    -1444244.696 7  -2210643.03449  24751874.3504
  24498542.385    15358795.565 7  12044359.79149  24498541.8464
  28043875.697        4055.998 3
  25647729.939     -489732.890 6  -1418697.24749  25647730.1744
  25173643.064    10635703.877 6   8365258.20649  25173642.8424
  23873491.697     3354898.584 7   2665640.09349  23873489.8574
 95  2 17 18 31 30.0110000  0  6 18 14 28 19 22 29
  24753412.218    -1436163.808 7  -2204346.23749  24753411.6204
  24526628.046    15506387.773 7  12159366.64549  24526627.5424
  28044349.046        6547.195 3      1371.60959  28044351.8934
  25649605.601     -479874.340 6  -1411015.25349  25649606.2454
  25199671.765    10772483.412 7   8471839.61849  25199671.4604
  23884046.757     3410364.790 7   2708860.50949  23884045.0584
 95  2 17 18 32  0.0110000  0  6 18 14 28 19 22 29
  24754992.663    -1427858.717 7  -2197874.73449  24754991.8314
  24554807.374    15654469.298 7  12274754.78149  24554807.1864
  28044853.140        9186.556 4      3428.47949  28044856.3864
  25651532.483     -469748.472 6  -1403124.96049  25651533.1404
  25225797.499    10909773.425 7   8578818.81049  25225797.0074
  23894660.913     3466141.783 7   2752323.09349  23894659.2964
 95  2 17 18 32 30.0110000  0  6 18 14 28 19 22 29
  24756616.811    -1419323.739 7  -2191224.09849  24756616.1324
  24583078.593    15803035.156 7  12390520.32549  24583078.5114
  28045382.585       11974.552 4      5601.18647  28045385.3744
  25653514.593     -459334.791 6  -1395010.37749  25653514.3474
  25252019.491    11047573.096 7   8686195.14549  25252018.6834
  23905332.530     3522221.252 7   2796021.37149  23905330.6794
 95  2 17 18 33  0.0110000  0  6 18 14 28 19 22 29
  24758285.788    -1410552.536 7  -2184389.38149  24758285.0034
  24611437.600    15952062.039 7  12506645.10349  24611437.2144
  28045940.772       14910.017 4      7888.78949  28045941.7924
  25655550.444     -448637.186 6  -1386674.55549  25655550.2334
  25278336.202    11185868.020 7   8793957.38649  25278335.6164
  23916061.811     3578605.208 7   2839956.91649  23916060.3354
 95  2 17 18 33 30.0110000  0  6 18 14 28 19 22 29
  24760002.155    -1401532.409 7  -2177360.69549  24760001.5114
  24639884.311    16101550.734 7  12623129.73149  24639883.8544
  28046528.046       17999.267 4     10296.24849  28046531.8904
  25657640.921     -437653.601 6  -1378115.88849  25657640.6754
  25304747.522    11324659.478 7   8902106.53449  25304746.8784
  23926846.194     3635279.170 7   2884118.44549  23926844.8824
 95  2 17 18 34  0.0110000  0  6 18 14 28 19 22 29
  24761766.843    -1392260.626 7  -2170135.90649  24761766.0344
  24668420.890    16251512.004 7  12739982.60649  24668420.5974
  28047145.351       21242.044 3     12823.33849  28047147.1324
  25659785.202     -426383.454 6  -1369333.93149  25659785.2964
  25331252.288    11463944.718 7   9010640.45449  25331251.6794
  23937686.983     3692247.230 7   2928509.14349  23937685.8354
 95  2 17 18 34 30.0110000  0  6 18 14 28 19 22 29
  24763580.686    -1382728.739 7  -2162708.43949  24763579.8434
  24697046.929    16401942.333 7  12857200.97449  24697046.6364
  28047794.155       24650.923 3     15479.86349  28047796.3704
  25661981.811     -414837.686 6  -1360337.20849  25661981.9524
  25357851.304    11603724.177 6   9119559.48049  25357851.2104
  23948587.554     3749531.284 7   2973146.07049  23948586.0304
 95  2 17 18 35  0.0110000  0  6 18 14 28 19 22 29
  24765441.726    -1372949.590 7  -2155088.29849  24765440.9764
  24725757.140    16552815.086 7  12974764.08749  24725756.8354
  28048472.210       28219.165 3     18260.49249  28048474.7654
  25664225.976     -403046.854 6  -1351149.51549  25664226.5154
  25384545.327    11744000.858 6   9228865.94249  25384545.7024
  23959548.600     3807131.748 7   3018029.54849  23959547.3474
 95  2 17 18 35 30.0110000  0  6 18 14 28 19 22 29
  24767349.741    -1362921.569 7  -2147274.23749  24767349.2264
  24754549.538    16704117.893 7  13092662.30149  24754549.1634
  28049182.725       31949.335 3     21167.31849  28049182.9364
  25666518.366     -390998.383 6  -1341761.06149  25666518.5894
  25411336.249    11884789.300 6   9338571.17949  25411336.5654
  23970572.858     3865062.965 7   3063170.75349  23970571.4054
 95  2 17 18 36  0.0110000  0  6 18 14 28 19 22 29
  24769303.186    -1352655.961 7  -2139275.04149  24769302.6124
  24783423.030    16855850.496 7  13210895.42649  24783422.8084
  28049924.124       35848.084 3     24205.48749  28049924.7804
  25668860.546     -378686.346 6  -1332167.24949  25668861.1904
  25438227.101    12026100.638 6   9448683.87249  25438227.3474
  23981663.350     3923346.190 7   3108586.23949  23981661.9214
 95  2 17 18 36 30.0110000  0  6 18 14 28 19 22 29
  24771298.046    -1342172.422 7  -2131106.02049  24771297.2024
  24812377.225    17008008.715 7  13329460.20449  24812377.0974
  28050697.452       39917.344 2     27376.53749  28050697.9564
  25671254.015     -366107.951 6  -1322365.87649  25671254.8824
  25465215.593    12167926.328 6   9559197.35349  25465215.7924
  23992819.327     3981969.293 7   3154266.57749  23992818.0504
 95  2 17 18 37  0.0110000  0  6 18 14 28 19 22 29
  24773334.569    -1331472.180 7  -2122768.15449  24773333.5614
  24841419.757    17160626.380 7  13448382.98249  24841419.9794
  28051503.936       44160.974 1     30683.40949  28051506.3274
  25673700.444     -353256.006 6  -1312351.36049  25673701.0894
  25492300.710    12310259.607 6   9670106.36949  25492300.5344
  24004039.897     4040934.065 7   3200213.14449  24004038.5384
 95  2 17 18 37 30.0110000  0  6 18 14 28 19 22 29
  24775412.319    -1320553.881 7  -2114260.36649  24775411.1474
  24870555.468    17313734.358 7  13567687.83349  24870555.6794
  28052345.124       48583.912 1     34129.94649  28052350.1284
  25676200.179     -340123.757 6  -1302118.42249  25676200.2254
  25519478.780    12453081.512 6   9781396.13249  25519478.6164
  24015326.655     4100246.074 7   3246430.29249  24015325.3084
 95  2 17 18 38  0.0110000  0  6 18 14 28 19 22 29
  24777529.179    -1309427.647 7  -2105590.55349  24777528.2764
  24899789.444    17467359.638 7  13687395.77049  24899789.3744
  28053223.499          -0.72312     37720.27849  28053227.1674
  25678748.069     -326732.824 6  -1291683.91349  25678747.2254
  25546748.452    12596384.257 6   9893060.57749  25546748.6284
  24026678.304     4159898.759 7   3292912.90149  24026676.9444
 95  2 17 18 38 30.0110000  0  6 18 14 28 19 22 29
  24779688.569    -1298080.410 7  -2096748.53149  24779687.9014
  24929121.374    17621500.454 7  13807505.42449  24929121.3274
  28054135.124        4791.059 3     41454.23049  28054137.0584
  25681343.944     -313090.161 6  -1281053.26949  25681343.2184
  25574107.249    12740157.950 6  10005091.99049  25574107.2844
  24038094.983     4219893.482 7   3339662.03149  24038093.5654
 95  2 17 18 39  0.0110000  0  6 18 14 28 19 22 29
  24781895.858    -1286482.314 7  -2087711.03349  24781895.1204
  24958547.515    17776133.797 7  13927998.87049  24958547.9364
  28055083.038        9768.860 3     45333.09249  28055084.0694
  25683987.108     -299200.073 6  -1270229.81049  25683986.7924
  25601557.538    12884408.477 6  10117494.96349  25601557.6794
  24049580.085     4280248.057 7   3386691.56949  24049578.6324
 95  2 17 18 39 30.0110000  0  6 18 14 28 19 22 29
  24784154.147    -1274613.009 7  -2078462.21249  24784153.3624
  24988063.007    17931239.117 7  14048860.09049  24988063.0774
  28056067.304       14946.830 3     49367.93749  28056070.6324
  25686681.327     -285042.067 6  -1259197.60949  25686681.1284
  25629102.804    13029159.304 6  10230287.77349  25629102.9794
  24061134.296     4340967.602 7   3434005.49949  24061132.6204
 95  2 17 18 40  0.0110000  0  6 18 14 28 19 22 29
  24786464.647    -1262474.297 7  -2069003.45049  24786463.6864
  25017662.921    18086786.574 7  14170065.83549  25017662.7454
  28057093.304       20329.220 3     53562.07349  28057096.1864
  25689427.350     -270611.728 6  -1247953.17749  25689427.4094
  25656744.554    13174417.776 6  10343476.15149  25656744.8584
  24072756.100     4402038.692 7   3481593.36049  24072754.4724
 95  2 17 18 40 30.0110000  0  6 18 14 28 19 22 29
  24788826.061    -1250063.653 7  -2059332.80349  24788824.7844
  25047339.444    18242738.963 7  14291587.11249  25047339.3624
  28058154.655       25911.288 3     57911.80849  28058156.6124
  25692227.702     -255898.670 6  -1236488.44249  25692227.1284
  25684480.304    13320168.624 6  10457048.20649  25684480.6554
  24084444.147     4463459.433 7   3529453.67549  24084442.5184
 95  2 17 18 41  0.0110000  0  6 18 14 28 19 22 29
  24791239.647    -1237381.156 7  -2049450.32349  24791238.3474
  25077094.546    18399102.100 7  14413428.44049  25077094.4764
  28059257.100       31701.425 4     62423.63249  28059258.3434
  25695083.726     -240889.905 6  -1224793.29149  25695083.2104
  25712308.382    13466406.294 6  10570999.60449  25712308.6514
  24096196.647     4525220.007 7   3577578.79149  24096195.0654
 95  2 17 18 41 30.0110000  0  6 18 14 28 19 22 29
  24793698.140    -1224461.471 7  -2039383.01849  24793696.8624
  25106930.186    18555889.210 7  14535600.15049  25106929.8824
  28060398.054       37698.648 5     67096.83549  28060400.8904
  25697993.429     -225596.476 6  -1212876.31549  25697993.2884
  25740226.163    13613113.329 6  10685316.73849  25740226.5264
  24108009.476     4587297.588 7   3625950.93349  24108007.8584
 95  2 17 18 42  0.0120000  0  6 18 14 28 19 22 29
  24796202.934    -1211296.676 7  -2029124.71649  24796201.8794
  25136850.355    18713120.719 7  14658118.14049  25136850.0044
  28061580.441       43913.932 4     71939.95449  28061583.1014
  25700958.832     -210014.363 6  -1200734.38149  25700959.1604
  25768231.504    13760282.618 6  10799994.06649  25768232.0434
  24119886.402     4649709.764 7   3674583.79649  24119884.8674
 95  2 17 18 42 30.0120000  0  6 18 14 28 19 22 29
  24798756.887    -1197876.016 7  -2018667.04449  24798755.9374
  25166856.707    18870802.836 7  14780987.25649  25166856.6484
  28062804.012       50346.780 4     76952.56949  28062806.4964
  25703978.262     -194145.152 6  -1188368.74849  25703978.8364
  25796320.848    13907894.635 6  10915016.38749  25796321.3754
  24131826.262     4712455.374 7   3723476.47749  24131824.8084
 95  2 17 18 43  0.0120000  0  6 18 14 28 19 22 29
  24801359.894    -1184196.713 7  -2008007.84149  24801358.8634
  25196951.441    19028952.563 7  14904220.74149  25196951.2544
  28064070.254       57004.961 4     82140.77649  28064074.0044
  25707051.660     -177992.972 6  -1175782.60649  25707052.0354
  25824497.957    14055965.115 6  11030395.94249  25824498.3674
  24143829.863     4775533.965 7   3772628.62849  24143828.3874
 95  2 17 18 43 30.0120000  0  6 18 14 28 19 22 29
  24804013.730    -1170250.568 7  -1997140.70649  24804012.7934
  25227131.660    19187553.214 6  15027805.59349  25227131.4494
  28065382.785       63894.154 5     87509.01649  28065386.0314
  25710178.434     -161561.481 6  -1162978.82549  25710178.7264
  25852764.433    14204507.256 6  11146143.02249  25852764.4454
  24155899.832     4838962.829 7   3822053.71049  24155898.1914
 95  2 17 18 44  0.0120000  0  6 18 14 28 19 22 29
  24806722.980    -1156013.802 7  -1986047.12449  24806722.0194
  25257396.621    19346593.838 6  15151733.28449  25257396.3634
  28066736.535       71014.784 4     93057.56549  28066739.2544
  25713360.137     -144843.868 6  -1149952.08849  25713360.2424
  25881120.379    14353517.020 6  11262254.49349  25881120.1214
  24168038.996     4902754.336 7   3871761.37549  24168037.4264
 95  2 17 18 44 30.0120000  0  6 18 14 28 19 22 29
  24809485.918    -1141494.160 7  -1974733.11049  24809485.0044
  25287744.262    19506072.075 6  15276001.98149  25287744.0394
  28068137.316       78372.505 5     98790.84949  28068138.8874
  25716595.324     -127840.945 6  -1136703.01649  25716595.1484
  25909565.988    14503000.490 6  11378735.08549  25909565.6484
  24180249.293     4966919.673 7   3921760.33049  24180247.7934
 95  2 17 18 45  0.0120000  0  6 18 14 28 19 22 29
  24812300.660    -1126702.310 7  -1963206.98949  24812299.7584
  25318170.129    19665962.677 6  15400591.98949  25318170.4574
  28069582.293       85965.227 5    104707.26749  28069583.5354
  25719883.769     -110559.338 6  -1123236.79449  25719883.6174
  25938101.473    14652956.476 6  11495583.87149  25938101.7544
  24192531.184     5031461.475 7   3972052.63749  24192529.4374
 95  2 17 18 45 30.0120000  0  6 18 14 28 19 22 29
  24815169.660    -1111622.896 7  -1951456.79149  24815168.8754
  25348678.527    19826282.048 6  15525516.11549  25348678.7974
  28071073.543       93803.145 5    110814.71049  28071077.4694
  25723229.066      -92981.060 6  -1109539.39749  25723228.9264
  25966726.887    14803381.450 6  11612798.09349  25966727.1444
  24204887.527     5096393.989 7   4022649.39549  24204885.7584
 95  2 17 18 46  0.0120000  0  6 18 14 28 19 22 29
  24818093.637    -1096258.188 7  -1939484.28749  24818092.6414
  25379271.191    19987047.943 6  15650788.17449  25379271.3324
  28072612.074      101887.298 5    117114.02949  28072613.8444
  25726631.809      -75099.724 6  -1095605.85349  25726631.5624
  25995439.043    14954267.424 6  11730371.53649  25995439.3124
  24217317.762     5161714.790 7   4073548.71549  24217316.0044
 95  2 17 18 46 30.0120000  0  6 18 14 28 19 22 29
  24821069.254    -1080622.322 7  -1927300.48949  24821068.2464
  25409948.582    20148260.126 6  15776407.99549  25409948.7694
  28074198.762      110222.067 5    123608.62949  28074200.2264
  25730091.426      -56919.010 6  -1081439.03449  25730091.3094
  26024241.496    15105624.830 6  11848312.32449  26024241.8124
  24229821.816     5227424.369 7   4124750.97949  24229819.9414
 95  2 17 18 47  0.0120000  0  6 18 14 28 19 22 29
  24824102.207    -1064684.547 7  -1914881.44249  24824101.2814
  25440713.168    20309928.397 6  15902383.20449  25440713.6844
  28075834.605      118817.743 5    130306.54849  28075836.2114
  25733607.965      -38439.782 6  -1067039.60249  25733608.1294
  26053134.777    15257461.425 6  11966626.50749  26053135.2114
  24242398.996     5293517.805 7   4176252.34749  24242397.2264
 95  2 17 18 47 30.0120000  0  6 18 14 28 19 22 29
  24827191.855    -1048447.476 7  -1902229.16649  24827190.6834
  25471565.348    20472056.940 6  16028717.07149  25471565.6644
  28077518.746      127671.184 5    137205.27449  28077522.8834
  25737177.480      -19681.556 6  -1052422.77149  25737177.2584
  26082116.941    15409761.128 6  12085301.54349  26082117.1414
  24255048.730     5359992.194 7   4228050.56949  24255046.8914
 95  2 17 18 48  0.0120000  0  6 18 14 28 19 22 29
  24830339.129    -1031909.202 7  -1889342.18849  24830338.0394
  25502503.512    20634636.333 6  16155402.25149  25502503.9694
  28079255.043      136795.302 5    144314.91949  28079256.5084
  25740798.629        -650.068 6  -1037593.02349  25740798.6174
  26111187.644    15562528.563 6  12204341.06249  26111187.8914
  24267774.301     5426866.352 7   4280160.29449  24267772.5664
 95  2 17 18 48 30.0120000  0  6 18 14 28 19 22 29
  24833544.012    -1015068.226 7  -1876219.33949  24833543.0744
  25533522.355    20797644.219 6  16282421.31449  25533522.6134
  28081042.941      146192.238 5    151637.16649  28081045.2504
  25744469.191       18635.500 6  -1022565.28649  25744469.0624
  26140345.910    15715755.353 6  12323738.51749  26140345.6294
  24280575.035     5494133.694 7   4332576.39349  24280573.2194
 95  2 17 18 49  0.0120000  0  6 18 14 28 19 22 29
  24836808.840     -997911.792 7  -1862850.67649  24836807.7624
  25564621.230    20961068.859 6  16409765.12449  25564621.8284
  28082882.918      155859.688 4    159170.21948  28082885.3674
  25748186.535       38172.128 6  -1007341.91549  25748186.3014
  26169587.168    15869418.453 6  12443475.95049  26169587.2974
  24293448.449     5561785.066 7   4385291.73449  24293446.8554
 95  2 17 18 49 30.0120000  0  6 18 14 28 19 22 29
  24840127.558     -980472.475 7  -1849261.58749  24840126.4334
  25595794.902    21124888.730 6  16537416.91649  25595795.2894
  28084771.387      165793.283 3    166910.62947  28084775.5004
  25751954.387       57974.529 6   -991911.45449  25751954.4574
  26198908.949    16023506.228 6  12563544.30749  26198909.4414
  24306395.191     5629820.238 7   4438306.14449  24306393.3984
 95  2 17 18 50  0.0120000  0  6 18 14 28 19 22 29
  24843501.324     -962741.710 7  -1835445.39649  24843500.3754
  25627042.074    21289093.099 6  16665368.31849  25627042.5784
  28086715.082      176003.902 3    174866.91649  28086719.6294
  25755778.980       78072.118 6   -976250.98249  25755779.3204
  26228312.855    16178024.715 6  12683948.27449  26228313.3594
  24319413.832     5698232.797 7   4491614.62649  24319412.4734
 95  2 17 18 50 30.0120000  0  6 18 14 28 19 22 29
  24846934.363     -944701.445 7  -1821388.03449  24846933.4024
  25658365.004    21453694.139 6  16793628.81049  25658365.2154
  28088712.105      186499.860 3    183045.52448  28088715.5164
  25759663.441       98484.344 6   -960345.32949  25759663.6294
  26257800.949    16332988.025 6  12804698.85649  26257801.7234
  24332501.457     5767008.593 7   4545206.14849  24332499.8874
 95  2 17 18 51  0.0120000  0  6 18 14 28 19 22 29
  24850424.793        3076.23417
  25689765.371    21618703.403 6  16922207.39549  25689765.0664
  28090765.223      197285.886 3    191450.28149  28090768.5624
  25763612.176      119233.924 6   -944176.82049  25763612.1644
  26287377.066    16488409.072 6  12925806.12249  26287377.9344
  24345660.262     5836158.404 7   4599089.10849  24345658.4344
 95  2 17 18 51 30.0120000  0  6 18 14 28 19 22 29
  24853971.879       21716.916 7       975.22659  24853970.9064
  25721244.801    21784125.322 7  17051107.52949  25721244.3084
  28092873.629      208362.687 3    200081.55349  28092874.6374
  25767625.285      140322.873 6   -927743.86549  25767625.4614
  26317040.668    16644295.720 6  13047276.19149  26317041.5354
  24358892.426     5905695.247 7   4653273.65349  24358890.8324
 95  2 17 18 52  0.0120000  0  6 18 14 28 19 22 29
  24857579.309       40674.372 7     15747.26949  24857578.3124
  25752803.762    21949968.745 7  17180336.10449  25752803.4454
  28095037.746      219732.773 3    208941.39349  28095040.1484
  25771698.832      161730.640 6   -911062.47649  25771698.8094
  26346793.363    16800644.916 6  13169106.70549  26346794.1484
  24372200.191     5975627.262 7   4707766.13049  24372198.4224
 95  2 17 18 52 30.0120000  0  6 18 14 28 19 22 29
  24861249.434       59960.629 7     30775.54549  24861248.4614
  25784445.934    22116249.580 7  17309905.51549  25784445.7934
  28097258.824      231399.934 4    218032.77849  28097263.2894
  25775831.074      183445.857 6   -894141.52149  25775831.2384
  26376634.582    16957458.516 6  13291299.08349  26376635.2734
  24385587.488     6045978.191 7   4762585.02849  24385585.6254
 95  2 17 18 53  0.0130000  0  6 18 14 28 19 22 29
  24864982.352       79575.521 7     46059.89549  24864981.1104
  25816169.040    22282956.749 6  17439807.13349  25816169.1814
  28099534.962      243365.002 4    227356.26649  28099537.3764
  25780019.688      205456.486 6   -876990.36049  25780019.3844
  26406561.149    17114725.100 6  13413844.44649  26406561.9344
  24399059.040     6116770.457 7   4817747.83549  24399057.2244
 95  2 17 18 53 30.0130000  0  6 18 14 28 19 22 29
  24868780.774       99540.966 7     61617.40249  24868779.3684
  25847970.501    22450075.153 6  17570029.19849  25847970.6184
  28101869.720      255636.584 4    236918.60749  28101872.5914
  25784261.759      227750.845 6   -859618.10749  25784262.2864
  26436569.196    17272420.648 6  13536724.06949  26436569.6654
  24412612.173     6187993.401 7   4873246.23449  24412610.5914
 95  2 17 18 54  0.0130000  0  6 18 14 28 19 22 29
  24872646.352      119852.675 7     77444.72449  24872644.7944
  25879847.774    22617590.168 6  17700560.32149  25879847.7044
  28104262.931      268215.597 4    246720.45149  28104265.7084
  25788556.290      250318.458 6   -842032.92249  25788556.8414
  26466659.368    17430542.433 6  13659935.82149  26466659.8724
  24426244.876     6259633.559 7   4929069.73549  24426243.3764
 95  2 17 18 54 30.0130000  0  6 18 14 28 19 22 29
  24876575.524      140499.940 7     93533.51749  24876574.3414
  25911796.321    22785483.083 6  17831385.89349  25911796.8954
  28106715.056      281099.611 4    256759.98849  28106717.4584
  25792902.477      273157.160 6   -824236.49249  25792902.3724
  26496829.259    17589087.585 6  13783477.48849  26496829.8684
  24439954.321     6331677.288 7   4985207.70449  24439952.8094
 95  2 17 18 55  0.0130000  0  6 18 14 28 19 22 29
  24880566.204      161471.826 7    109875.25849  24880565.1024
  25943815.618    22953744.376 6  17962498.52749  25943816.2864
  28109224.681      294291.643 5    267039.55049  28109226.5564
  25797300.470      296268.968 6   -806227.24249  25797299.9894
  26527079.899    17748052.308 6  13907346.08649  26527080.4974
  24453737.376     6404108.932 7   5041647.94449  24453735.7824
 95  2 17 18 55 30.0130000  0  6 18 14 28 19 22 29
  24884615.399      182750.913 7    126456.37449  24884614.7204
  25975906.329    23122383.217 6  18093905.35649  25975906.6454
  28111791.720       12603.71614    277555.26749  28111793.6884
  25801751.423      319656.645 6   -788003.03749  25801751.5054
  26557409.837    17907437.476 6  14031542.30549  26557410.4814
  24467591.446     6476912.351 7   5098377.87749  24467590.3564
 95  2 17 18 56  0.0130000  0  7 18 14 28 19 31 22 29
  24888721.313      204329.221 7    143270.65249  24888720.8334
  26008071.110    23291409.219 6  18225613.87449  26008071.5914
  28114419.782       26409.222 5    288312.88649  28114421.5284
  25806257.954      343337.785 6   -769550.14849  25806257.8134
  28578922.095      -10761.880 3
  26587820.798    18067248.919 6  14156070.68549  26587821.6064
  24481521.759     6550115.448 7   5155419.25349  24481520.6694
 95  2 17 18 56 30.0130000  0  7 18 14 28 19 31 22 29
  24892886.446      226217.219 7    160326.24849  24892886.0954
  26040311.368    23460832.776 6  18357632.15749  26040311.7904
  28117108.267       40534.771 5    299319.87249  28117110.5174
  25810823.790      367333.918 6   -750851.81149  25810823.7084
  28576804.399      -21889.569 3     -2889.17559  28576808.0674
  26618312.681    18227485.645 6  14280930.45149  26618313.6424
  24495529.227     6623725.229 7   5212777.52149  24495528.0204
 95  2 17 18 57  0.0130000  0  8 18 14 28 19 31 22 27 29
  24897111.056      248418.613 7    177626.04749  24897110.5054
  26072629.165    23630661.892 6  18489966.47849  26072629.4344
  28119857.665       54986.453 5    310581.02149  28119859.9624
  25815451.415      391651.398 6   -731903.08049  25815451.1814
  28574691.720      -32987.420 4    -11536.71849  28574694.2394
  26648885.087    18388144.892 6  14406119.46049  26648886.2824
  28992221.720        -787.84113
  24509615.274     6697748.448 7   5270457.95349  24509613.8334
 95  2 17 18 57 30.0130000  0  8 18 14 28 19 31 22 27 29
  24901395.290      270931.943 7    195168.91649  24901394.8564
  26105021.634    23800888.850 6  18622610.80749  26105022.0794
  28122668.431       69758.680 5    322091.89349  28122672.4744
  25820137.501      416276.602 7   -712714.55949  25820137.0914
  28572584.181      -44066.631 4    -20169.73449  28572587.3454
  26679535.196    18549213.324 6  14531627.31249  26679536.2514
  28991339.048       -5433.944 3
  24523779.274     6772179.970 7   5328456.53949  24523777.6574
 95  2 17 18 58  0.0130000  0  8 18 14 28 19 31 22 27 29
  24905740.876      293765.966 7    212961.66649  24905740.3024
  26137487.915    23971499.242 6  18755553.90249  26137488.7244
  28125541.571       84854.751 5    333855.16749  28125544.2664
  25824880.032      441200.541 6   -693293.25249  25824879.7394
  28570480.188      -55120.935 4    -28783.36849  28570485.5094
  26710262.188    18710684.316 6  14657448.83549  26710262.6344
  28990483.204       -9931.464 3     -1972.24159  28990483.7314
  24538021.892     6847025.284 7   5386777.55749  24538020.1344
 95  2 17 18 58 30.0130000  0  8 18 14 28 19 31 22 27 29
  24910150.126      316938.437 7    231018.14449  24910149.4114
  26170025.720    24142485.325 6  18888789.76249  26170026.1184
  28128476.634      100277.642 5    345873.10849  28128479.0484
  25829675.579      466404.272 6   -673653.93049  25829675.4854
  28568384.634      -66132.086 4    -37363.35849  28568387.4934
  26741066.227    18872558.995 6  14783584.91749  26741066.3684
  28989656.188      -14277.158 3     -5358.34749  28989657.9234
  24552340.032     6922268.563 7   5445408.67749  24552338.5444
 95  2 17 18 59  0.0130000  0  8 18 14 28 19 31 22 27 29
  24914625.321      340455.831 7    249343.39449  24914624.5484
  26202634.665    24313845.843 6  19022317.37049  26202634.8764
  28131473.829      116025.099 5    358143.94749  28131476.0914
  25834520.884      491864.796 6   -653814.51349  25834520.9544
  28566296.173      -77106.218 4    -45914.51449  28566300.2044
  26771946.548    19034834.188 6  14910033.09549  26771947.1224
  28988858.376      -18466.781 3     -8622.89349  28988863.0874
  24566734.579     6997911.133 7   5504350.93749  24566732.9504
 95  2 17 18 59 30.0130000  0  8 18 14 28 19 31 22 27 29
  24919166.509      364318.305 7    267937.53749  24919165.7474
  26235312.642    24485568.321 6  19156127.02749  26235312.5014
  28134532.852      132102.717 5    370672.08849  28134534.4704
  25839415.040      517585.686 6   -633772.21449  25839414.6774
  28564214.735      -88044.479 4    -54437.69349  28564218.3564
  26802902.016    19197508.393 6  15036792.17549  26802902.4624
  28988089.665      -22500.234 3    -11765.71849  28988091.5054
  24581208.290     7073971.330 7   5563618.60649  24581206.3564
 95  2 17 19  0  0.0130000  0  8 18 14 28 19 31 22 27 29
  24923775.274      388534.899 7    286807.62049  24923774.4194
  26268055.727    24657633.960 6  19290204.07649  26268056.0444
  28137656.727      148518.298 5    383463.53849  28137659.1774
  25844361.618      543578.287 6   -613518.19849  25844361.4544
  28562145.696      -98918.053 4    -62910.50349  28562150.0794
  26833934.415    19360586.386 6  15163865.89749  26833935.1414
  28987352.704      -26374.217 3    -14784.33649  28987356.1844
  24595765.040     7150467.565 7   5623226.05849  24595763.0954
 95  2 17 19  0 30.0130000  0  8 18 14 28 19 31 22 27 29
  24928451.415      413109.285 7    305956.50349  24928450.4664
  26300861.290    24830029.877 6  19424538.49249  26300862.2274
  28140845.032      165275.777 5    396521.43649  28140846.5794
  25849360.235      569844.665 7   -593050.86249  25849359.6494
  28560087.798     -109731.110 4    -71336.16148  28560092.2744
  26865043.196    19524062.189 6  15291249.60549  26865043.7124
  28986643.618      -30104.711 3    -17691.09949  28986645.6694
  24610403.821     7227394.777 7   5683169.32549  24610402.1454
 95  2 17 19  1  0.0130000  0  8 18 14 28 19 31 22 27 29
  24933193.884      438032.592 7    325377.26649  24933192.9584
  26333731.876    25002767.303 6  19559139.00749  26333733.1424
  28144100.352      182385.030 5    409853.44649  28144102.0284
  25854415.727      596411.554 7   -572349.36449  25854414.9194
  28558041.306     -120487.136 5    -79717.33849  28558044.3764
  26896228.384    19687939.770 6  15418946.38149  26896228.5364
  28985960.329      -33695.834 3    -20489.33749  28985960.8804
  24625128.196     7304773.144 7   5743464.15649  24625126.6264
 95  2 17 19  1 30.0130000  0  8 18 14 28 19 31 22 27 29
  24938000.891      463293.649 7    345061.22049  24938000.0014
  26366667.095    25175843.807 6  19694003.74149  26366668.7704
  28147423.368      199842.743 5    423456.94849  28147424.4464
  25859528.376      623279.446 7   -551413.31949  25859527.4854
  28556004.516     -131189.920 4    -88057.11049  28556007.1654
  26927487.798    19852208.611 6  15546948.02949  26927488.3604
  28985302.157      -37153.057 3    -23183.15649  28985305.9194
  24639937.345     7382593.491 7   5804103.37949  24639935.7164
 95  2 17 19  2  0.0130000  0  8 18 14 28 19 31 22 27 29
  24942875.126      488906.615 7    365019.38749  24942874.2704
  26399670.829    25349278.537 6  19829147.62149  26399672.1774
  28150810.462      217647.039 5    437330.51049  28150813.2864
  25864699.063      650448.313 7   -530242.75349  25864698.3844
  28553976.649     -141841.707 4    -96357.06949  28553979.4974
  26958817.563    20016850.412 6  15675240.29049  26958818.3024
  28984669.688      -40477.612 3    -25773.69249  28984672.6534
  24654823.641     7460822.578 7   5865061.10349  24654821.9894
 95  2 17 19  2 30.0130000  0  8 18 14 28 19 31 22 27 29
  24947816.204      514873.197 7    385253.09449  24947815.2904
  26432749.446    25523106.198 6  19964597.67049  26432750.4424
  28154266.579      235807.901 5    451481.92049  28154267.6924
  25869925.962      677919.116 7   -508836.91249  25869925.5404
  28551959.181     -152442.479 3   -104617.40649  28551958.9234
  26990218.212    20181862.267 6  15803820.90549  26990218.4344
  28984063.102      -43659.927 2    -28253.33649  28984063.9114
  24669785.962     7539449.317 7   5926328.68749  24669784.1224
 95  2 17 19  3  0.0140000  0  8 18 14 28 19 31 22 27 29
  24952826.193      541199.444 7    405767.05949  24952825.1394
  26465905.795    25697342.047 6  20100365.78149  26465906.3924
  28157792.318      254331.436 5    465915.91649  28157792.1424
  25875212.904      705702.219 7   -487187.72449  25875212.6004
  28549954.748     -162975.664 3   -112825.00349  28549959.4594
  27021690.217    20347247.234 6  15932692.26149  27021690.7444
  28983488.529       -1897.32412    -30609.96848  28983491.5294
  24684824.904     7618479.428 7   5987910.58149  24684823.1464
 95  2 17 19  3 30.0140000  0  8 18 14 28 19 31 22 27 29
  24957906.810      567898.324 7    426571.38749  24957905.9204
  26499133.443    25871952.296 6  20236425.62949  26499133.9944
  28161386.053      273216.230 5    480631.42049  28161386.6854
  25880556.951      733786.063 7   -465304.20249  25880556.8814
  28547964.654     -173431.048 3   -120972.00749  28547966.9754
  27053228.584    20512981.266 6  16061835.60649  27053229.3464
  28982944.428       -2173.40013    -32834.58649  28982944.9324
  24699937.834     7697899.379 7   6049796.25249  24699936.3224
 95  2 17 19  4  0.0140000  0  8 18 14 28 19 31 22 27 29
  24963055.998      594959.064 7    447657.69049  24963055.0604
  26532427.053    26046912.022 6  20372757.80349  26532427.5924
  28165047.326      292459.846 5    495626.53349  28165048.7914
  25885955.896      762156.020 7   -443197.74049  25885955.9324
  28545989.662     -183810.196 3   -129059.66349  28545992.4864
  27084831.365    20679057.209 6  16191245.38749  27084831.5764
  28982431.857       -4864.128 3    -34931.18849  28982435.7484
  24715125.576     7777712.327 7   6111988.15449  24715124.1584
 95  2 17 19  4 30.0140000  0  8 18 14 28 19 31 22 27 29
  24968272.232      622370.762 7    469017.47049  24968271.3304
  26565783.060    26222199.722 6  20509345.53249  26565784.1504
  28168778.529      312069.427 5    510906.77549  28168780.4044
  25891407.506      790806.922 7   -420872.36249  25891407.6824
  28544028.842       -7550.03013   -137089.33647  28544028.9594
  27116503.826    20845494.600 6  16320936.82249  27116504.0964
  28981953.584        -903.54413    -36895.07849  28981956.6424
  24730395.615     7857954.022 7   6174514.14149  24730393.7054
 95  2 17 19  5  0.0140000  0  8 18 14 28 19 31 22 27 29
  24973555.420      650131.092 7    490648.91249  24973554.3304
  26599197.029    26397790.124 6  20646169.13449  26599197.9204
  28172578.975      332042.249 5    526470.07849  28172580.8264
  25896911.881      819730.676 7   -398334.36949  25896911.6114
  28542080.373       -8868.07113   -145066.19549  28542084.3694
  27148246.451    21012303.608 6  16450917.81649  27148246.8734
  28981507.717       -3247.948 3    -38721.85649  28981507.8814
  24745749.342     7938639.383 7   6237385.84249  24745747.4204
 95  2 17 19  5 30.0140000  0  8 18 14 28 19 31 22 27 29
  24978904.076      678239.702 7    512551.74249  24978902.8924
  26632670.818    26573695.715 6  20783238.33549  26632671.3924
  28176451.045      352385.361 5    542321.90049  28176451.3504
  25902467.084      848924.036 6   -375586.28449  25902466.6744
  28540145.412      -19041.259 3   -152993.35249  28540151.7054
  27180062.803    21179499.805 6  16581200.51749  27180063.6584
  28981096.967       -5405.583 3    -40403.05349  28981096.8144
  24761188.982     8019774.122 7   6300607.70449  24761187.0374
 95  2 17 19  6  0.0140000  0  8 18 14 28 19 31 22 27 29
  24984318.068      706691.438 7    534721.94149  24984317.0374
  26666207.373    26749932.988 6  20920565.99149  26666208.3224
  28180393.185      373102.038 5    558464.80749  28180393.7254
  25908072.928      878383.680 6   -352630.72049  25908072.5644
  28538222.545      -29150.739 3   -160870.80249  28538225.9554
  27211955.240    21347094.881 6  16711794.03849  27211955.8264
  28980718.521       -7388.574 3    -41948.16949  28980722.4244
  24776713.912     8101359.264 7   6364180.53249  24776712.0024
 95  2 17 19  6 30.0140000  0  8 18 14 28 19 31 22 27 29
  24989800.037      735500.184 7    557170.33249  24989799.0534
  26699809.365    26926512.276 6  21058160.15149  26699810.7014
  28184405.951      394196.636 5    574902.18749  28184407.6504
  25913732.365      908124.991 6   -329455.67349  25913732.3654
  28536312.060      -39183.498 3   -168688.54049  28536316.0454
  27243925.404    21515099.800 6  16842706.91849  27243926.0724
  28980375.014       -9198.696 3    -43358.66649  28980378.7994
  24792324.732     8183395.690 7   6428105.00949  24792322.9864
 95  2 17 19  7  0.0140000  0  8 18 14 28 19 31 22 27 29
  24995353.717      764686.197 7    579912.69849  24995352.7444
  26733475.451    27103430.523 6  21196018.44049  26733476.7174
  28188491.771      415666.785 5    591632.22449  28188492.9554
  25919445.748      938147.622 7   -306061.40849  25919445.5374
  28534420.256      -49125.648 3   -176435.63648  28534422.4824
  27275969.646    21683490.307 6  16973920.25349  27275969.7644
  28980060.287      -10847.651 3    -44643.46649  28980059.6784
  24808018.318     8265865.477 7   6492367.16349  24808016.5374
 95  2 17 19  7 30.0140000  0  8 18 14 28 19 31 22 27 29
  25000981.482      794258.154 7    602955.79749  25000980.4634
  26767207.271    27280686.747 6  21334140.07949  26767208.9714
  28192649.810      437515.277 5    608657.06349  28192651.8264
  25925213.178      968455.457 7   -282444.90849  25925212.8144
  28532549.967      -58958.718 3   -184097.69149  28532552.8614
  27308082.178    21852242.458 6  17105415.37549  27308082.1194
  28979771.514      -12361.500 3    -45823.00949  28979774.7604
  24823794.396     8348770.364 7   6556968.35749  24823792.4514
 95  2 17 19  8  0.0140000  0  8 18 14 28 19 31 22 27 29
  25006685.787      824235.977 7    626315.15849  25006684.7444
  26800997.545    27458255.451 6  21472505.20749  26800998.2604
  28196880.990      459748.013 5    625981.34549  28196882.0104
  25931034.389      999047.248 7   -258607.14249  25931034.6004
  28530702.092      -68666.640 3   -191662.23349  28530704.7284
  27340258.576    22021331.954 6  17237173.36449  27340258.7524
  28979505.865      -13759.106 3    -46912.01849  28979507.0254
  24839654.732     8432118.094 7   6621914.62849  24839653.1504
 95  2 17 19  8 30.0140000  0  8 18 14 28 19 31 22 27 29
  25012468.107      854619.904 7    649990.96049  25012467.1004
  26834843.420    27636116.998 6  21611098.51849  26834844.4394
  28201185.303      482368.448 5    643607.72149  28201187.3654
  25936911.943     1029934.240 7   -234539.34449  25936911.8264
  28528877.623      -78250.360 3   -199130.02049  28528881.9474
  27372495.935    22190739.330 6  17369179.04449  27372496.8264
  28979262.849      -15036.808 3    -47907.54649  28979265.6624
  24855600.170     8515909.700 7   6687206.76949  24855598.6354
 95  2 17 19  9  0.0140000  0  8 18 14 28 19 31 22 27 29
  25018322.889      885389.152 7    673967.01049  25018321.9044
  26868743.060    27814261.284 6  21749912.14749  26868744.0454
  28205563.600      505373.043 5    661533.42049  28205564.7954
  25942843.342     1061104.650 7   -210250.69449  25942843.0494
  28527073.857      -87729.751 4   -206516.47149  28527076.9284
  27404790.287    22360447.679 6  17501419.26849  27404790.8034
  28979041.951      -16204.534 3    -48817.42549  28979043.1464
  24871626.271     8600126.193 7   6752829.98649  24871624.6424
 95  2 17 19  9 30.0140000  0  8 18 14 28 19 31 22 27 29
  25024247.365      916521.764 7    698226.20449  25024246.3104
  26902697.287    27992693.866 6  21888950.42149  26902698.2834
  28210013.576      528764.960 5    679760.95449  28210015.6624
  25948828.490     1092556.858 7   -185742.46649  25948828.1854
  28525288.967      -97118.703 5   -213832.50649  28525292.4354
  27437143.326    22530467.327 6  17633902.05149  27437143.6894
  28978842.865      -17253.241 4    -49634.53049  28978844.7054
  24887730.693     8684758.141 7   6818776.93649  24887729.0414
 95  2 17 19 10  0.0140000  0  8 18 14 28 19 31 22 27 29
  25030238.240      948004.923 7    722758.55149  25030237.1394
  26936707.818    28171419.168 6  22028216.79149  26936709.6354
  28214539.209      552545.253 5    698291.08949  28214540.7324
  25954869.959     1124301.246 7   -161006.55349  25954869.5964
  28523515.717     -106431.030 5   -221088.78649  28523518.6114
  27469558.834    22700807.459 6  17766634.55749  27469559.3854
  28978669.959      -18157.450 3    -50339.08749  28978669.9004
  24903912.943     8769794.166 7   6885038.75449  24903911.3504
 95  2 17 19 10 30.0140000  0  8 18 14 28 19 31 22 27 29
  25036293.756      979826.426 7    747554.54149  25036292.6664
  26970778.248    28350458.917 6  22167728.18549  26970780.0294
  28219140.232      576724.591 5    717132.19949  28219141.9324
  25960968.764     1156353.815 7   -136030.49349  25960968.7174
  28521758.787     -115661.186 5   -228281.03449  28521762.4084
  27502040.435    22871500.547 6  17899642.10449  27502040.7524
  28978529.514      -18889.705 3    -50909.65749  28978529.7714
  24920172.842     8855241.444 7   6951621.02349  24920171.4124
 95  2 17 19 11  0.0140000  0  8 18 14 28 19 31 22 27 29
  25042414.568     1011991.625 7    772618.34149  25042413.4084
  27004908.787    28529815.691 6  22307486.59849  27004910.1464
  28223815.623      601296.724 5    736279.40049  28223817.1234
  25967122.506     1188693.064 7   -110831.05349  25967122.4474
  28520020.021     -124802.586 5   -235404.15749  28520022.1784
  27534589.264    23042543.805 6  18032922.51649  27534589.4394
  28978422.607      -19452.961 3    -51348.50649  28978424.1664
  24936510.217     8941094.830 7   7018519.75349  24936508.6704
 95  2 17 19 11 30.0140000  0  8 18 14 28 19 31 22 27 29
  25048605.943     1044527.831 7    797971.24049  25048604.9354
  27039101.365    28709497.732 6  22447498.48449  27039102.6424
  28228569.107      626276.297 5    755744.07249  28228570.2914
  25973334.943     1221337.884 7    -85393.51749  25973334.5924
  28518303.771     -133817.848 5   -242428.96049  28518306.5024
  27567204.607    23213938.487 6  18166476.74749  27567205.2054
  28978352.475      -19825.502 3    -51638.74549  28978354.0804
  24952931.646     9027389.024 7   7085761.96849  24952930.1584
 95  2 17 19 12  0.0140000  0  8 18 14 28 19 31 22 27 29
  25054867.881     1077433.936 7    823612.34849  25054866.7914
  27073350.100    28889473.958 6  22587739.59549  27073350.8034
  28233397.967      651652.774 5    775518.05649  28233399.6894
  25979603.014     1254276.376 7    -59727.08349  25979603.1194
  28516612.904     -142704.567 5   -249353.61949  28516614.7214
  27599883.084    23385663.904 6  18300288.70549  27599883.2014
  28978311.326      -20034.028 3    -51801.16549  28978314.5144
  24969436.959     9114125.271 7   7153348.64349  24969435.5534
 95  2 17 19 12 30.0140000  0  8 18 14 28 19 31 22 27 29
  25061204.092     1110731.008 7    849558.14649  25061202.9784
  27107652.123    29069732.625 6  22728200.78549  27107652.6624
  28238303.334      677432.881 5    795606.53949  28238305.3034
  25985924.365     1287495.126 7    -33842.35449  25985924.1314
  28514949.303     -151445.792 5   -256164.88549  28514951.0604
  27632622.795    23557714.849 6  18434354.30949  27632623.4984
  28978302.310      -20082.485 3    -51838.83549  28978304.9354
  24986028.943     9201316.939 7   7221290.19849  24986027.4204
 95  2 17 19 13  0.0140000  0  8 18 14 28 19 31 22 27 29
  25067618.357     1144438.531 7    875823.74949  25067617.2564
  27142009.498    29250281.577 6  22868888.19149  27142009.9904
  28243287.248      703621.472 5    816013.33049  28243288.8074
  25992297.850     1320988.610 7     -7743.49249  25992297.4984
  28513314.373     -160035.185 5   -262857.84849  28513317.0214
  27665422.178    23730076.397 6  18568661.93649  27665422.6464
  28978322.748      -19973.664 3    -51753.91649  28978324.1544
  25002709.326     9288972.975 7   7289593.58649  25002707.6394
 95  2 17 19 13 30.0150000  0  8 18 14 28 19 31 22 27 29
  25074110.573     1178555.084 7    902408.08749  25074109.4954
  27176421.065    29431115.815 6  23009797.87449  27176421.8154
  28248348.972      730224.167 5    836742.79349  28248350.4254
  25998724.870     1354762.225 7     18573.62949  25998724.6944
  28511706.604     -168481.532 4   -269439.40049  28511710.7184
  27698282.878    23902759.234 6  18703219.92849  27698283.0544
  28978371.893      -19716.480 3    -51553.50249  28978373.3474
  25019477.933     9377094.818 7   7358259.95049  25019476.7024
 95  2 17 19 14  0.0150000  0  8 18 14 28 19 31 22 27 29
  25080681.808     1213086.102 7    929315.37949  25080680.7884
  27210883.792    29612222.595 6  23150919.94849  27210885.0464
  28253491.768      757245.509 5    857798.50949  28253493.6904
  26005202.237     1388802.000 7     45098.16649  26005202.0504
  28510123.479     -176801.316 4   -275922.28049  28510125.9054
  27731206.448    24075775.357 6  18838037.62249  27731206.9054
  28978448.901      -19315.793 4    -51241.18049  28978450.7064
  25036333.979     9465671.730 7   7427280.91749  25036332.4684
 95  2 17 19 14 30.0150000  0  8 18 14 28 19 31 22 27 29
  25087328.784     1248016.006 7    956533.49049  25087327.7294
  27245401.534    29793612.199 6  23292262.39249  27245403.4094
  28258712.104      784678.708 5    879175.13249  28258713.9334
  26011725.925     1423084.738 7     71812.01849  26011725.5154
  28508562.995     -185006.304 4   -282315.67149  28508564.1674
  27764193.417    24249118.510 6  18973110.15649  27764194.4484
  28978552.526      -18774.471 4    -50819.29049  28978555.1404
  25053274.323     9554692.582 7   7496647.80649  25053272.8114
 95  2 17 19 15  0.0150000  0  8 18 14 28 19 31 22 27 29
  25094051.878     1283345.813 7    984063.21049  25094050.6244
  27279974.097    29975291.552 6  23433830.61849  27279975.2454
  28264013.378      812531.319 5    900878.60849  28264014.4684
  26018297.503     1457619.120 7     98721.95849  26018297.2684
  28507022.136     -193093.664 3   -288617.46049  28507026.5074
  27797242.729    24422795.619 6  19108442.89249  27797242.8824
  28978680.776      -18101.045 4    -50294.46249  28978683.2494
  25070299.198     9644159.517 7   7566362.28849  25070297.6044
 95  2 17 19 15 30.0150000  0  8 18 14 28 19 31 22 27 29
  25100849.675     1319068.296 7   1011898.91449  25100848.4684
  27314598.792    30157245.221 6  23575612.60149  27314600.3274
  28269392.620      840804.377 5    922909.69749  28269393.4174
  26024917.573     1492407.933 7    125830.15849  26024917.1514
  28505507.190     -201064.834 4   -294828.68948  28505511.2574
  27830355.573    24596804.643 6  19244034.26349  27830356.9684
  28978831.847      -17303.168 4    -49672.63249  28978834.0504
  25087408.026     9734065.346 7   7636418.77649  25087406.4444
 95  2 17 19 16  0.0150000  0  8 18 14 28 19 31 22 27 29
  25107722.409     1355185.304 7   1040042.03549  25107721.2614
  27349277.651    30339482.460 6  23717615.54349  27349279.2684
  28274853.815      869506.742 5    945275.29349  28274854.5894
  26031587.604     1527456.274 7    153140.58749  26031587.1004
  28504015.159     -208899.101 3   -300933.18849  28504018.3234
  27863529.581    24771134.776 6  19379875.87049  27863530.9994
  28979009.925      -16362.472 3    -48939.53949  28979012.0934
  25104602.651     9824425.595 7   7706829.34749  25104601.1514
 95  2 17 19 16 30.0150000  0  8 18 14 28 19 31 22 27 29
  25114667.628     1391684.565 7   1068483.02049  25114666.4094
  27384008.768    30521995.268 6  23859833.22149  27384009.4954
  28280397.300      898636.804 5    967974.18949  28280398.9644
  26038307.690     1562773.277 7    180660.36049  26038307.1984
  28502552.815     -216584.656 3   -306921.81049  28502555.8044
  27896759.245    24945755.192 6  19515943.64149  27896760.4874
  28979216.956      -15274.954 3    -48092.05949  28979219.2534
  25121883.182     9915234.835 7   7777589.79249  25121881.8584
 95  2 17 19 17  0.0150000  0  8 18 14 28 19 31 22 27 29
  25121688.050     1428575.519 7   1097229.22149  25121687.0184
  27418789.917    30704771.121 6  24002255.86249  27418790.7024
  28286021.995      928197.071 5    991008.26949  28286023.5304
  26045084.229     1598384.092 7    208409.08349  26045083.8784
  28501117.307     -224127.711 3   -312799.38949  28501121.6204
  27930043.276    25120665.996 6  19652237.71849  27930044.0854
  28979451.503      -14039.175 3    -47129.03049  28979452.4524
  25139248.628    10006491.503 7   7848698.88249  25139247.3744
 95  2 17 19 17 30.0150000  0  8 18 14 28 19 31 22 27 29
  25128782.511     1465857.352 7   1126280.00549  25128781.3274
  27453620.300    30887804.065 6  24144878.84249  27453620.8744
  28291728.706      958186.599 5   1014376.86549  28291729.4564
  26051917.487     1634292.977 7    236390.06549  26051917.1004
  28499709.206     -231525.810 4   -318564.00649  28499712.6754
  27963380.823    25295856.637 5  19788749.84549  27963381.9834
  28979718.753      -12639.633 4    -46038.39649  28979719.6794
  25156696.589    10098181.159 7   7920145.36249  25156695.3934
 95  2 17 19 18  0.0150000  0  8 18 14 28 19 31 22 27 29
  25135952.253     1503535.598 7   1155639.68249  25135951.1634
  27488498.995    31071090.947 6  24287699.68549  27488499.5814
  28297519.323      988612.231 5   1038085.26849  28297520.7884
  26058810.706     1670517.613 7    264617.08149  26058810.4484
  28498331.636     -238768.671 4   -324207.68549  28498335.0694
  27996771.932    25471329.906 5  19925482.19549  27996773.6084
  28980017.659      -11068.051 3    -44813.73349  28980018.7494
  25174227.761    10190307.394 7   7991932.03449  25174226.3314
 95  2 17 19 18 30.0150000  0  8 18 14 28 19 31 22 27 29
  25143198.433     1541612.279 7   1185309.83049  25143197.1794
  27523425.878    31254631.593 6  24430718.26049  27523426.5114
  28303391.089     1019472.039 5   1062131.97649  28303392.5544
  26065763.792     1707056.863 7    293089.25349  26065763.7454
  28496979.979     -245867.782 5   -329739.25649  28496984.2224
  28030218.401    25647093.116 5  20062440.46449  28030219.9254
  28980346.339       -9335.163 3    -43463.34549  28980349.1514
  25191839.956    10282859.336 7   8064050.42349  25191838.2224
 95  2 17 19 19  0.0150000  0  8 18 14 28 19 31 22 27 29
  25150520.831     1580093.802 7   1215295.44149  25150519.7654
  27558401.276    31438427.930 6  24573936.06549  27558402.1904
  28309346.667     1050771.012 5   1086520.89049  28309348.2024
  26072775.198     1743900.375 7    321798.50149  26072774.7654
  28495657.300     -252817.811 5   -335154.69549  28495659.8194
  28063721.729    25823156.663 5  20199632.77649  28063722.7724
  28980707.987       -7436.454 3    -41983.80949  28980710.5424
  25209534.823    10375848.584 7   8136509.56449  25209533.5114
 95  2 17 19 19 30.0150000  0  8 18 14 28 19 31 22 27 29
  25157922.823     1618990.103 7   1245604.25849  25157921.6164
  27593426.058    31622486.340 6  24717358.11049  27593427.0894
  28315388.081     1082516.259 5   1111257.54349  28315390.0154
  26079840.815     1781031.391 7    350731.79249  26079840.3704
  28494367.776     -259593.505 5   -340434.25449  28494370.3664
  28097281.112    25999508.964 5  20337050.08849  28097283.3504
  28981102.354       -5365.731 4    -40370.17449  28981104.9564
  25227317.026    10469294.364 7   8209324.45249  25227315.6674
 95  2 17 19 20  0.0150000  0  8 18 14 28 19 31 22 27 29
  25165400.612     1658286.180 7   1276224.57949  25165399.1944
  27628499.870    31806801.853 6  24860980.47649  27628501.6284
  28321514.089     1114706.126 5   1136340.64249  28321515.6004
  26086957.448     1818429.980 7    379873.57549  26086957.2144
  28493109.417     -266205.038 5   -345585.97549  28493111.8904
  28130894.151    26176146.391 5  20474689.59049  28130896.5304
  28981526.698       -3137.563 4    -38633.85949  28981528.1864
  25245190.550    10563218.332 7   8282511.95749  25245189.2614
 95  2 17 19 20 30.0150000  0  8 18 14 28 19 31 22 27 29
  25172954.948     1697984.650 7   1307158.45849  25172953.6124
  27663624.222    31991381.265 5  25004808.47949  27663626.0154
  28327723.761     1147340.898 5   1161770.39149  28327724.1944
  26094119.909     1856068.445 7    409202.25649  26094119.6754
  28491883.378     -272651.354 5   -350608.89349  28491885.3584
  28164561.206    26353067.796 5  20612550.35849  28164562.9404
  28981981.300        -747.327 4    -36771.25549  28981983.3394
  25263156.901    10657630.151 7   8356079.59849  25263155.3544
 95  2 17 19 21  0.0150000  0  8 18 14 28 19 31 22 27 29
  25180587.354     1738092.766 7   1338411.53949  25180586.2414
  27698795.839    32176208.305 5  25148829.44349  27698797.4564
  28334019.839     1180426.379 5   1187551.34049  28334019.9334
  26101329.065     1893950.834 7    438721.02449  26101328.8194
  28490689.636     -278923.440 5   -355496.06049  28490692.4954
  28198278.761    26530257.823 5  20750620.45049  28198279.8624
  28982466.495        1806.559 3    -34781.14349  28982467.9254
  25281214.503    10752525.918 7   8430024.34649  25281212.8744
 95  2 17 19 21 30.0150000  0  8 18 14 28 19 31 22 27 29
  25188296.839     1778608.548 7   1369982.29249  25188295.9364
  27734012.604    32361273.919 5  25293036.31049  27734014.8784
  28340401.651     1213963.377 5   1213684.13649  28340402.3314
  26108586.933     1932092.793 7    468442.04749  26108586.6164
  28489528.558     -285027.043 5   -360251.94449  28489529.9994
  28232048.261    26707712.264 5  20888896.57549  28232049.7614
  28982981.276        4508.492 3    -32675.67049  28982983.8784
  25299360.948    10847884.700 7   8504329.88349  25299359.1794
 95  2 17 19 22  0.0150000  0  8 18 14 28 19 31 22 27 29
  25196084.518     1819531.457 7   1401870.28049  25196083.5344
  27769273.659    32546571.505 5  25437423.93749  27769276.1084
  28346869.737     1247957.639 5   1240173.23149  28346870.9684
  26115896.479     1970505.288 7    498373.88049  26115896.1984
  28488399.018     -290957.916 5   -364873.26449  28488400.0504
  28265869.534    26885445.202 5  21027389.72649  28265871.6434
  28983524.589        7359.017 4    -30454.40249  28983526.1244
  25317592.175    10943691.788 7   8578984.74349  25317590.3114
 95  2 17 19 22 30.0150000  0  8 18 14 28 19 31 22 27 29
  25203952.339     1860877.800 7   1434088.21849  25203951.1554
  27804575.300    32732081.152 5  25581976.79349  27804577.4214
  28353424.956     1282404.388 5   1267014.93149  28353426.6434
  26123258.120     2009190.785 7    528518.43149  26123257.5584
  28487305.464     -296702.886 5   -369349.71049  28487307.6434
  28299740.198    27063436.082 5  21166083.85549  28299740.9604
  28984093.659       10349.159 4    -28124.35849  28984097.2454
  25335901.472    11039908.686 7   8653958.94149  25335899.8784
 95  2 17 19 23  0.0150000  0  8 18 14 28 19 31 22 27 29
  25211901.284     1902651.472 7   1466639.13749  25211900.1004
  27839913.979    32917787.344 5  25726682.81249  27839916.2654
  28360066.987     1317306.875 5   1294211.71249  28360068.2654
  26130673.956     2048163.513 7    558886.80349  26130673.5814
  28486249.042     -302255.638 5   -373676.37749  28486251.0574
  28333658.214    27241676.359 5  21304972.31449  28333658.2494
  28984684.378       13462.408 3    -25698.36349  28984686.1714
  25354288.589    11136532.776 7   8729250.42849  25354286.8194
 95  2 17 19 23 30.0160000  0  8 18 14 28 19 31 22 27 29
  25219934.281     1944863.396 7   1499531.55749  25219933.2034
  27875293.711    33103709.805 5  25871557.34249  27875295.5864
  28366796.766     1352673.688 5   1321770.29549  28366798.3484
  26138144.641     2087420.667 7    589476.80949  26138144.2074
  28485231.305     -307600.397 5   -377841.01349  28485234.1994
  28367628.937    27420191.738 5  21444075.13949  28367629.2424
  28985300.141       16696.299 3    -23178.34849  28985302.2854
  25372758.523    11233592.496 7   8804881.36249  25372756.8714
 95  2 17 19 24  0.0160000  0  8 18 14 28 19 31 22 27 29
  25228052.406     1987523.897 7   1532773.51949  25228051.3514
  27910713.398    33289844.362 5  26016597.15549  27910715.8014
  28373616.601     1388508.236 6   1349693.39149  28373618.1724
  26145666.883     2126950.265 7    620279.10349  26145666.2734
  28484256.820     -312719.794 5   -381830.03049  28484258.8834
  28401651.016    27598976.569 5  21583387.92449  28401652.5044
  28985941.461       20061.532 4    -20556.03249  28985942.2234
  25391313.976    11331102.439 7   8880863.11749  25391312.2424
 95  2 17 19 24 30.0160000  0  8 18 14 28 19 31 22 27 29
  25236255.476     2030632.414 7   1566364.57949  25236254.7264
  27946176.320    33476195.524 5  26161805.73349  27946177.2934
  28380524.016     1424808.068 6   1377979.01649  28380524.0274
  26153241.172     2166753.400 7    651294.54249  26153240.4924
  28483323.023     -317632.890 5   -385658.32649  28483325.9184
  28435722.875    27778025.846 5  21722906.77049  28435724.2234
  28986604.391       23548.462 4    -17838.81549  28986605.7384
  25409959.508    11429084.482 7   8957212.74949  25409958.0084
 95  2 17 19 25  0.0160000  0  8 18 14 28 19 31 22 27 29
  25244541.148     2074174.980 7   1600293.86149  25244540.5044
  27981681.703    33662774.170 5  26307191.57649  27981682.7464
  28387520.375     1461574.402 5   1406628.13949  28387521.1484
  26160867.914     2206832.158 7    682524.76049  26160867.3984
  28482425.750     -322346.284 5   -389330.99849  28482427.7544
  28469848.383    27957356.568 5  21862644.91549  28469849.4264
  28987292.000       27161.128 4    -15023.66049  28987293.3014
  25428700.109    11527566.419 7   9033951.91449  25428698.4694
 95  2 17 19 25 30.0160000  0  8 18 14 28 19 31 22 27 29
  25252909.516     2118149.280 7   1634559.55449  25252908.6014
  28017231.859    33849593.959 5  26452765.33149  28017233.1834
  28394606.273     1498811.120 5   1435643.82249  28394607.1874
  26168547.539     2247188.525 7    713971.29149  26168547.2234
  28481568.289     -326854.335 5   -392843.67749  28481569.9414
  28504027.555    28136969.427 5  22002602.90749  28504028.6334
  28988005.969       30919.412 3    -12095.05549  28988007.9614
  25447534.906    11626544.436 7   9111077.62749  25447533.0904
 95  2 17 19 26  0.0160000  0  8 18 14 28 19 31 22 27 29
  25261360.437     2162559.848 7   1669165.20249  25261359.6524
  28052829.305    34036660.397 5  26598531.26349  28052829.9494
  28401782.594     1536524.552 5   1465030.93649  28401784.3404
  26176284.125     2287843.379 7    745650.41349  26176283.8204
  28480749.172     -331157.737 5   -396196.88149  28480750.8014
  28538258.891    28316855.050 5  22142773.43549  28538259.8164
  28988753.133       34846.089 3     -9035.24249  28988755.3014
  25466463.148    11726013.300 7   9188585.82149  25466461.2624
 95  2 17 19 26 30.0160000  0  8 18 14 28 19 31 22 27 29
  25269891.523     2207391.441 7   1704098.91949  25269890.5984
  28088470.976    34223960.105 5  26744478.95249  28088472.7464
  28409049.125     1574714.668 5   1494789.49949  28409050.2854
  26184076.406     2328795.268 7    777560.99949  26184075.8794
  28479967.516     -335264.629 5   -399396.99449  28479968.8164
  28572537.484    28496991.215 5  22283139.18849  28572539.2774
  28989531.680       38939.356 3     -5845.59449  28989534.3164
  25485483.922    11825968.799 7   9266473.21049  25485482.3874
 95  2 17 19 27  0.0160000  0  8 18 14 28 19 31 22 27 29
  25278501.164     2252635.498 7   1739354.03449  25278500.2384
  28124153.320    34411470.701 5  26890590.98349  28124155.0434
  28416406.711     1613375.614 5   1524914.95149  28416408.3634
  26191924.172     2370032.824 7    809694.18049  26191923.9844
  28479224.633     -339170.916 5   -402440.73549  28479227.3164
  28606860.797    28677361.482 5  22423687.38549  28606861.9804
  28990343.242       43203.036 3     -2523.19149  28990344.6134
  25504591.844    11926381.962 7   9344717.21949  25504590.4614
 95  2 17 19 27 30.0160000  0  8 18 14 28 19 31 22 27 29
  25287192.570     2298309.285 7   1774944.00849  25287191.5394
  28159873.805    34599181.284 5  27036858.83149  28159875.5044
  28423855.719     1652518.608 5   1555416.03349  28423856.0474
  26199825.539     2411555.617 7    842049.62549  26199825.0004
  28478520.250     -342863.663 5   -405318.09649  28478522.1254
  28641226.898    28857957.286 5  22564411.30449  28641228.0704
  28991189.875       47648.732 4       941.05949  28991191.9024
  25523785.101    12027242.288 7   9423309.66949  25523783.7774
 95  2 17 19 28  0.0160000  0  8 18 14 28 19 31 22 27 29
  25295963.172     2344396.893 7   1810856.44049  25295962.0824
  28195624.773    34787058.749 5  27183256.71949  28195626.3674
  28431394.039     1692132.562 5   1586284.09249  28431394.3794
  26207776.476     2453337.097 7    874606.64149  26207775.7734
  28477857.586     -346351.098 5   -408035.49049  28477859.7424
  28675633.836    29038764.306 5  22705299.81349  28675635.0784
  28992066.773       52252.933 4      4528.84749  28992067.3364
  25543061.094    12128538.589 7   9502241.83849  25543059.6644
 95  2 17 19 28 30.0160000  0  8 18 14 28 19 31 22 27 29
  25304814.789     2390913.396 7   1847103.07349  25304813.8054
  28231408.461    34975098.226 5  27329780.86149  28231410.0554
  28439024.516     1732231.083 5   1617529.75749  28439025.7584
  26215775.961     2495374.755 7    907363.28049  26215775.3634
  28477236.500     -349616.511 5   -410579.85549  28477238.3164
  28710082.469    29219796.286 5  22846363.62049  28710085.0004
  28992974.148       57020.091 5      8243.56749  28992975.7194
  25562422.078    12230281.913 7   9581522.34349  25562420.6134
 95  2 17 19 29  0.0160000  0  8 18 14 28 19 31 22 27 29
  25313752.055     2437878.649 7   1883699.38449  25313751.1644
  28267223.883    35163306.206 5  27476436.28949  28267224.9264
  28446747.555     1772815.587 5   1649154.08849  28446748.1414
  26223823.437     2537667.042 7    940318.34449  26223822.9224
  28476658.445     -352648.898 5   -412942.62349  28476660.5784
  28744578.680    29401074.392 5  22987619.20549  28744580.8364
  28993911.531       61951.009 5     12085.91649  28993913.9104
  25581867.781    12332469.005 7   9661148.63949  25581866.4694
 95  2 17 19 29 30.0160000  0  8 18 14 28 19 31 22 27 29
  25322774.773     2485294.019 7   1920646.43449  25322774.0124
  28303072.117    35351694.414 5  27623232.16049  28303074.0984
  28454562.609     1813885.169 5   1681156.43949  28454564.1804
  26231918.164     2580204.015 7    973464.05749  26231917.7894
  28476124.984     -355454.254 5   -415128.49849  28476127.0584
  28779121.531    29582598.290 5  23129066.31449  28779123.8164
  28994877.555       67023.523 5     16038.59649  28994878.4224
  25601399.109    12435106.870 7   9741126.18749  25601397.8204
 95  2 17 19 30  0.0160000  0  8 18 14 28 19 31 22 27 29
  25331885.625     2533171.886 7   1957953.87049  25331884.8634
  28338957.344    35540274.642 5  27770177.65349  28338959.9924
  28462471.250     1855449.433 5   1713544.22949  28462471.7304
  26240063.609     2623009.227 7   1006818.78449  26240063.3164
  28475634.406     -358032.582 5   -417137.41749  28475636.7854
  28813712.867    29764375.096 5  23270710.51249  28813715.5984
  28995868.375       72238.039 5     20101.91649  28995869.1724
  25621021.461    12538221.482 7   9821475.23049  25621020.1014
 95  2 17 19 30 30.0160000  0  8 18 14 28 19 31 22 27 29
  25341083.680     2581507.236 7   1995617.78449  25341082.8834
  28374878.461    35729038.122 5  27917265.93849  28374882.0004
  28470473.062     1897497.978 5   1746309.40249  28470474.1644
  26248260.047     2666080.900 7   1040381.15349  26248259.6374
  28475180.461     -360412.402 5   -418991.66049  28475182.2304
  28848348.711    29946385.118 5  23412536.41249  28848350.9494
  28996887.055       77584.148 5     24267.77549  28996887.8634
  25640731.383    12641798.321 7   9902184.44349  25640730.1054
 95  2 17 19 31  0.0160000  0  8 18 14 28 19 31 22 27 29
  25350367.195     2630292.816 7   2033632.52749  25350366.5514
  28410836.070    35917995.300 5  28064505.14249  28410838.6254
  28478567.781     1940036.816 5   1779456.63249  28478569.6214
  26256506.328     2709415.828 7   1074148.64649  26256505.7424
  28474766.547     -362588.920 5   -420687.47049  28474768.1644
  28883026.523    30128617.788 5  23554535.82449  28883027.9654
  28997930.117       83065.740 5     28539.20949  28997931.7584
  25660529.141    12745836.262 7   9983252.96249  25660527.7114
 95  2 17 19 31 30.0160000  0  8 18 14 28 19 31 22 27 29
  25359734.687     2679518.895 7   2071990.51849  25359733.8084
  28446828.297    36107133.900 5  28211885.71649  28446830.8054
  28486756.516     1983071.195 5   1812989.99949  28486757.6054
  26264802.117     2753010.566 7   1108118.59649  26264801.4374
  28474391.273     -364560.694 5   -422223.71449  28474392.6214
  28917741.539    30311048.755 5  23696689.73449  28917742.8634
  28998999.414       88685.097 5     32918.00249  28999001.4184
  25680416.672    12850345.569 7  10064688.77649  25680415.0784
 95  2 17 19 32  0.0160000  0  8 18 14 28 19 31 22 27 29
  25369185.961     2729184.740 7   2110691.18149  25369184.7774
  28482852.976    36296440.410 5  28359397.15349  28482854.4534
  28495040.258     2026603.782 5   1846911.57949  28495039.5314
  26273147.797     2796866.789 7   1142292.30049  26273147.0004
  28474058.383     -366305.347 5   -423583.01749  28474061.8404
  28952494.219    30493672.660 5  23838993.99949  28952496.2344
  29000096.484       94458.180 4     37416.58449  29000097.8794
  25700393.773    12955327.155 7  10146492.60149  25700392.1214
 95  2 17 19 32 30.0160000  0  8 18 14 28 19 31 22 27 29
  25378718.367     2779279.025 7   2149725.69649  25378716.9964
  28518908.273    36485914.486 5  28507039.14949  28518909.7504
  28503417.648     2070628.966 5
  26281539.367     2840964.373 7   1176654.07549  26281538.4534
  28473771.406     -367810.538 5   -424755.69949  28473774.2304
  28987282.922    30676487.228 5  23981446.82149  28987284.6914
  29001222.383      100375.937 4     42027.90149  29001224.5164
  25720458.469    13060767.591 7  10228653.96449  25720457.1444
 95  2 17 19 33  0.0160000  0  8 18 14 28 19 31 22 27 29
  25388336.148     2829819.818 7   2189108.14449  25388334.5784
  28554998.047    36675560.435 5  28654815.04449  28555000.2034
  28511892.672     2115161.018 5
  26289978.805     2885314.066 7   1211212.29549  26289977.8444
  28473539.937     -369030.390 5   -425706.05849  28473543.1484
  29022110.281    30859509.706 5  24124061.64849  29022113.3054
  29002377.445      106445.831 4     46757.77049  29002380.3514
  25740614.047    13166685.568 7  10311187.44849  25740612.6764
 95  2 17 19 33 30.0170000  0  8 18 14 28 19 31 22 27 29
  25398041.653     2880823.267 7   2228851.10149  25398040.2124
  28591115.817    36865361.929 5  28802712.15849  28591116.8134
  28520462.809     2160197.254 5     31599.67159  28520463.3374
  26298468.411     2929928.502 7   1245976.81549  26298467.7554
  28473362.794     -369959.784 5   -426430.08249  28473364.5984
  29056981.372    31042753.555 5  24266848.97649  29056982.6384
  29003558.145      112654.034 4     51595.42349  29003560.0914
  25760861.786    13273086.333 7  10394097.12049  25760860.3214
 95  2 17 19 34  0.0170000  0  8 18 14 28 19 31 22 27 29
  25407835.552     2932288.556 7   2268953.93649  25407834.0284
  28627259.825    37055303.463 5  28950718.39749  28627261.4424
  28529127.333     2205729.651 5     67079.55349  28529128.0954
  26307009.177     2974809.824 7   1280949.28549  26307008.7784
  28473241.388     -370599.060 5   -426928.03449  28473242.0564
  29091892.614    31226214.658 5  24409805.60649  29091894.9704
  29004765.216      118990.632 5     56533.13349  29004767.2434
  25781196.356    13379945.699 7  10477364.14849  25781194.8804
 95  2 17 19 34 30.0170000  0  8 18 14 28 19 31 22 27 29
  25417718.036     2984222.508 7   2309421.95849  25417716.6654
  28663433.099    37245398.231 5  29098844.02349  28663435.1734
  28537888.817     2251773.652 5    102958.06449  28537890.0014
  26315600.755     3019962.653 7   1316133.32349  26315600.3454
  28473174.231     -370952.726 5   -427203.48449  28473175.8254
  29126848.927    31409907.862 5  24552943.03049  29126850.8254
  29005998.255      125467.876 5     61580.43849  29005999.5794
  25801620.177    13487274.027 7  10560996.60549  25801618.6184
 95  2 17 19 35  0.0170000  0  8 18 14 28 19 31 22 27 29
  25427688.466     3036618.234 7   2350249.80449  25427687.3994
  28699634.239    37435634.794 5  29247080.14649  28699637.6264
  28546748.348     2298327.055 6    139233.48249  28546748.9344
  26324243.481     3065378.655 7   1351522.43249  26324242.9194
  28473158.575     -371032.991 5   -427265.87949  28473160.1104
  29161843.489    31593807.123 5  24696241.08549  29161845.1884
  29007258.153      132093.317 5     66743.24349  29007259.5834
  25822132.755    13595069.221 7  10644992.84949  25822131.2554
 95  2 17 19 35 30.0170000  0  8 18 14 28 19 31 22 27 29
  25437746.583     3089474.483 7   2391436.49949  25437745.5984
  28735864.802    37626028.227 5  29395438.50549  28735868.3294
  28555705.372     2345395.972 6    175910.64249  28555705.1734
  26332936.919     3111061.718 7   1387119.64149  26332936.5444
  28473193.075     -370851.818 5   -427124.58849  28473194.9274
  29196877.223    31777912.207 5  24839699.51249  29196879.1924
  29008547.044      138869.105 5     72023.15249  29008548.3094
  25842734.161    13703329.962 7  10729351.85349  25842732.8494
 95  2 17 19 36  0.0170000  0  8 18 14 28 19 31 22 27 29
  25447889.263     3142773.521 7   2432968.22349  25447888.1844
  28772128.669    37816591.235 5  29543929.01149  28772131.6694
  28564759.263     2392979.578 5    212988.83249  28564759.1574
  26341679.161     3157003.405 7   1422918.37949  26341678.7744
  28473276.020     -370419.632 5   -426787.68849  28473277.5094
  29231947.833    31962209.543 5  24983307.73849  29231950.0594
  29009865.677      145797.471 5     77421.99849  29009866.8484
  25863422.427    13812048.367 7  10814067.47649  25863421.2314
 95  2 17 19 36 30.0170000  0  8 18 14 28 19 31 22 27 29
  25458116.388     3196518.154 7   2474847.16749  25458115.2274
  28808423.856    38007327.283 5  29692554.35849  28808426.2824
  28573913.575     2441085.051 5    250473.65149  28573913.7984
  26350471.778     3203208.743 7   1458922.56349  26350471.4274
  28473405.599     -369733.478 5   -426252.89249  28473407.5794
  29267054.059    32146695.805 5  25127063.20049  29267056.0524
  29011214.763      152886.351 5     82945.89049  29011214.4704
  25884200.919    13921239.529 7  10899151.48749  25884199.8064
 95  2 17 19 37  0.0170000  0  8 18 14 28 19 31 22 27 29
  25468430.849     3250720.216 7   2517082.54749  25468429.5834
  28844752.942    38198235.619 5  29841313.93349  28844755.9194
  28583166.559     2489708.451 5    288362.05649  28583166.5484
  26359315.958     3249685.113 7   1495137.93349  26359315.4544
  28473586.005     -368784.813 5   -425513.60349  28473588.7594
  29302196.005    32331365.853 5  25270961.85149  29302199.2394
  29012592.005      160123.071 5     88584.98149  29012592.7904
  25905067.614    14030894.096 7  10984596.58849  25905066.1844
 95  2 17 19 37 30.0170000  0  8 18 14 28 19 31 22 27 29
  25478834.013     3305390.335 7   2559682.65549  25478832.9344
  28881112.731    38389306.624 5  29990200.25349  28881115.4384
  28592517.856     2538850.340 5    326654.45649  28592518.3374
  26368212.856     3296436.644 7   1531567.71849  26368211.8954
  28473815.911     -367575.611 5   -424571.27149  28473817.1534
  29337373.724    32516225.547 5  25415008.27149  29337376.1384
  29013995.067      167494.705 5     94329.22449  29013995.1144
  25926022.966    14141014.117 7  11070404.37349  25926021.1494
 95  2 17 19 38  0.0170000  0  8 18 14 28 19 31 22 27 29
  25489329.638     3360545.753 7   2602660.91849  25489328.6414
  28917504.270    38580542.770 5  30139215.25049  28917506.1224
  28601971.489     2588527.474 5    365363.92349  28601972.1344
  26377164.474     3343478.888 7   1568224.03449  26377163.8994
  28474098.778     -366091.371 5   -423414.62849  28474099.3994
  29372589.825    32701286.421 5  25559211.44349  29372590.6224
  29015428.091      175027.463 5    100199.01249  29015428.6534
  25947072.231    14251629.467 7  11156598.12649  25947070.6734
 95  2 17 19 38 30.0170000  0  8 18 14 28 19 31 22 27 29
  25499918.200     3416188.685 7   2646019.06549  25499917.3094
  28953923.325    38771922.710 5  30288342.30849  28953925.1064
  28611524.661     2638733.577 5    404485.58449  28611525.5754
  26386169.434     3390802.279 7   1605099.42149  26386169.0364
  28474432.622     -364335.397 5   -422046.27249  28474434.7314
  29407842.145    32886539.448 4  25703564.38749  29407843.4114
  29016891.395      182715.506 5    106189.79249  29016892.7904
  25968215.411    14362736.223 7  11243174.80049  25968213.7244
 95  2 17 19 39  0.0170000  0  8 18 14 28 19 31 22 27 29
  25510600.974     3472327.228 7   2689763.39549  25510599.8024
  28990366.856    38963434.097 5  30437571.77749  28990368.6024
  28621179.364     2689469.521 5    444020.10949  28621180.0094
  26395226.442     3438396.412 7   1642185.77649  26395226.1614
  28474820.106     -362301.826 5   -420461.60749  28474821.8884
  29443131.966    33071987.400 4  25848069.19449  29443132.8564
  29018382.380      190550.166 5    112294.78949  29018383.2244
  25989451.669    14474333.864 7  11330133.98049  25989450.1454
 95  2 17 19 39 30.0170000  0  8 18 14 28 19 31 22 27 29
  25521376.309     3528953.160 7   2733887.50649  25521375.3724
  29026830.442    39155053.787 5  30586885.63849  29026832.7864
  28630935.309     2740737.389 5    483969.11649  28630936.2474
  26404335.552     3486264.194 7   1679485.37049  26404334.8954
  28475258.575     -359995.050 5   -418664.06149  28475260.3334
  29478459.442    33257634.600 4  25992729.29649  29478461.6574
  29019901.434      198534.896 5    118516.73949  29019902.0204
  26010784.552    14586438.624 7  11417488.31349  26010783.2744
 95  2 17 19 40  0.0170000  0  8 18 14 28 19 31 22 27 29
  25532243.700     3586063.194 7   2778388.84149  25532242.8684
  29063312.130    39346767.078 5  30736272.41349  29063314.7554
  28640792.372     2792536.310 5    524331.96549  28640793.6844
  26413495.763     3534400.603 7   1716994.28049  26413495.1414
  28475750.966     -357407.256 5   -416647.53349  28475751.9734
  29513824.497    33443475.195 4  26137540.02849  29513827.5794
  29021449.114      206667.017 5    124853.54849  29021449.8884
  26032210.130    14699030.683 7  11505222.36549  26032208.6884
 95  2 17 19 40 30.0170000  0  8 18 14 28 19 31 22 27 29
  25543205.942     3643669.026 7   2823276.51249  25543205.0874
  29099811.372    39538569.817 5  30885728.93549  29099813.5754
  28650752.395     2844874.615 5    565115.12849  28650753.0404
  26422705.333     3582797.842 7   1754706.42349  26422704.5014
  28476302.614     -354510.409 5   -414390.18049  28476302.9314
  29549223.880    33629502.626 4  26282496.39649  29549225.6264
  29023021.809      214938.769 5    131299.15949  29023023.2514
  26053726.739    14812101.357 7  11593329.35949  26053725.2634
 95  2 17 19 41  0.0170000  0  8 18 14 28 19 31 22 27 29
  25554261.770     3701766.664 7   2868547.40749  25554260.7744
  29136328.817    39730467.581 5  31035259.44049  29136331.1144
  28660815.942     2897757.057 5    606322.27549  28660816.7164
  26431964.895     3631457.771 7   1792623.26649  26431964.0404
  28476914.481     -351295.886 5   -411885.30249  28476915.7824
  29584656.575    33815704.519 4  26427588.69848  29584659.5404
  29024623.122      223348.679 5    137852.39049  29024624.4934
  26075336.302    14925661.919 7  11681818.07849  26075334.8024
 95  2 17 19 41 30.0170000  0  8 18 14 28 19 31 22 27 29
  25565408.036     3760340.233 7   2914189.16049  25565407.2274
  29172866.333    39922473.422 5  31184874.19249  29172868.5014
  28670981.013     2951179.804 5    647950.46149  28670982.2784
  26441274.809     3680380.945 7   1830745.22249  26441273.8484
  28477585.864     -347767.671 5   -409135.98149  28477587.2124
  29620119.177    34002054.882 4  26572796.66849  29620123.4194
  29026248.856      231895.686 5    144512.46349  29026249.7824
  26097037.294    15039702.377 7  11770680.74949  26097036.1814
 95  2 17 19 42  0.0170000  0  8 18 14 28 19 31 22 27 29
  25576644.989     3819390.292 7   2960202.20749  25576644.0284
  29209428.794    40114613.731 5  31334593.72149  29209430.8564
  28681249.403     3005143.501 5    690000.17149  28681250.5634
  26450632.848     3729556.124 7   1869063.54949  26450632.0164
  28478319.598     -343910.078 5   -406130.00149  28478321.1344
  29655606.567    34188542.082 4
  29027900.919      240577.012 5    151277.17449  29027901.7634
  26118826.302    15154202.526 7  11859901.62949  26118825.1064
 95  2 17 19 42 30.0170000  0  8 18 14 28 19 31 22 27 29
  25587971.989     3878914.283 7   3006584.54449  25587971.0404
  29246022.809    40306913.622 5  31484437.61849  29246025.8334
  28691623.145     3059651.796 5    732474.25549  28691623.5444
  26460040.942     3778998.379 7   1907589.99049  26460040.1104
  28479115.763     -339722.550 5   -402866.93549  28479117.1454
  29691119.286    34375169.319 4     14542.01156  29691119.4504
  29029581.036      249408.122 5    158158.60649  29029583.1344
  26140706.005    15269181.479 7  11949495.60149  26140704.6574
 95  2 17 19 43  0.0180000  0  8 18 14 28 19 31 22 27 29
  25599389.283     3938915.122 7   3053338.46049  25599388.3814
  29282652.197    40499404.249 5  31634430.09649  29282656.3694
  28702101.338     3114715.950 5    775381.48449  28702102.1704
  26469505.346     3828731.528 7   1946343.09449  26469504.5604
  28479973.916     -335214.862 5   -399354.35849  28479975.2524
  29726666.103    34561968.298 3    160099.54048  29726667.7674
  29031294.549      258411.736 5    165174.46849  29031296.2954
  26162679.307    15384649.916 7  12039470.98849  26162677.9124
 95  2 17 19 43 30.0180000  0  8 18 14 28 19 31 22 27 29
  25610898.322     3999393.633 7   3100464.57849  25610897.3494
  29319312.299    40692054.732 4  31784547.15049  29319316.2714
  28712684.260     3170330.334 5    818717.44949  28712684.2604
  26479023.603     3878751.306 7   1985319.53749  26479022.6314
  28480893.174     -330382.358 5   -395588.71049  28480894.7094
  29762246.299    34748940.217 3    305791.92449  29762247.5294
  29033041.525      267586.099 5    172323.39449  29033042.8734
  26184740.213    15500582.704 7  12129808.21049  26184738.7714
 95  2 17 19 44  0.0180000  0  8 18 14 28 19 31 22 27 29
  25622498.877     4060354.813 7   3147966.80449  25622497.8344
  29355997.955    40884837.451 4  31934767.24049  29356001.2604
  28723371.697     3226492.881 5    862480.55749  28723371.3574
  26488595.252     3929050.112 7   2024513.41349  26488594.4434
  28481873.455     -325228.147 5   -391572.34449  28481875.2604
  29797860.736    34936096.237 3    451627.68949  29797865.3424
  29034819.103      276928.332 5    179603.09149  29034818.1544
  26206889.236    15616976.202 7  12220504.43249  26206887.9124
 95  2 17 19 44 30.0180000  0  8 18 14 28 19 31 22 27 29
  25634191.260     4121800.012 7   3195846.18449  25634190.3574
  29392702.705    41077725.690 4  32085069.57049  29392707.8614
  28734163.994     3283207.736 5    906674.05049  28734163.8074
  26498218.502     3979620.701 7   2063919.07349  26498217.8814
  28482913.822     -319762.035 5   -387312.92649  28482915.2644
  29833510.291    35123430.810 3    597602.59449  29833510.9944
  29036628.728      286439.577 5    187014.52649  29036628.9864
  26229129.252    15733849.506 7  12311574.52749  26229128.1034
 95  2 17 19 45  0.0180000  0  8 18 14 28 19 31 22 27 29
  25645978.666     4183742.296 7   3244112.90149  25645977.5534
  29429422.213    41270686.203 4  32235428.20849  29429426.9714
  28745062.447     3340478.932 5    951301.02749  28745062.1194
  26507889.494     4030445.108 7   2103522.50749  26507888.8144
  28484015.986     -313969.567 5   -382799.21749  28484016.5724
  29869190.986    35310943.672 3    743716.39849  29869190.0964
  29038469.353      296109.936 5    194549.92549  29038469.5174
  26251461.181    15851204.278 7  12403019.79149  26251459.8344
 95  2 17 19 45 30.0180000  0  8 18 14 28 19 31 22 27 29
  25657863.580     4246197.023 7   3292778.92349  25657862.3384
  29466151.486    41463698.139 4  32385826.89949  29466155.1194
  28756066.385     3398308.544 5    996363.13649  28756067.3464
  26517608.916     4081519.384 7   2143320.64649  26517608.3654
  28485183.642     -307834.954 5   -378018.91349  28485185.8694
  29904906.017    35498619.139 3    889956.96347  29904906.9554
  29040338.408      305930.995 5    202202.76149  29040338.3264
  26273884.705    15969041.670 7  12494841.12249  26273883.5804
 95  2 17 19 46  0.0180000  0  8 18 14 28 19 31 22 27 29
  25669848.439     4309179.375 7   3341856.08049  25669847.3034
  29502891.885    41656769.257 4  32536271.73249  29502895.9984
  28767178.392     3456701.034 5   1041863.84449  28767179.3064
  26527374.228     4132838.696 7   2183309.72749  26527373.5144
  28486415.752     -301361.590 5   -372974.65349  28486416.3734
  29940648.955    35686449.961 2   1036318.67045  29940658.9434
  29042237.346      315911.994 5    209980.22649  29042238.3774
  26296401.892    16087368.395 7  12587043.74549  26296400.6624
 95  2 17 19 46 30.0180000  0  8 18 14 28 19 31 22 27 29
  25681934.994     4372694.951 7   3391348.74449  25681933.9984
  29539648.705    41849923.736 4  32686781.47949  29539652.7604
  28778397.650     3515661.481 6   1087807.11649  28778398.0844
  26537188.681     4184412.587 7   2223497.18549  26537188.1424
  28487713.900     -294539.633 5   -367658.72749  28487714.5454
  29976421.564    35874443.778 2   1182807.25748  29976419.2444
  29044167.932      326061.329 5    217888.87249  29044168.1194
  26319012.971    16206191.071 7  12679632.83249  26319011.7524
 95  2 17 19 47  0.0180000  0  8 18 14 28 19 31 22 27 29
  25694121.369     4436736.263 7   3441251.07449  25694120.2914
  29576420.939    42043163.772 5  32837357.94049  29576425.1704
  28789724.346     3575179.143 6   1134184.59149  28789724.3694
  26547051.533     4236243.448 7   2263884.88249  26547051.0994
  28489079.541     -287363.049 6   -362066.51249  28489080.1504
  30012226.385    36062594.272 2   1329417.91147  30012225.5644
  29046130.205      336371.853 5    225923.11049  29046130.5924
  26341713.713    16325483.186 7  12772587.72149  26341712.5174
 95  2 17 19 47 30.0180000  0  8 18 14 28 19 31 22 27 29
  25706408.463     4501303.729 7   3491563.38949  25706407.4434
  29613215.361    42236515.251 5  32988021.22549  29613218.4904
  28801156.369     3635261.857 5   1181002.35049  28801157.1074
  26556966.627     4288346.341 7   2304484.55349  26556966.3464
  28490513.463     -279826.927 6   -356194.11649  28490515.5024
  30048058.447    36250889.127 2   1476141.01645  30048060.3104
  29048125.088      346857.728 5    234093.98349  29048125.1234
  26364504.182    16445248.099 7  12865911.01849  26364502.8814
 95  2 17 19 48  0.0180000  0  8 18 14 28 19 31 22 27 29
  25718792.924     4566384.785 7   3542275.90349  25718791.8344
  29650031.674    42429987.021 5  33138778.22849  29650034.3814
  28812697.471     3695907.714 5   1228258.91049  28812697.9044
  26566932.205     4340715.019 7   2345291.33549  26566931.5724
  28492016.408     -271930.237 6   -350040.76649  28492018.1664
  30083917.025    36439322.633 2   1622972.18646  30083924.4004
  29050154.135      357519.792 5    242402.15049  29050155.9864
  26387385.580    16565491.656 7  12959607.28649  26387384.0454
 95  2 17 19 48 30.0180000  0  8 18 14 28 19 31 22 27 29
  25731270.869     4631956.918 7   3593371.07349  25731269.8384
  29686871.502    42623580.355 4  33289629.95549  29686876.5994
  28824346.619     3757121.227 5   1275957.82449  28824346.2674
  26576950.267     4393360.501 7   2386313.81249  26576949.4594
  28493590.705     -263654.502 6   -343592.05649  28493591.7484
  30119801.127    36627891.867 3
  29052212.557      368342.785 5    250835.70249  29052214.1974
  26410360.041    16686221.283 7  13053682.30349  26410358.3534
 95  2 17 19 49  0.0180000  0  8 18 14 28 19 31 22 27 29
  25743842.682     4698021.637 7   3644850.07749  25743841.5454
  29723730.236    42817277.380 4  33440562.50849  29723734.5724
  28836102.994     3818906.463 5   1324102.21549  28836103.4044
  26587020.041     4446278.894 7   2427548.95149  26587019.3614
  28495236.807     -255006.920 6   -336853.59049  28495237.2524
  30155708.971    36816592.318 2
  29054301.353      379316.903 5    259387.03349  29054303.2174
  26433427.728    16807444.315 7  13148141.79149  26433426.4864
 95  2 17 19 49 30.0180000  0  8 18 14 28 19 31 22 27 29
  25756510.291     4764589.315 7   3696720.99249  25756508.9084
  29760608.799    43011070.735 4  33591570.08049  29760613.6744
  28847969.853     3881264.974 5   1372693.30549  28847970.6854
  26597142.314     4499471.548 7   2468997.79949  26597141.8814
  28496951.111     -245993.165 5   -329829.83449  28496952.8104
  30191642.916    37005429.542 2
  29056415.635      390427.948 5    268045.04549  29056417.3694
  26456591.150    16929169.260 7  13242992.37949  26456590.0964
 95  2 17 19 50  0.0180000  0  8 18 14 28 19 31 22 27 29
  25769276.580     4831677.066 7   3748997.15949  25769275.4434
  29797507.088    43204971.006 5  33742660.97849  29797510.1114
  28859947.596     3944213.412 5   1421744.09449  28859948.6744
  26607320.299     4552957.150 7   2510674.91649  26607319.9124
  28498738.244     -236602.518 6   -322512.38549  28498739.7674
  30227611.408    37194441.638 2
  29058556.767      401674.762 5    276808.84449  29058557.3654
  26479852.228    17051407.772 7  13338243.14449  26479851.3384
 95  2 17 19 50 30.0180000  0  8 18 14 28 19 31 22 27 29
  25782139.877     4899274.517 7   3801670.49549  25782138.5884
  29834421.127    43398950.669 5  33893813.72449  29834425.0064
  28872037.783     4007742.221 5   1471247.08649  28872037.7604
  26617552.635     4606728.734 7   2552574.87049  26617552.1424
  28500594.010     -226853.056 6   -314915.33949  28500595.3344
  30263609.799    37383617.800 2    113021.20957  30263607.4084
  29060719.775      413042.042 5    285666.51749  29060720.1504
  26503208.767    17174145.177 7  13433882.65849  26503207.6664
 95  2 17 19 51  0.0180000  0  8 18 14 28 19 31 22 27 29
  25795103.986     4967401.059 7   3854756.11249  25795102.7914
  29871345.236    43592991.026 4  34045013.80049  29871349.1504
  28884235.822     4071843.485 5   1521196.18549  28884235.5064
  26627838.142     4660779.878 7   2594692.67149  26627837.6154
  28502514.455     -216759.545 6   -307050.20649  28502514.7134
  30299638.353       56805.76311    260545.46445  30299637.8264
  29062908.189      424539.583 5    294625.69849  29062908.6934
  26526656.392    17297365.253 7  13529898.28849  26526655.2444
 95  2 17 19 51 30.0180000  0  8 18 14 28 19 31 22 27 29
  25808168.932     5036058.079 7   3908255.09149  25808167.6784
  29908280.783    43787090.206 3  34196259.67648  29908285.7644
  28896544.010     4136521.382 6   1571594.60549  28896544.1744
  26638176.361     4715107.315 7   2637025.76049  26638175.9744
  28504504.049     -206301.413 6   -298900.94649  28504504.6354
  30335688.892          -6.32512    408172.70446  30335690.8494
  29065122.017      436177.794 5    303694.49249  29065122.3224
  26550195.252    17421062.222 7  13626285.51649  26550194.2324
 95  2 17 19 52  0.0180000  0  7 18 14 28 19 31 27 29
  25821329.861     5105217.866 7   3962145.82949  25821328.4784
  29945227.674    43981241.361 3  34347546.03049  29945230.5574
  28908960.244     4201774.778 5   1622441.43949  28908959.9744
  26648564.939     4769699.369 7   2679565.03649  26648564.4124
  28506563.932     -195477.678 6   -290466.79549  28506565.8184
  29067366.596      447970.881 5    312883.96749  29067366.4674
  26573824.924    17545235.215 7  13723043.66949  26573823.5884
 95  2 17 19 52 30.0180000  0  7 18 14 28 19 31 27 29
  25834584.658     5174872.957 7   4016422.51949  25834583.2874
  29982180.603    44175427.982 4  34498860.05149  29982184.1314
  28921485.877     4267597.159 5   1673731.65649  28921485.7244
  26658999.994     4824535.387 7   2722294.41149  26658999.4674
  28508694.658     -184279.102 6   -281740.56049  28508695.4904
  29069640.174      459920.570 5    322195.45049  29069641.0884
  26597543.689    17669877.438 7  13820167.46249  26597542.3064
 95  2 17 19 53  0.0190000  0  7 18 14 28 19 31 27 29
  25847936.569     5245037.262 7   4071096.00749  25847935.0934
  30019142.991    44369665.062 4  34650213.40149  30019145.3934
  28934121.397     4333998.293 5   1725472.82749  28934121.4684
  26669479.913     4879608.737 7   2765208.71749  26669479.3974
  28510900.882     -172684.628 6   -272705.82449  28510902.0184
  29071944.585      472029.531 5    331631.03949  29071944.6204
  26621353.100    17794997.002 7  13917663.20349  26621351.8934
 95  2 17 19 53 30.0190000  0  7 18 14 28 19 31 27 29
  25861380.866     5315688.293 7   4126148.76149  25861379.3434
  30056113.702    44563950.360 3  34801604.29549  30056118.5424
  28946867.593     4400973.895 5   1777661.63749  28946867.2764
  26680002.304     4934905.338 7   2808296.98549  26680001.7184
  28513183.554     -160688.369 6   -263358.00749  28513184.8784
  29074276.765      484286.464 5    341181.95649  29074277.1284
  26645252.952    17920589.962 7  14015527.82549  26645251.7804
 95  2 17 19 54  0.0190000  0  7 18 14 28 19 31 27 29
  25874921.343     5386843.850 7   4181594.65449  25874920.1004
  30093096.710    44758302.402 3  34953047.20149  30093100.3544
  28959722.249     4468529.620 5   1830302.49849  28959721.6984
  26690570.538     4990442.586 7   2851572.76449  26690569.9524
  28515544.296     -148283.319 6   -253691.63849  28515545.3864
  29076637.444      496693.748 5    350850.01549  29076638.9444
  26669244.835    18046669.264 7  14113771.42049  26669243.7574
 95  2 17 19 54 30.0190000  0  7 18 14 28 19 31 27 29
  25888562.702     5458531.471 7   4237455.14149  25888561.6124
  30130092.085    44952707.645 3  35104531.57649  30130097.8394
  28972687.632     4536666.457 5   1883396.14449  28972686.8934
  26701186.929     5046229.141 7   2895042.81149  26701186.1794
  28517982.382     -135467.689 6   -243705.32849  28517983.4834
  29079027.054      509252.213 5    360635.84649  29079028.1084
  26693328.054    18173227.452 7  14212388.16949  26693326.6474
 95  2 17 19 55  0.0190000  0  7 18 14 28 19 31 27 29
  25902305.952     5530752.997 7   4293731.66549  25902304.9564
  30167096.991    45147170.531 3  35256060.85249  30167100.2374
  28985764.944     4605385.158 5   1936943.21449  28985765.6824
  26711853.444     5102282.826 7   2938721.00649  26711852.6944
  28520497.835     -122254.589 6   -233409.28349  28520498.6554
  29081447.358      521968.872 5    370544.97049  29081447.4994
  26717502.640    18300266.677 7  14311379.75249  26717501.2334
 95  2 17 19 55 30.0190000  0  7 18 14 28 19 31 27 29
  25916151.288     5603508.282 7   4350424.10749  25916150.1284
  30204111.061    45341682.371 3  35407628.26849  30204116.0184
  28998952.616     4674686.150 5   1990943.98849  28998953.1674
  26722573.421     5158616.944 7   2982617.72449  26722572.5894
  28523085.796     -108652.290 6   -222809.97149  28523086.0304
  29083899.468      534856.728 5    380587.52249  29083899.6434
  26741770.296    18427795.101 7  14410752.52949  26741768.8894
 95  2 17 19 56  0.0190000  0  7 18 14 28 19 31 27 29
  25930101.866     5676820.178 7   4407550.25849  25930100.6714
  30241134.202    45536236.602 3  35559228.73549  30241138.1404
  29012253.843     4744586.514 5   2045411.83149  29012254.7454
  26733349.147     5215243.904 7   3026742.62949  26733348.3974
  28525751.061      -94645.876 6   -211895.75449  28525751.4364
  29086388.171      547933.401 5    390777.16849  29086388.7924
  26766134.233    18555827.440 7  14510517.97649  26766132.7804
 95  2 17 19 56 30.0190000  0  7 18 14 28 19 31 27 29
  25944151.319     5750650.168 7   4465080.12349  25944149.9014
  30278158.085       38908.18213  35710838.82049  30278165.3314
  29025666.124     4815067.569 5   2100332.13349  29025666.7574
  26744176.140     5272139.185 7   3071076.61849  26744175.7184
  28528488.468      -80264.992 6   -200689.72949  28528489.1594
  29088906.741      561167.465 5    401089.46049  29088907.3274
  26790590.694    18684345.407 7  14610661.83349  26790589.2644
 95  2 17 19 57  0.0190000  0  7 18 14 28 19 31 27 29
  25958299.069     5824996.059 8   4523011.98349  25958297.4754
  30315189.765      233509.374 3  35862475.88648  30315191.8864
  29039190.491     4886138.022 5   2155711.74249  29039190.5614
  26755053.546     5329300.058 7   3115617.56549  26755052.9604
  28531298.616      -65493.142 6   -189179.05749  28531298.9444
  29091453.655      574551.373 5    411518.51249  29091454.4404
  26815143.100    18813369.504 7  14711200.07149  26815141.8234
 95  2 17 19 57 30.0190000  0  7 18 14 28 19 31 27 29
  25972549.241     5899881.167 7   4581364.01349  25972547.8004
  30352230.124       19459.18213  36014143.78349  30352236.0654
  29052830.233     4957815.963 5   2211564.67849  29052829.7884
  26765982.858     5386734.542 7   3160371.71549  26765982.0264
  28534188.913      -50300.744 6   -177340.68849  28534189.9684
  29094030.069      588094.238 5    422071.44349  29094031.5464
  26839792.280    18942903.842 7  14812135.90749  26839791.1434
 95  2 17 19 58  0.0190000  0  7 18 14 28 19 31 27 29
  25986898.327     5975286.126 7   4640121.12649  25986896.9444
  30389275.796      110311.38013  36165837.70949  30389280.0504
  29066582.975     5030085.988 6   2267878.99949  29066582.4134
  26776961.718     5444427.738 7   3205327.46349  26776960.5574
  28537158.015      -34697.245 6   -165181.98749  28537159.0814
  29096632.186      601771.497 5    432729.07949  29096633.0544
  26864534.382    19072922.842 7  14913449.39849  26864533.4684
 95  2 17 19 58 30.0190000  0  7 18 14 28 19 31 27 29
  26001345.889     6051210.136 7   4699282.69349  26001344.6004
  30426330.108      305027.630 3  36317564.42249  30426334.0464
  29080446.765     5102938.637 6   2324647.32149  29080446.9404
  26787988.155     5502373.063 7   3250479.67449  26787987.3474
  28540204.186      -18694.007 6   -152711.79149  28540204.3504
  29099259.655      615575.027 5    443485.12149  29099261.0854
  26889365.741    19203412.266 7  15015129.45549  26889364.5814
 95  2 17 19 59  0.0190000  0  7 18 14 28 19 31 27 29
  26015900.335     6127692.934 7   4758879.67949  26015898.9404
  30463393.233      499796.445 3  36469332.09749  30463397.4644
  29094424.171     5176392.392 5   2381884.05349  29094424.3234
  26799063.897     5560577.879 7   3295834.08249  26799063.0774
  28543330.788       -2262.627 6   -139907.98149  28543331.1404
  29101916.983      629540.838 5    454367.60749  29101917.9324
  26914287.671    19334376.865 7  15117179.76849  26914286.6514
 95  2 17 19 59 30.0190000  0  7 18 14 28 19 31 27 29
  26030559.960     6204729.658 8   4818908.29249  26030558.5544
  30500460.538      694592.613 3  36621121.05849  30500465.0154
  29108513.507     5250432.563 5   2439577.71249  29108513.8584
  26810186.960     5619029.398 7   3341380.72949  26810186.0814
  28546535.413       14581.512 6   -126782.54449  28546536.1864
  29104605.624      643666.112 5    465374.37049  29104606.1754
  26939295.257    19465795.376 7  15219583.79149  26939294.1554
 95  2 17 20  0  0.0190000  0  7 18 14 28 19 31 27 29
  26045324.889     6282320.435 8   4879368.63649  26045323.3544
  30537536.233      889421.404 3  36772935.48949  30537542.8434
  29122714.796     5325063.739 5   2497731.89149  29122715.3114
  26821356.108     5677723.900 7   3387116.71549  26821355.0774
  28549822.241       31852.971 6   -113324.14949  28549822.2534
  29107323.014      657946.669 5    476502.12449  29107323.1554
  26964393.882    19597689.225 7  15322358.20249  26964392.9444
 95  2 17 20  0 30.0190000  0  7 18 14 28 19 31 27 29
  26060197.343     6360474.595 8   4940267.98349  26060195.8074
  30574614.733     1084272.692 3  36924767.37349  30574620.0544
  29137030.983     5400292.680 5   2556351.87149  29137030.6084
  26832572.483     5736666.202 7   3433045.79149  26832571.7454
  28553192.725       49568.362 6    -99519.83249  28553193.5464
  29110071.554      672387.062 5    487754.44649  29110071.6594
  26989583.475    19730060.781 7  15425504.85149  26989582.2804
 95  2 17 20  1  0.0190000  0  7 18 14 28 19 31 27 29
  26075172.499     6439169.059 8   5001588.34249  26075170.8354
  30611695.233     1279124.425 3  37076599.65449  30611699.8974
  29151459.304     5476114.113 5   2615433.54149  29151458.8704
  26843836.147     5795856.565 7   3479168.17149  26843835.6904
  28556648.147       67726.176 6    -85370.76549  28556649.0734
  29112847.389      686977.684 5    499123.82349  29112847.6714
  27014865.241    19862916.574 7  15529028.82449  27014864.1514
 95  2 17 20  1 30.0190000  0  7 18 14 28 19 31 27 29
  26090246.304     6518383.116 8   5063313.58449  26090244.9444
  30648774.483     1473981.579 4  37228436.13749  30648778.4094
  29166000.499     5552530.668 5   2674978.92749  29166001.0614
  26855148.116     5855302.386 7   3525489.60749  26855147.5894
  28560187.468       86325.985 6    -70877.31049  28560188.0894
  29115650.272      701708.506 5    510602.44549  29115650.5894
  27040240.140    19996263.906 7  15632935.81649  27040239.0264
 95  2 17 20  2  0.0200000  0  7 18 14 28 19 31 27 29
  26105417.035     6598105.636 8   5125435.02849  26105415.6174
  30685855.894     1668843.478 4  37380276.32949  30685860.7234
  29180655.793     5629542.408 5   2734988.10149  29180655.7234
  26866508.902     5915002.275 7   3572009.01549  26866508.1174
  28563808.973      105356.272 6    -56048.41549  28563809.1484
  29118477.973      716566.204 5    522179.90849  29118478.7934
  27065707.723    20130094.801 7  15737219.60149  27065706.4224
 95  2 17 20  2 30.0200000  0  6 18 28 19 31 27 29
  26120682.277     6678325.152 8   5187943.74049  26120680.8124
  29195422.590     5707142.052 5   2795455.36349  29195423.4804
  26877916.621     5974952.692 7   3618723.63849  26877915.8944
  28567508.621      124795.827 6    -40900.61849  28567508.3164
  29121329.644      731554.220 5    533858.94349  29121330.1484
  27091263.465    20264393.639 7  15841868.01949  27091262.1174
 95  2 17 20  3  0.0200000  0  7 18  2 28 19 31 27 29
  26136045.660     6759060.253 8   5250854.20449  26136044.3594
  30797597.574       -3652.64815
  29210302.691     5785339.493 5   2856388.44649  29210303.8754
  26889373.598     6035157.576 7   3665636.55249  26889373.0704
  28571285.144      144644.292 6    -25434.20149  28571285.1804
  29124206.738      746671.393 5    545638.62549  29124207.6404
  27116911.566    20399173.708 7  15946891.42449  27116910.3364
 95  2 17 20  3 30.0200000  0  7 18  2 28 19 31 27 29
  26151509.816     6840325.510 8   5314177.78249  26151508.4804
  30795539.012      -14467.184 5        -0.52359  30795542.7974
  29225295.473     5864128.927 5   2917782.79249  29225295.8944
  26900877.199     6095609.319 7   3712741.82749  26900876.4024
  28575140.527      164905.514 6     -9646.16749  28575141.1484
  29127107.191      761914.152 5    557516.15049  29127107.5784
  27142647.238    20534413.309 7  16052272.90749  27142645.7624
 95  2 17 20  4  0.0200000  0  7 18  2 28 19 31 27 29
  26167076.519     6922128.405 8   5377920.29449  26167074.9614
  30793521.473      -25071.103 4     -8263.13549  30793525.0474
  29240398.910     5943502.425 5   2979632.27649  29240400.0474
  26912427.121     6156307.062 7   3760038.78449  26912426.2544
  28579073.801      185577.844 6      6462.21549  28579074.3404
  29130030.660      777278.219 5    569488.20849  29130031.1174
  27168469.293    20670110.310 7  16158010.79749  27168467.8284
 95  2 17 20  4 30.0200000  0  7 18  2 28 19 31 27 29
  26182747.762     7004481.469 8   5442091.50549  26182746.0044
  30791544.527      -35459.587 4    -16357.83349  30791548.1834
  29255615.738     6023466.353 5   3041941.79549  29255616.2654
  26924026.543     6217262.952 7   3807536.89849  26924025.8164
  28583090.762      206685.885 6     22910.10449  28583091.3484
  29132980.785      792783.859 5    581570.57549  29132981.1724
  27194381.863    20806281.085 7  16264117.86249  27194380.7384
 95  2 17 20  5  0.0200000  0  7 18  2 28 19 31 27 29
  26198523.074     7087381.978 8   5506689.30049  26198521.7974
  30789605.449      -45644.741 4    -24294.14049  30789609.0584
  29270944.152     6104015.428 5   3104707.30549  29270945.4064
  26935674.223     6278470.657 7   3855231.22449  26935673.6834
  28587192.098      228236.557 6     39702.89149  28587192.5314
  29135958.496      808431.076 5    593763.29049  29135958.3794
  27220380.387    20942905.256 7  16370578.22249  27220379.4024
 95  2 17 20  5 30.0200000  0  7 18  2 28 19 31 27 29
  26214400.793     7170818.806 8   5571705.00549  26214399.6334
  30787703.363      -55640.460 3    -32082.80949  30787706.5514
  29286385.027     6185156.676 5   3167934.23349  29286385.5784
  26947369.808     6339932.365 7   3903123.48149  26947369.0704
  28591379.824      250245.215 6     56852.55449  28591380.3164
  29138966.691      824241.821 5    606083.41449  29138967.7234
  27246466.652    21079989.407 7  16477397.01049  27246465.7624
 95  2 17 20  6  0.0200000  0  7 18  2 28 19 31 27 29
  26230377.433     7254778.046 8   5637127.78649  26230376.3674
  30785835.043      -65462.518 3    -39736.16449  30785837.2934
  29301937.410     6266890.333 5   3231622.78849  29301938.5474
  26959111.824     6401637.910 7   3951205.73749  26959111.0744
  28595655.316      272711.103 6     74358.47249  28595655.8904
  29142004.738      840207.967 5    618524.62849  29142005.3484
  27272641.871    21217540.432 7  16584579.59449  27272640.9804
 95  2 17 20  6 30.0200000  0  7 18  2 28 19 31 27 29
  26246453.308     7339257.596 7   5702956.00149  26246452.2194
  30783996.949      -75114.963 3    -47257.35349  30784001.4024
  29317603.519     6349210.405 5   3295768.26549  29317604.2934
  26970898.723     6463574.622 7   3999468.11849  26970897.8084
  28600016.621      295626.911 6     92215.00849  28600016.9264
  29145071.402      856322.532 5    631081.48949  29145072.2234
  27298901.363    21355533.273 7  16692106.44949  27298899.6404
 95  2 17 20  7  0.0200000  0  7 18  2 28 19 31 27 29
  26262630.191     7424267.107 8   5769197.17449  26262629.1014
  30782193.199      -84600.415 3    -54648.38849  30782197.2424
  29333381.308     6432124.932 5   3360376.95249  29333382.1054
  26982728.449     6525742.683 7   4047910.77049  26982727.8634
  28604463.355      318999.947 6    110427.82449  28604464.1644
  29148165.840      872581.533 6    643750.87749  29148165.7694
  27325245.340    21493973.158 7  16799981.64849  27325243.7114
 95  2 17 20  7 30.0200000  0  7 18  2 28 19 31 27 29
  26278909.043     7509813.535 7   5835856.72749  26278908.3054
  30780416.324      -93933.931 3    -61921.04549  30780419.1134
  29349271.621     6515625.721 5   3425442.46849  29349272.2304
  26994601.808     6588138.897 7   4096531.20349  26994601.5154
  28608999.012      342833.631 6    128999.56949  28608999.7624
  29151284.410      888972.030 6    656522.74549  29151284.4694
  27351675.707    21632868.216 7  16908211.52449  27351674.4414
 95  2 17 20  8  0.0200000  0  7 18  2 28 19 31 27 29
  26295293.121     7595911.733 7   5902946.23449  26295292.1014
  30778671.176     -103103.556 3    -69065.98149  30778671.0354
  29365272.730     6599711.684 5   3490963.96649  29365272.9654
  27006521.488     6650776.557 7   4145339.77549  27006520.9024
  28613623.652      367133.065 6    147934.24949  28613623.2774
  29154427.191      905483.874 6    669389.15549  29154427.5784
  27378191.543    21772209.511 7  17016789.12749  27378190.2424
 95  2 17 20  8 30.0200000  0  7 18  2 28 19 31 27 29
  26311782.738     7682565.238 8   5970468.45049  26311781.4144
  30776962.051     -112080.941 3    -76061.09449  30776964.9694
  29381384.894     6684385.243 5   3556943.34049  29381386.0664
  27018490.098     6713673.033 7   4194350.02249  27018489.6174
  28618337.410      391905.706 6    167237.67049  28618337.0824
  29157591.996      922118.800 5    682351.48549  29157592.7814
  27404793.449    21911999.507 7  17125716.36349  27404791.9844
 95  2 17 20  9  0.0200000  0  7 18  2 28 19 31 27 29
  26328375.808     7769761.860 8   6038413.86549  26328374.3904
  30775291.379     -120857.141 3    -82899.45749  30775296.0194
  29397610.512     6769647.650 5   3623381.59449  29397611.0864
  27030509.113     6776831.687 7   4243564.56449  27030508.6334
  28623143.652      417165.913 6    186921.00649  28623143.8054
  29160782.035      938884.391 6    695415.62849  29160782.8204
  27431483.027    22052255.315 7  17235006.56249  27431481.5514
 95  2 17 20  9 30.0200000  0  7 18  2 28 19 31 27 29
  26345066.504     7857472.609 8   6106759.90049  26345064.9574
  30773659.957     -129431.225 3    -89580.33749  30773663.9414
  29413944.988     6855488.040 5   3690270.19549  29413945.7264
  27042576.824     6840249.133 7   4292980.76249  27042576.4024
  28628041.043      442903.023 6    206975.95349  28628041.7234
  29163997.988      955782.329 6    708582.88049  29163998.7264
  27458258.769    22192963.697 7  17344649.41949  27458257.5624
 95  2 17 20 10  0.0200000  0  7 18  2 28 19 31 27 29
  26361852.473     7945682.770 8   6175495.08949  26361851.2074
  30772069.887     -137786.215 3    -96090.49549  30772073.7894
  29430392.168     6941918.548 5   3757618.64949  29430392.9654
  27054693.465     6903922.866 7   4342596.66549  27054693.0314
  28633028.035      469111.817 6    227398.46249  28633028.6914
  29167239.941      972816.864 6    721856.59349  29167239.5904
  27485122.379    22334133.019 7  17454651.45549  27485121.1834
 95  2 17 20 10 30.0200000  0  7 18  2 28 19 31 27 29
  26378730.012     8034376.958 7   6244607.44249  26378728.9694
  30770516.808     -145947.343 3   -102449.59749  30770520.5584
  29446949.754     7028929.602 5   3825419.44549  29446950.5154
  27066852.558     6967819.912 7   4392386.58049  27066851.9494
  28638101.340      495771.093 6    248171.97149  28638101.3634
  29170506.894      989983.299 6    735233.09749  29170505.6644
  27512074.074    22475765.663 7  17565014.52749  27512072.9024
 95  2 17 20 11  0.0200000  0  7 18  2 28 19 31 27 29
  26395701.957     8123563.896 7   6314103.76049  26395700.9024
  30768995.355     -153939.403 4   -108676.99649  30768997.4414
  29463618.230     7116524.741 5   3893675.39849  29463619.2384
  27079049.683     7031913.986 7   4442330.02649  27079048.8984
  28643260.043      522876.012 6    269292.76049  28643260.0314
  29173800.191     1007289.668 6    748718.64249  29173799.6404
  27539116.207    22617868.754 7  17675744.17749  27539115.1994
 95  2 17 20 11 30.0210000  0  7 18  2 28 19 31 27 29
  26412769.946     8213257.211 7   6383994.64749  26412768.8214
  30767506.087     -161768.852 4   -114777.69149  30767507.9034
  29480397.962     7204702.095 5   3962385.01649  29480398.8064
  27091281.399     7096192.086 7   4492416.86449  27091280.7084
  28648498.806      550408.108 6    290746.40149  28648498.9344
  29177113.282     1024702.897 6    762287.43849  29177114.1614
  27566245.556    22760434.618 7  17786834.42949  27566244.4424
 95  2 17 20 12  0.0210000  0  7 18  2 28 19 31 27 29
  26429938.196     8303476.819 7   6454295.64149  26429936.6614
  30766049.165     -169426.521 4   -120744.57249  30766051.8024
  29497288.704     7293461.586 5   4031548.24649  29497289.3484
  27103547.095     7160649.747 7   4542643.62249  27103546.5094
  28653817.243      578360.131 6    312527.25549  28653817.7354
  29180443.532     1042205.443 6    775925.84949  29180443.8484
  27593459.938    22903447.923 7  17898273.33249  27593459.1064
 95  2 17 20 12 30.0210000  0  7 18  2 28 19 31 27 29
  26447209.032     8394236.681 7   6525017.60449  26447207.6264
  30764624.415     -176907.200 4   -126573.54549  30764627.7084
  29514290.016     7382805.407 5   4101166.82049  29514290.7084
  27115849.837     7225301.470 7   4593021.59749  27115849.2274
  28659220.493      606751.498 6    334650.45649  28659221.1614
  29183794.009     1059810.895 6    789644.44149  29183794.6414
  27620758.376    23046902.610 7  18010056.16949  27620757.5444
 95  2 17 20 13  0.0210000  0  7 18  2 28 19 31 27 29
  26464580.548     8485525.171 7   6596151.48649  26464579.0954
  30763237.126     -184197.443 4   -132254.16049  30763239.2594
  29531400.509     7472722.336 5   4171231.96749  29531401.0594
  27128192.118     7290159.827 7   4643560.57649  27128191.3454
  28664706.743      635584.787 6    357118.02249  28664707.4234
  29187160.790     1077506.665 6    803433.42049  29187161.1184
  27648135.852    23190773.693 7  18122163.47349  27648135.0564
 95  2 17 20 13 30.0210000  0  7 18  2 28 19 31 27 29
  26482051.173     8577332.835 7   6667689.92149  26482049.6384
  30761889.751     -191275.169 3   -137769.16449  30761893.8064
  29548620.181     7563212.172 5   4241743.54449  29548621.2234
  27140578.626     7355251.294 7   4694281.21449  27140577.8294
  28670280.352      664873.986 6    379940.83949  28670281.2784
  29190545.501     1095292.355 6    817292.46249  29190545.7124
  27675590.173    23335045.314 7  18234582.88149  27675588.8724
 95  2 17 20 14  0.0210000  0  7 18  2 28 19 31 27 29
  26499620.204     8669658.660 7   6739632.11549  26499618.6104
  30760582.056     -198148.847 4   -143125.19949  30760585.0324
  29565949.985     7654279.583 5   4312705.18349  29565950.1844
  27153011.704     7420588.845 7   4745193.59949  27153011.1184
  28675944.798      694638.937 6    403134.37249  28675945.1614
  29193952.071     1113194.594 6    831242.31549  29193952.1534
  27703121.610    23479723.626 7  18347319.18949  27703120.3684
 95  2 17 20 14 30.0210000  0  7 18  2 28 19 31 27 29
  26517288.001     8762503.552 7   6811978.77549  26517286.1734
  30759313.087     -204822.552 4   -148325.38449  30759314.2234
  29583389.477     7745921.906 5   4384114.80549  29583389.0674
  27165491.860     7486171.787 7   4796297.20149  27165491.3684
  28681702.493      724897.684 6    426712.66749  28681702.6694
  29197383.423     1131222.428 6    845290.04249  29197383.3414
  27730732.173    23624819.102 7  18460380.56449  27730730.8134
 95  2 17 20 15  0.0210000  0  7 18  2 28 19 31 27 29
  26535054.602     8855868.113 7   6884730.36849  26535052.9274
  30758078.204     -211309.634 4   -153380.10349  30758080.6304
  29600935.376     7838130.603 5   4455965.77849  29600935.4584
  27178014.571     7551978.715 7   4847575.33449  27178014.0564
  28687549.493      755624.064 6    450655.37049  28687550.0794
  29200832.821     1149350.428 6    859415.81649  29200833.1024
  27758422.415    23770333.109 7  18573768.06349  27758421.3254
 95  2 17 20 15 30.0210000  0  7 18  2 28 19 31 27 29
  26552924.766     8949775.565 7   6957905.00049  26552923.1844
  30756878.821     -217610.474 4   -158289.67549  30756882.2204
  29618592.970     7930915.681 5   4528265.86749  29618593.3684
  27190579.790     7618009.991 7   4899028.28549  27190579.1454
  28693485.696      786817.731 6    474962.17349  28693486.0484
  29204302.141     1167585.456 6    873624.98849  29204301.7784
  27786195.548    23916282.259 7  18687494.63849  27786194.3294
 95  2 17 20 16  0.0210000  0  7 18  2 28 19 31 27 29
  26570899.259     9044233.606 7   7031508.65749  26570898.0164
  30755715.712     -223719.321 3   -163049.62849  30755719.5794
  29636356.923     8024271.954 5   4601011.03549  29636357.6614
  27203184.688     7684248.686 7   4950642.86049  27203183.7634
  28699508.860      818469.080 6    499625.63949  28699508.7314
  29207794.743     1185937.256 6    887925.14749  29207794.2164
  27814051.102    24062663.816 7  18801558.15749  27814050.2004
 95  2 17 20 16 30.0210000  0  7 18  2 28 19 31 27 29
  26588978.071     9139237.821 7   7105537.91049  26588976.8644
  30754592.563     -229616.901 3   -167644.94749  30754594.9194
  29654231.345     8118199.756 5   4674201.54249  29654231.6264
  27215827.282     7750686.492 7   5002412.58849  27215826.4734
  28705618.376      850579.149 6    524646.54049  28705619.2434
  29211310.016     1204409.882 6    902319.46249  29211309.6304
  27841987.813    24209471.017 7  18915953.34849  27841986.9704
 95  2 17 20 17  0.0210000  0  7 18  2 28 19 31 27 29
  26607158.899     9234777.748 7   7179984.59349  26607157.7634
  30753509.376     -235312.626 3   -172082.90749  30753513.3724
  29672212.954     8212695.695 5   4747834.76349  29672212.9314
  27228507.993     7817321.405 7   5054335.91149  27228507.3374
  28711817.376      883152.065 6    550028.11149  28711817.1654
  29214847.743     1223003.245 6    916807.85849  29214848.2944
  27870003.766    24356694.179 7  19030672.65349  27870002.7354
 95  2 17 20 17 30.0210000  0  7 18  2 28 19 31 27 29
  26625442.766     9330858.619 7   7254852.79149  26625441.3954
  30752467.391     -240787.028 4   -176348.47049  30752470.9424
  29690305.720     8307770.361 5   4821918.95049  29690305.5794
  27241229.602     7884176.509 7   5106430.81049  27241228.9464
  28718111.665      916229.330 6    575802.67549  28718111.2904
  29218414.032     1241741.813 6    931409.38049  29218413.9974
  27898097.087    24504324.697 7  19145709.38049  27898095.9504
 95  2 17 20 18  0.0210000  0  7 18  2 28 19 31 27 29
  26643822.454     9427444.622 8   7330114.60649  26643821.1774
  30751463.118     -246065.836 4   -180461.58749  30751466.1654
  29708504.313     8403405.506 5   4896439.87149  29708504.5714
  27253989.485     7951229.800 7   5158680.14049  27253988.8644
  28724502.962      949816.496 6    601974.56149  28724503.1494
  29222003.743     1260605.395 6    946108.31149  29222004.1774
  27926264.188    24652343.699 7  19261048.82449  27926263.3094
 95  2 17 20 18 30.0210000  0  7 18  2 28 19 31 27 29
  26662300.087     9524545.423 8   7405777.56049  26662298.8214
  30750494.181     -251157.962 5   -184429.26449  30750495.8334
  29726811.735     8499613.030 5   4971406.79649  29726812.3214
  27266791.212     8018503.544 7   5211101.25449  27266790.4854
  28730995.095      983932.362 6    628558.42349  28730995.5524
  29225613.743     1279577.691 6    960891.95749  29225613.7434
  27954510.641    24800779.863 7  19376713.32949  27954509.9154
 95  2 17 20 19  0.0210000  0  7 18  2 28 19 31 27 29
  26680876.087     9622163.062 8   7481843.24749  26680874.7394
  30749559.915     -256069.428 5   -188256.16049  30749561.9664
  29745227.165     8596386.762 5   5046814.90449  29745228.2434
  27279634.516     8085993.871 7   5263691.13249  27279633.8484
  28737585.446     1018567.591 6    655546.97149  28737585.9854
  29229242.587     1298645.274 6    975749.85649  29229242.1534
  27982835.641    24949628.786 7  19492699.46549  27982834.5164
 95  2 17 20 19 30.0210000  0  7 18  2 28 19 31 27 29
  26699549.165     9720288.862 8   7558304.90549  26699547.3954
  30748660.852     -260793.082 5   -191936.73749  30748662.5634
  29763750.470     8693726.483 5   5122664.05249  29763750.9384
  27292516.938     8153692.057 7   5316442.97049  27292516.6344
  28744271.938     1053704.177 6    682926.19249  28744272.0914
  29232888.931     1317807.671 6    990681.64249  29232890.1264
  28011238.977    25098889.889 7  19609006.77549  28011237.9464
 95  2 17 20 20  0.0210000  0  7 18  2 28 19 31 27 29
  26718318.423     9818922.175 8   7635162.02549  26718316.7704
  30747795.391     -265336.476 5   -195476.84549  30747796.9274
  29782380.970     8791630.571 5   5198952.95249  29782381.3914
  27305435.649     8221582.445 7   5369344.57549  27305435.2864
  28751050.274     1089323.858 6    710681.85649  28751049.9704
  29236551.618     1337056.052 6   1005680.41249  29236551.7004
  28039722.806    25248576.933 7  19725645.98549  28039721.9274
 95  2 17 20 20 30.0210000  0  7 18  2 28 19 31 27 29
  26737185.516     9918070.061 8   7712420.11049  26737183.9704
  30746965.993     -269697.294 5   -198874.71249  30746966.6964
  29801119.056     8890100.023 5   5275682.40549  29801119.3844
  27318390.360     8289657.610 7   5422390.16949  27318389.7514
  28757917.251     1125409.682 6    738800.73949  28757917.2274
  29240231.321     1356394.235 6   1020749.16049  29240231.3804
  28068287.149    25398682.794 7  19842611.55049  28068286.4234
 95  2 17 20 21  0.0220000  0  7 18  2 28 19 31 27 29
  26756149.693    10017728.465 8   7790076.00349  26756148.2404
  30746172.201     -273865.773 5   -202122.72349  30746173.6894
  29819965.607     8989140.041 5   5352856.45349  29819966.3814
  27331379.193     8357915.124 7   5475577.85049  27331378.6784
  28764873.771     1161966.552 6    767286.67049  28764873.7364
  29243932.076     1375842.813 6   1035903.94349  29243932.5334
  28096928.474    25549192.922 7  19959892.12749  28096927.6894
 95  2 17 20 21 30.0220000  0  7 18  2 28 19 31 27 29
  26775209.045    10117885.464 8   7868120.41249  26775207.5684
  30745415.607     -277842.564 5   -205221.36249  30745417.7284
  29838919.959     9088744.896 5   5430470.62049  29838919.5964
  27344403.935     8426360.571 7   5528911.97749  27344403.4554
  28771920.389     1198999.380 6    796143.46149  28771920.5884
  29247652.568     1395394.935 6   1051139.38949  29247653.1664
  28125646.060    25700102.292 7  20077483.79349  28125645.2404
 95  2 17 20 22  0.0220000  0  7 18  2 28 19 31 27 29
  26794364.389    10218547.692 8   7946558.51049  26794362.9354
  30744694.662     -281628.052 4   -208170.96049  30744697.5214
  29857981.685     9188915.428 5   5508525.59149  29857981.8964
  27357466.803     8495006.041 7   5582401.96749  27357466.4164
  28779059.771     1236518.145 6    825378.92449  28779060.3344
  29251391.584     1415043.046 6   1066449.64149  29251391.6314
  28154440.795    25851418.191 7  20195392.23849  28154439.8344
 95  2 17 20 22 30.0220000  0  7 18  2 28 19 31 27 29
  26813615.834    10319715.382 8   8025390.47149  26813614.2054
  30744010.771     -285218.636 4   -210968.70249  30744014.7794
  29877151.842     9289654.646 5   5587023.68449  29877152.0414
  27370571.560     8563873.646 7   5636065.04349  27370571.2444
  28786294.349     1274536.197 6    855003.41249  28786294.7244
  29255150.060     1434791.437 6   1081838.05049  29255150.2014
  28183312.021    26003140.230 7  20313617.16349  28183311.2364
 95  2 17 20 23  0.0220000  0  7 18  2 28 19 31 27 29
  26832964.287    10421393.215 8   8104619.94849  26832962.5644
  30743367.592     -288597.650 4   -213601.57249  30743371.5414
  29896429.349     9390961.351 5   5665963.94449  29896430.0414
  27383721.201     8632974.132 7   5689909.59149  27383720.8264
  28793624.795     1313056.376 6    885019.17249  28793625.1704
  29258926.685     1454638.856 6   1097303.61949  29258926.9314
  28212261.279    26155268.679 7  20432158.76849  28212260.8814
 95  2 17 20 23 30.0220000  0  7 18  2 28 19 31 27 29
  26852411.920    10523590.059 8   8184253.85049  26852410.4204
  30742764.974     -291766.691 4   -216070.84449  30742768.6664
  29915814.865     9492832.340 5   5745343.91449  29915815.6504
  27396913.209     8702298.782 7   5743928.80849  27396912.7054
  28801048.232     1352066.164 6    915416.44449  28801047.9514
  29262721.107     1474580.756 6   1112842.80349  29262720.8384
  28241288.920    26307807.859 7  20551020.42449  28241288.2174
 95  2 17 20 24  0.0220000  0  7 18  2 28 19 31 27 29
  26871961.357    10626321.884 8   8264304.62049  26871959.9284
  30742199.185     -294735.580 5   -218384.15849  30742202.5604
  29935307.365     9595268.985 5   5825164.62849  29935308.4784
  27410144.803     8771832.395 7   5798110.85049  27410144.3814
  28808565.014     1391572.198 6    946200.39449  28808564.8614
  29266534.826     1494622.604 6   1128459.87349  29266534.8964
  28270392.998    26460751.351 7  20670197.13149  28270392.0144
 95  2 17 20 24 30.0220000  0  7 18  2 28 19 31 27 29
  26891614.896    10729603.702 8   8344783.95349  26891613.4904
  30741671.490     -297508.774 5   -220544.99849  30741673.9044
  29954908.834     9698273.542 5   5905427.87349  29954909.9824
  27423415.717     8841569.681 7   5852451.60649  27423415.1194
  28816179.443     1431582.511 6    977377.29949  28816179.4904
  29270368.568     1514768.703 6   1144158.17249  29270369.2714
  28299573.826    26614097.639 7  20789687.69949  28299572.9594
 95  2 17 20 25  0.0220000  0  7 18  2 28 19 31 27 29
  26911373.053    10833434.307 7   8425690.91049  26911371.6934
  30741182.764     -300083.072 5   -222550.83549  30741185.7054
  29974618.006     9801847.315 5   5986134.67449  29974617.7714
  27436723.201     8911500.275 7   5906942.99649  27436722.3814
  28823888.584     1472093.232 6   1008944.12449  28823888.4674
  29274223.342     1535027.990 6   1159944.67949  29274223.5064
  28328832.029    26767849.903 7  20909494.60849  28328831.1854
 95  2 17 20 25 30.0220000  0  7 18  2 28 19 31 27 29
  26931232.967    10937797.728 7   8507013.05149  26931231.6894
  30740723.592     -302491.127 5   -224427.14949  30740726.2174
  29994433.584     9905978.433 5   6067275.78349  29994434.7444
  27450064.482     8981610.002 7   5961573.96149  27450063.7444
  28831693.639     1513108.237 6   1040903.91349  28831693.1814
  29278098.724     1555391.481 6   1175812.38249  29278098.6894
  28358165.146    26921998.129 7  21029610.05649  28358164.4904
 95  2 17 20 26  0.0220000  0  7 18  2 28 19 31 27 29
  26951194.287    11042696.583 7   8588752.41049  26951193.3614
  30740298.443     -304725.445 5   -226168.07449  30740301.2794
  30014357.123    10010674.048 5   6148856.71849  30014357.6274
  27463443.412     9051916.996 7   6016358.64049  27463442.7214
  28839600.373     1554658.836 6   1073281.03549  28839600.1854
  29281994.842     1575864.561 6   1191765.48849  29281994.7604
  28387574.529    27076546.805 7  21150037.53749  28387573.6394
 95  2 17 20 26 30.0220000  0  8 18  2 28 19 31 16 27 29
  26971253.818    11148108.073 7   8670891.22949  26971252.8224
  30739910.474     -306763.801 5   -227756.30149  30739912.7714
  30034388.849    10115938.589 5   6230880.99449  30034389.4124
  27476863.834     9122440.868 7   6071312.32049  27476863.1784
  28847607.685     1596738.776 6   1106070.62949  28847607.3924
  31520698.248        7188.09813
  29285913.646     1596459.815 6   1207813.78749  29285913.6354
  28417059.553    27231491.096 7  21270773.29849  28417058.9674
 95  2 17 20 27  0.0220000  0  8 18  2 28 19 31 16 27 29
  26991409.123    11254025.747 7   8753424.47249  26991408.2324
  30739563.123     -308589.717 5   -229179.00449  30739565.7834
  30054528.764    10221778.502 5   6313353.70949  30054531.1074
  27490325.178     9193183.654 7   6126436.58349  27490324.6744
  28855715.826     1639347.579 6   1139272.33749  28855715.6504
  31524488.889       27107.315 3
  29289858.014     1617184.573 6   1223962.99749  29289858.0494
  28446620.178    27386829.999 7  21391816.55149  28446619.6854
 95  2 17 20 27 30.0220000  0  8 18  2 28 19 31 16 27 29
  27011662.154    11360455.652 7   8836356.88249  27011661.1464
  30739255.928     -310199.755 5   -230433.47949  30739258.2364
  30074776.576    10328186.650 5   6396268.80549  30074776.2134
  27503829.451     9264146.424 7   6181732.26149  27503828.8774
  28863923.428     1682479.831 6   1172881.93749  28863923.2754
  31528365.576       47476.832 3      4798.20259  31528365.4354
  29293821.732     1638015.046 6   1240194.57249  29293821.7324
  28476252.232    27542548.835 7  21513155.84949  28476251.8104
 95  2 17 20 28  0.0220000  0  8 18  2 28 19 31 16 27 29
  27032010.787    11467387.580 7   8919680.44049  27032009.6504
  30738995.045     -311572.521 5   -231503.05149  30738996.8034
  30095133.928    10435163.613 5
  27517374.428     9335327.030 7   6237197.68049  27517373.9244
  28872228.553     1726123.933 6   1206890.36249  28872228.6464
  31532328.912       68298.202 3     21022.66849  31532330.4594
  29297803.717     1658940.681 6   1256500.31049  29297803.6234
  28505957.365    27698648.206 7  21634791.67449  28505956.5334
 95  2 17 20 28 30.0220000  0  8 18  2 28 19 31 16 27 29
  27052453.553    11574815.991 7   9003390.87549  27052452.3464
  30738778.678     -312708.234 5   -232387.93249  30738780.4474
  30115598.920    10542703.702 5     39157.09059  30115599.7284
  27530958.865     9406714.526 7   6292824.31349  27530958.4554
  28880626.271     1770254.057 6   1241277.51949  28880626.3654
  31536374.357       89552.293 3     37584.42149  31536373.6894
  29301802.943     1679957.615 6   1272877.18049  29301803.0494
  28535734.889    27855132.466 7  21756727.40649  28535734.0334
 95  2 17 20 29  0.0220000  0  8 18  2 28 19 31 16 27 29
  27072995.631    11682765.736 7   9087507.55449  27072994.4824
  30738608.842     -313600.690 5   -233083.23549  30738611.0684
  30136170.693    10650808.633 5    123394.68249  30136170.9164
  27544583.443     9478312.566 7   6348615.01049  27544582.7994
  28889119.537     1814885.407 6   1276055.23349  28889118.8924
  31540499.904      111242.498 3     54485.88149  31540501.9674
  29305819.615     1701067.243 6   1289326.28049  29305819.4284
  28565589.529    28012020.350 7  21878977.65449  28565588.8854
 95  2 17 20 29 30.0220000  0  8 18  2 28 19 31 16 27 29
  27093637.232    11791239.214 7   9172032.33449  27093636.3184
  30738488.756     -314236.804 5   -233578.79549  30738490.4084
  30156852.240    10759487.033 5    208079.12849  30156852.6274
  27558250.803     9550135.423 7   6404580.88949  27558250.0884
  28897713.412     1860047.104 6   1311246.19749  28897712.5104
  31544712.764      133373.998 3     71731.24549  31544715.0494
  29309857.279     1722284.333 6   1305859.11549  29309857.2324
  28595523.545    28169323.992 7  22001551.87349  28595522.9714
 95  2 17 20 30  0.0230000  0  8 18  2 28 19 31 16 27 29
  27114377.347    11900228.393 7   9256958.96349  27114376.3044
  30738414.511     -314625.961 5   -233881.93449  30738415.2144
  30177642.229    10868741.818 5    293212.70749  30177642.7224
  27571961.143     9622182.576 7   6460721.54449  27571960.4054
  28906410.237     1905750.999 6   1346859.65849  28906409.3234
  31549007.237      155948.697 3     89321.95249  31549008.9724
  29313919.292     1743631.019 6   1322492.94049  29313919.1754
  28625539.284    28327054.032 7  22124458.34249  28625538.6044
 95  2 17 20 30 30.0230000  0  8 18  2 28 19 31 16 27 29
  27135217.667    12009745.803 7   9342297.19749  27135216.6244
  30738386.534     -314772.264 5   -233995.84849  30738388.7374
  30198541.245    10978566.365 5    378790.26749  30198541.4444
  27585714.081     9694455.982 7   6517038.49349  27585713.5774
  28915211.722     1951999.820 6   1382897.73449  28915211.5224
  31553386.831      178969.169 3    107260.09947  31553389.2574
  29318008.839     1765119.499 6   1339237.25749  29318008.9684
  28655631.604    28485191.893 7  22247682.59249  28655630.7614
 95  2 17 20 31  0.0230000  0  8 18  2 28 19 31 16 27 29
  27156159.737    12119796.132 7   9428050.68949  27156158.5894
  30738402.472     -314688.442 5   -233930.43249  30738403.3744
  30219547.815    11088957.368 5    464809.21849  30219547.9094
  27599507.745     9766943.017 7   6573521.90449  27599507.3354
  28924119.175     1998810.883 6   1419373.91049  28924119.5614
  31557854.682      202442.251 3    125550.83646  31557855.8894
  29322122.425     1786737.275 6   1356082.31749  29322121.9324
  28685799.581    28643726.999 7  22371216.38649  28685798.8074
 95  2 17 20 31 30.0230000  0  8 18  2 28 19 31 16 27 29
  27177204.034    12230384.081 7   9514223.10949  27177202.7224
  30738459.448     -314387.420 5   -233695.77449  30738461.4054
  30240662.792    11199918.158 5    551272.16149  30240663.0504
  27613340.932     9839635.075 7   6630165.07649  27613340.3354
  28933136.300     2046197.600 6   1456298.66649  28933136.3114
  31562407.112      226369.760 3    144195.62949  31562407.9564
  29326259.706     1808479.508 6   1373024.36149  29326259.0384
  28716042.878    28802655.398 7  22495056.63449  28716042.3044
 95  2 17 20 32  0.0230000  0  8 18  2 28 19 31 16 27 29
  27198355.300    12341536.631 7   9600835.48149  27198354.1984
  30738556.839     -313873.684 5   -233295.38149  30738559.2184
  30261887.620    11311452.111 5    638181.73649  30261887.1044
  27627212.636     9912532.947 7   6686968.62349  27627212.1904
  28942261.136     2094149.122 6   1493663.51449  28942260.8434
  31567047.753      250754.412 3    163196.70049  31567050.4254
  29330420.386     1830342.041 6   1390060.13049  29330419.6244
  28746361.151    28961978.004 7  22619204.06749  28746360.5074
 95  2 17 20 32 30.0230000  0  8 18  2 28 19 31 16 27 29
  27219614.964    12453255.943 7   9687889.50049  27219614.0034
  30738693.050     -313153.810 5   -232734.31349  30738694.8074
  30283218.761    11423553.339 5    725533.33249  30283218.1284
  27641122.542     9985628.598 7   6743926.28849  27641122.2024
  28951493.940     2142666.658 6   1531469.41249  28951493.4604
  31571774.339      275596.540 3    182554.23947  31571777.5504
  29334600.409     1852307.384 6   1407176.03049  29334599.5654
  28776751.425    29121681.769 6  22743648.50649  28776750.6754
 95  2 17 20 33  0.0230000  0  8 18  2 28 19 31 16 27 29
  27240980.831    12565533.970 7   9775378.84949  27240979.5544
  30738869.159     -312232.758 5   -232016.54149  30738870.6004
  30304660.042    11536224.026 5    813328.65649  30304660.1244
  27655070.487    10058926.428 7   6801041.47449  27655070.0074
  28960835.886     2191760.484 6   1569724.35749  28960835.5694
  31576589.690      300899.026 3    202270.50449  31576593.2884
  29338798.128     1874370.522 6   1424368.11649  29338797.5544
  28807216.143    29281771.365 7  22868393.58349  28807215.2884
 95  2 17 20 33 30.0230000  0  8 18  2 28 19 31 16 27 29
  27262448.979    12678349.212 7   9863286.82149  27262447.7024
  30739083.104     -311109.819 5   -231141.44149  30739084.3354
  30326206.503    11649454.327 5    901560.04649  30326206.3504
  27669059.745    10132439.825 7   6858324.64949  27669059.2764
  28970284.542     2241413.095 6   1608414.73549  28970284.1904
  31581488.682      326648.200 3    222334.80248  31581491.9404
  29343014.097     1896528.703 6   1441634.28849  29343014.2024
  28837749.714    29442228.667 6  22993425.18849  28837749.0464
 95  2 17 20 34  0.0230000  0  8 18  2 28 19 31 16 27 29
  27284020.479    12791709.121 7   9951619.21749  27284019.3194
  30739340.690     -309757.375 5   -230087.50449  30739341.4874
  30347863.854    11763263.149 5    990242.23249  30347864.2534
  27683094.901    10206194.348 7   6915795.72449  27683094.3154
  28979840.284     2291628.609 6   1647543.73249  28979840.1434
  31586480.362      352877.165 3    242773.01848  31586484.0074
  29347253.776     1918807.871 6   1458994.72649  29347253.7294
  28868356.604    29603067.858 6  23118754.38049  28868356.1364
 95  2 17 20 34 30.0230000  0  8 18  2 28 19 31 16 27 29
  27305689.479    12905579.466 7  10040349.34349  27305688.4014
  30739641.120     -308178.032 5   -228856.77849  30739641.5074
  30369628.378    11877636.459 5   1079364.24749  30369629.1164
  27697174.347    10280181.821 7   6973448.29549  27697173.5614
  28989502.557     2342402.058 6   1687107.46349  28989501.9834
  31591563.167      379589.163 3    263587.60049  31591566.8004
  29351513.870     1941192.372 6   1476437.21949  29351513.9644
  28899033.979    29764282.037 6  23244375.75349  28899033.7924
 95  2 17 20 35  0.0230000  0  8 18  2 28 19 31 16 27 29
  27327452.768    13019946.300 7  10129466.34949  27327451.7254
  30739986.229     -306364.471 5   -227443.53749  30739987.0854
  30391499.972    11992571.154 5   1168923.73149  30391500.1944
  27711297.198    10354398.613 7   7031279.56049  27711296.3194
  28999269.792     2393729.101 6   1727102.58149  28999268.8664
  31596738.729      406788.286 3    284781.76249  31596740.1124
  29355793.409     1963682.970 6   1493962.41549  29355793.5614
  28929783.901    29925872.086 6  23370290.02749  28929783.9134
 95  2 17 20 35 30.0230000  0  8 18  2 28 19 31 16 27 29
  27349312.659    13134820.385 7  10218978.62149  27349311.6394
  30740378.362     -304300.822 5   -225835.41549  30740379.6284
  30413478.862    12108071.513 5   1258923.96949  30413478.3704
  27725461.737    10428833.776 7   7089280.99349  27725460.9994
  29009144.175     2445616.646 7   1767534.44849  29009143.4484
  31602010.097      434485.904 3    306364.36449  31602013.5074
  29360096.378     1986297.218 6   1511583.95149  29360096.6364
  28960607.675    30087850.658 6  23496507.04249  28960607.5344
 95  2 17 20 36  0.0230000  0  8 18  2 28 19 31 16 27 29
  27371270.550    13250209.506 7  10308892.20949  27371269.4954
  30740818.362     -301992.534 5   -224036.68449  30740820.0734
  30435565.503    12224138.183 5   1349365.50949  30435566.1364
  27739663.792    10503468.614 7   7147438.01449  27739663.4294
  29019123.956     2498063.330 6   1808402.01349  29019123.2644
  31607376.620      462687.941 3    328340.04646  31607376.7254
  29364423.214     2009032.636 6   1529299.90049  29364423.4364
  28991507.011    30250227.750 6  23623034.59849  28991506.9754
 95  2 17 20 36 30.0230000  0  8 18  2 28 19 31 16 27 29
  27393326.112    13366113.869 7  10399207.29849  27393324.9174
  30741304.097     -299437.105 5   -222045.35349  30741306.0544
  30457759.518    12340768.986 5   1440246.62049  30457760.2104
  27753904.557    10578301.232 7   7205749.14949  27753904.1944
  29029212.370     2551081.617 6   1849714.98149  29029212.0304
  31612838.292      491384.529 3    350701.07347  31612841.7494
  29368772.503     2031887.804 6   1547109.17649  29368772.4564
  29022483.784    30413011.689 6  23749879.17649  29022483.7374
 95  2 17 20 37  0.0230000  0  8 18  2 28 19 31 16 27 29
  27415484.089    13482553.664 7  10489939.59749  27415482.8934
  30741837.370     -296630.771 5   -219858.53949  30741839.3864
  30480061.714    12457966.726 5   1531569.51949  30480062.6984
  27768181.479    10653327.661 7   7264211.30749  27768180.9054
  29039411.214     2604677.295 6   1891477.86449  29039411.0974
  31618387.268      520554.850 3    373431.29449  31618390.5504
  29373146.143     2054871.935 6   1565018.92249  29373146.1674
  29053538.854    30576205.046 7  23877042.78549  29053538.1864
 95  2 17 20 37 30.0230000  0  8 18  2 28 19 31 16 27 29
  27437747.401    13599549.805 7  10581105.39749  27437746.2644
  30742418.847     -293577.832 5   -217479.57749  30742420.4054
  30502471.464    12575730.805 5   1623333.68349  30502472.8354
  27782495.612    10728547.446 7   7322824.11949  27782494.7334
  29049718.167     2658838.269 6   1933681.23849  29049717.9214
  31624026.940      550183.267 3    396518.41549  31624033.4214
  29377543.573     2077980.979 6   1583025.99249  29377543.7724
  29084671.597    30739809.029 7  24004526.34749  29084670.8004
 95  2 17 20 38  0.0230000  0  8 18  2 28 19 31 16 27 29
  27460115.112    13717090.808 7  10672695.78549  27460114.2684
  30743044.284     -290286.347 5   -214914.71649  30743045.6904
  30524988.206    12694056.409 5   1715535.45249  30524989.5074
  27796848.557    10803974.603 7   7381598.53049  27796848.1004
  29060130.120     2713553.697 6   1976316.66849  29060129.6164
  31629753.128      580271.756 3    419964.04248  31629756.3044
  29381960.847     2101195.115 6   1601114.95749  29381961.3744
  29115880.964    30903813.876 7  24132322.27949  29115880.1204
 95  2 17 20 38 30.0230000  0  8 18  2 28 19 31 16 27 29
  27482587.018    13835180.308 7  10764713.56449  27482586.1634
  30743719.761     -286740.313 5   -212151.52549  30743721.5184
  30547612.284    12812948.782 5   1808178.83949  30547613.4094
  27811243.112    10879619.073 7   7440542.27349  27811242.7494
  29070650.862     2768844.380 6   2019400.33249  29070651.0384
  31635564.737      610816.656 3    443765.29549  31635566.9754
  29386399.870     2124519.694 6   1619289.97949  29386399.6364
  29147166.870    31068220.255 7  24260431.08949  29147166.1324
 95  2 17 20 39  0.0240000  0  8 18  2 28 19 31 16 27 29
  27505164.539    13953827.039 7  10857165.54949  27505163.3084
  30744442.961     -282938.703 5   -209189.15249  30744444.7894
  30570345.211    12932412.264 5   1901267.27049  30570346.3834
  27825680.984    10955488.986 7   7499661.69449  27825680.3284
  29081282.070     2824710.277 6   2062932.23149  29081281.7194
  31641463.094      641820.242 3    467923.96749  31641463.8674
  29390859.922     2147959.401 6   1637554.73249  29390859.0664
  29178525.773    31233015.291 7  24388842.75549  29178525.0124
 95  2 17 20 39 30.0240000  0  8 18  2 28 19 31 16 27 29
  27527842.687    14073001.293 7  10950028.57149  27527841.1524
  30745212.851     -278893.788 5   -206037.20849  30745215.2544
  30593184.695    13052431.685 5   1994788.88349  30593185.2814
  27840162.148    11031587.594 7   7558959.30249  27840161.1644
  29092020.219     2881140.768 6   2106904.05249  29092019.9264
  31647455.258      673301.540 3    492454.86149  31647458.2934
  29395342.383     2171513.616 6   1655908.69449  29395341.6214
  29209953.719    31398168.064 6  24517533.16249  29209953.3324
 95  2 17 20 40  0.0240000  0  8 18  2 28 19 31 16 27 29
  27550620.055    14192698.755 7  11043299.31749  27550619.0474
  30746032.156     -274589.719 5   -202683.31749  30746033.9964
  30616132.742    13173022.214 5   2088755.52949  30616132.9884
  27854690.367    11107936.453 7   7618451.93249  27854689.6404
  29102872.367     2938168.562 6   2151341.33749  29102872.1334
  31653542.984      705288.778 4    517380.05949  31653544.2504
  29399848.828     2195196.603 6   1674363.00949  29399848.2544
  29241450.875    31563687.060 6  24646508.95549  29241450.5824
 95  2 17 20 40 30.0240000  0  8 18  2 28 19 31 16 27 29
  27573496.437    14312915.573 7  11136974.74649  27573495.4884
  30746897.805     -270037.339 5   -199135.93949  30746899.6684
  30639186.078    13294170.653 5   2183156.90449  30639186.0904
  27869263.555    11184517.892 7   7678125.77949  27869262.9694
  29113838.328     2995791.583 7   2196242.43649  29113838.1054
  31659721.937      737763.836 4    542685.32349  31659726.4264
  29404381.734     2219014.513 6   1692922.44149  29404381.5234
  29273015.242    31729560.312 6  24775760.78049  29273014.8554
 95  2 17 20 41  0.0240000  0  8 18  2 28 19 31 16 27 29
  27596472.828    14433655.072 7  11231057.45849  27596471.9144
  30747810.555     -265244.830 5   -195401.44349  30747811.7264
  30662346.219    13415879.402 5   2277994.89149  30662346.6994
  27883883.336    11261345.670 7   7737991.58849  27883882.6804
  29124913.687     3053996.001 6   2241596.55749  29124913.4534
  31665998.562      770753.699 3    568391.73949  31666002.6054
  29408942.672     2242985.174 6   1711600.91949  29408942.1684
  29304648.976    31895796.463 6  24905295.38749  29304648.8244
 95  2 17 20 41 30.0240000  0  8 18  2 28 19 31 16 27 29
  27619547.555    14554913.871 7  11325544.81749  27619546.4304
  30748765.914     -260220.091 5   -191485.99749  30748767.6134
  30685612.203    13538144.046 5   2373266.03849  30685612.8244
  27898548.211    11338408.280 7   7798040.38149  27898547.4144
  29136098.906     3112772.397 7   2287396.38349  29136098.5664
  31672376.578      804265.099 3    594504.57949  31672378.9104
  29413529.640     2267091.342 6   1730384.98549  29413529.3834
  29336354.445    32062407.515 6  25035122.11149  29336353.8944
 95  2 17 20 42  0.0240000  0  8 18  2 28 19 31 16 27 29
  27642721.437    14676694.977 7  11420439.16949  27642720.3124
  30749764.562     -254971.379 5   -187396.02149  30749765.8754
  30708983.250    13660955.730 5   2468963.43949  30708983.0744
  27913252.422    11415679.348 7   7858251.61649  27913251.6254
  29147392.070     3172120.701 7   2333641.85449  29147391.4374
  31678848.555      838277.417 3    621007.71149  31678850.4654
  29418140.117     2291318.236 6   1749263.12249  29418139.8714
  29368130.570    32229393.711 6  25165241.16049  29368130.0434
 95  2 17 20 42 30.0240000  0  8 18  2 28 19 31 16 27 29
  27665998.547    14799015.331 7  11515753.70849  27665997.3984
  30750806.875     -249497.397 5   -183130.50149  30750807.8474
  30732457.953    13784315.970 5   2565088.29049  30732458.5274
  27927996.445    11493159.403 7   7918625.69249  27927995.6014
  29158794.703     3232039.896 7   2380332.17349  29158793.9764
  31685418.117      872795.344 4    647904.82849  31685419.0434
  29422774.828     2315672.761 6   1768240.69949  29422774.6294
  29399980.578    32396766.880 6  25295661.74949  29399979.9924
 95  2 17 20 43  0.0240000  0  8 18  2 28 19 31 16 27 29
  27689379.125    14921881.234 7  11611493.35649  27689378.1404
  30751892.492     -243792.756 5   -178685.23749  30751892.6684
  30756038.445    13908230.140 6   2661644.79449  30756038.2814
  27942779.687    11570848.152 7   7979162.38749  27942779.0554
  29170307.617     3292540.015 6   2427475.16749  29170307.3244
  31692087.336      907842.385 4    675214.26349  31692088.9654
  29427430.851     2340141.362 6   1787307.18549  29427430.8404
  29431904.055    32564524.779 6  25426382.13849  29431903.6914
 95  2 17 20 43 30.0240000  0  8 18  2 28 19 31 16 27 29
  27712862.562    15045289.410 7  11707655.55849  27712861.4264
  30753022.812     -237852.844 5   -174056.64349  30753023.4224
  30779721.265    14032687.836 5   2758624.82449  30779721.9804
  27957599.508    11648725.768 7   8039846.25349  27957598.7584
  29181932.945     3353632.312 6   2475079.58949  29181932.5234
  31698851.687      943389.321 4    702913.19549  31698852.7894
  29432105.711     2364705.957 6   1806448.47149  29432105.0434
  29463897.203    32732650.057 6  25557388.78949  29463897.1564
 95  2 17 20 44  0.0240000  0  8 18  2 28 19 31 16 27 29
  27736450.578    15169243.566 7  11804243.19849  27736449.8054
  30754202.797     -231648.027 5   -169221.64049  30754203.9804
  30803510.937    14157701.847 5   2856038.33549  30803511.1834
  27972460.422    11726819.695 7   8100698.67649  27972459.6484
  29193675.375     3415343.800 6   2523166.49549  29193675.3514
  31705711.390      979436.526 4    731001.97249  31705711.2504
  29436805.125     2389402.108 6   1825692.26549  29436804.3054
  29495961.281    32901148.397 6  25688686.13349  29495960.8124
 95  2 17 20 44 30.0240000  0  8 18  2 28 19 31 16 27 29
  27760136.570    15293716.510 7  11901235.09749  27760135.8794
  30755431.195     -225194.268 6   -164192.62749  30755432.6254
  30827403.086    14283255.598 6   2953872.43849  30827403.5194
  27987362.101    11805127.850 7   8161718.03849  27987361.1994
  29205532.789     3477652.912 6   2571719.09049  29205532.2854
  31712663.500     1015975.513 4    759473.97449  31712664.1684
  29441526.156     2414215.796 6   1845027.65949  29441525.8754
  29528091.844    33069993.589 6  25820253.76449  29528091.0704
 95  2 17 20 45  0.0240000  0  8 18  2 28 19 31 16 27 29
  27783921.430    15418704.228 7  11998628.09549  27783920.5394
  30756709.547     -218476.846 6   -158958.19949  30756710.0624
  30851399.359    14409358.688 5   3052134.57349  30851399.8284
  28002304.140    11883650.157 7   8222904.25349  28002303.3444
  29217506.422     3540574.051 6   2620748.56349  29217506.0824
  31719708.601     1052995.816 4    788320.99149  31719711.1094
  29446273.250     2439157.996 6   1864463.16449  29446273.0044
  29560285.719    33239175.702 6  25952083.90049  29560285.4144
 95  2 17 20 45 30.0240000  0  8 18  2 28 19 31 16 27 29
  27807799.258    15544183.744 7  12096404.33349  27807798.4144
  30758036.578     -211502.244 6   -153523.35049  30758037.3514
  30875497.328    14535993.979 5   3150811.41949  30875498.1014
  28017285.890    11962379.627 7   8284251.91249  28017285.0584
  29229592.867     3604089.510 6   2670241.15849  29229592.5154
  31726838.734     1090462.130 4    817515.57249  31726840.0584
  29451042.508     2464222.347 6   1883993.88649  29451042.1334
  29592539.601    33408672.762 6  26084159.47849  29592539.5664
 95  2 17 20 46  0.0240000  0  8 18  2 28 19 31 16 27 29
  27831771.328    15670157.957 7  12194566.04149  27831770.4374
  30759412.906     -204269.737 6   -147887.54549  30759412.7424
  30899697.898    14663167.174 5   3249907.39749  30899698.7774
  28032308.672    12041324.515 7   8345767.42449  28032308.0514
  29241794.437     3668208.003 6   2720203.64249  29241793.7934
  31734057.305     1128399.429 4    847077.17249  31734058.6994
  29455833.625     2489400.659 6   1903613.39649  29455833.1914
  29624855.258    33578490.910 6  26216485.24349  29624854.7304
 95  2 17 20 46 30.0240000  0  8 18  2 28 19 31 16 27 29
  27855839.133    15796636.568 7  12293120.77749  27855838.4534
  30760835.851     -196789.926 6   -142059.06249  30760835.5474
  30923998.906    14790870.420 5   3349416.37949  30923998.8364
  28047367.797    12120461.491 7   8407432.59649  28047367.1404
  29254109.117     3732924.066 6   2770631.75749  29254108.4844
  31741368.258     1166818.932 4    877014.47049  31741369.7694
  29460641.656     2514669.722 6   1923303.59449  29460641.6564
  29657228.836    33748615.174 6  26349049.51949  29657228.6724
 95  2 17 20 47  0.0240000  0  8 18  2 28 19 31 16 27 29
  27880005.398    15923628.810 7  12392075.75949  27880004.5904
  30762309.101     -189047.716 6   -136026.10349  30762309.3124
  30948400.914    14919107.080 5   3449341.02749  30948400.5514
  28062465.109    12199800.151 7   8469254.94749  28062464.5944
  29266539.812     3798245.801 7   2821531.82849  29266539.4024
  31748772.469     1205723.874 4    907330.00449  31748772.7154
  29465468.187     2540031.744 6   1943066.25549  29465468.0584
  29689662.765    33919052.490 6  26481857.75149  29689661.8984
 95  2 17 20 47 30.0240000  0  8 18  2 28 19 31 16 27 29
  27904271.312    16051145.195 7  12491439.15549  27904270.3054
  30763833.008     -181038.712 6   -129785.25649  30763833.9574
  30972905.969    15047878.249 5   3549682.16949  30972906.3904
  28077605.906    12279365.468 7   8531253.90649  28077605.6484
  29279084.648     3864171.042 7   2872902.16449  29279083.8284
  31756274.117     1245146.973 3    938049.34649  31756275.7224
  29470312.406     2565485.875 6   1962900.68549  29470311.8554
  29722159.133    34089822.140 6  26614924.93749  29722158.5704
 95  2 17 20 48  0.0250000  0  8 18  2 28 19 31 16 27 29
  27928635.817    16179184.179 7  12591209.76649  27928634.6694
  30765405.520     -172773.832 6   -123345.02549  30765406.3994
  30997511.841    15177182.079 5   3650438.38849  30997512.4154
  28092787.255    12359143.963 7   8593418.97649  28092786.6454
  29291742.638     3930690.076 7   2924735.20249  29291741.6884
  31763873.934     1285089.546 3    969173.45349  31763876.5364
  29475174.833     2591040.581 6   1982813.48149  29475174.6694
  29754720.661    34260935.257 6  26748259.76149  29754720.0054
 95  2 17 20 48 30.0250000  0  8 18  2 28 19 31 16 27 29
  27953098.411    16307735.483 7  12691379.59749  27953097.5324
  30767025.614     -164260.188 6   -116710.97049  30767027.0204
  31022216.692    15307008.393 5   3751601.73449  31022217.4304
  28108010.239    12439139.074 7   8655752.84049  28108009.5594
  29304510.005     3997782.013 6   2977014.65949  29304509.0324
  31771570.950     1325536.411 3   1000690.52449  31771573.9624
  29480061.106     2616716.890 6   2002821.03449  29480061.2124
  29787345.059    34432375.225 6  26881849.28649  29787345.2124
 95  2 17 20 49  0.0250000  0  8 18  2 28 19 31 16 27 29
  27977658.348    16436799.056 7  12791948.59149  27977657.3294
  30768693.567     -155496.184 6   -109881.83149  30768694.8684
  31047021.481    15437360.485 5   3853174.75749  31047021.9274
  28123275.497    12519358.620 7   8718261.57149  28123274.5244
  29317384.927     4065442.266 6   3029736.94749  29317384.5754
  31779361.911     1366477.265 3   1032592.55549  31779366.4344
  29484973.348     2642529.750 6   2022934.97849  29484973.2434
  29820034.567    34604161.843 6  27015708.92249  29820034.5674
 95  2 17 20 49 30.0250000  0  8 18  2 28 19 31 16 27 29
  28002315.950    16566375.403 7  12892917.16449  28002315.0954
  30770408.450     -146481.459 6   -102857.33049  30770409.9624
  31071927.216    15568238.172 5   3955157.35449  31071927.8724
  28138580.052    12599783.530 7   8780930.33449  28138579.1844
  29330369.372     4133672.304 6   3082903.23649  29330369.0444
  31787246.294     1407915.030 3   1064881.76049  31787249.2124
  29489912.614     2668486.366 6   2043160.94249  29489912.6144
  29852792.263    34776303.418 6  27149845.14749  29852791.9114
 95  2 17 20 50  0.0250000  0  8 18  2 28 19 31 16 27 29
  28027069.763    16696457.274 7  12994279.62849  28027068.8724
  30772168.973     -137231.674 6    -95649.67949  30772170.2634
  31096931.606    15699635.811 5   4057545.09649  31096932.0984
  28153919.958    12680396.382 7   8843745.53249  28153918.9854
  29343460.309     4202467.520 6   3136509.90849  29343459.4544
  31795223.419     1449837.938 3   1097548.99549  31795227.5324
  29494878.403     2694582.684 6   2063495.76349  29494877.9234
  29885614.458    34948786.535 6  27284247.50849  29885613.9774
 95  2 17 20 50 30.0250000  0  8 18  2 28 19 31 16 27 29
  28051921.270    16827054.558 7  13096043.72649  28051920.3914
  30773974.442     -127743.293 6    -88256.07249  30773975.4624
  31122036.052    15831561.148 5   4160344.03449  31122036.9544
  28169299.458    12761219.329 7   8906724.45449  28169298.6384
  29356663.200     4271845.312 7   3190570.55549  29356662.2744
  31803298.552     1492269.246 3   1130612.37849  31803300.0874
  29499868.583     2720805.414 6   2083929.09449  29499867.6924
  29918503.645    35121619.624 6  27418922.58049  29918503.4814
 95  2 17 20 51  0.0250000  0  8 18  2 28 19 31 16 27 29
  28076869.020    16958155.231 7  13198200.08549  28076868.4584
  30775825.856     -118016.248 6    -80676.50949  30775826.8764
  31147239.841    15964009.500 5   4263550.53249  31147240.0634
  28184718.263    12842243.583 7   8969860.24649  28184717.5014
  29369978.645     4341821.159 7   3245097.21949  29369977.9074
  31811471.911     1535216.895 4   1164078.09949  31811473.5164
  29504878.528     2747134.762 6   2104445.50549  29504877.9304
  29951459.497    35294803.569 6  27553871.05049  29951459.7204
 95  2 17 20 51 30.0250000  0  8 18  2 28 19 31 16 27 29
  28101908.903    17089738.366 7  13300732.38149  28101908.2234
  30777719.427     -108064.191 6    -72921.60649  30777720.1884
  31172542.552    16096974.556 5   4367159.65749  31172542.7984
  28200175.169    12923469.716 7   9033153.33449  28200174.3374
  29383408.958     4412397.659 6   3300091.92149  29383409.0404
  31819744.794     1578691.634 4   1197954.57849  31819747.4664
  29509906.473     2773556.082 6   2125033.57149  29509906.3684
  29984479.520    35468323.843 6  27689081.59749  29984479.6264
 95  2 17 20 52  0.0250000  0  8 18  2 28 19 31 16 27 29
  28127040.841    17221805.081 7  13403641.48649  28127039.7634
  30779655.309      -97890.224 6    -64993.76549  30779655.9774
  31197943.817    16230457.102 5   4471172.03349  31197944.1924
  28215672.583    13004909.198 7   9096612.67049  28215671.6804
  29396955.348     4483585.210 6   3355562.75549  29396955.3844
  31828119.036     1622697.377 4   1232244.79449  31828120.3374
  29514952.161     2800071.226 6   2145694.75049  29514951.8214
  30017561.841    35642169.967 6  27824546.04849  30017561.5954
 95  2 17 20 52 30.0250000  0  8 18  2 28 19 31 16 27 29
  28152264.138    17354356.138 7  13506927.98849  28152262.7784
  30781637.802      -87475.027 6    -56877.97949  30781638.1884
  31223442.348    16364452.973 5   4575584.36749  31223443.8374
  28231209.325    13086557.430 7   9160234.65749  28231208.6574
  29410619.513     4555391.647 6   3411515.84249  29410618.7744
  31836591.520     1667222.916 4   1266940.01349  31836594.3094
  29520016.450     2826682.088 6   2166430.50049  29520015.9934
  30050705.927    35816340.530 6  27960263.28849  30050705.8914
 95  2 17 20 53  0.0250000  0  8 18  2 28 19 31 16 27 29
  28177580.981    17487396.032 7  13610595.42149  28177579.7164
  30783668.934      -76798.386 6    -48558.43749  30783670.2824
  31249038.341    16498964.117 5   4680398.25649  31249038.3884
  28246786.106    13168410.855 7   9224016.55549  28246785.2744
  29424402.419     4627821.960 6   3467955.07649  29424402.1614
  31845162.161     1712259.703 5   1302033.64149  31845163.3214
  29525102.106     2853412.731 6   2187259.60849  29525101.5094
  30083909.950    35990830.659 6  28096229.56149  30083909.4114
 95  2 17 20 53 30.0250000  0  8 18  2 28 19 31 16 27 29
  28202991.997    17620933.357 7  13714650.44449  28202990.9194
  30785751.786      -65849.082 5    -40026.46049  30785753.4974
  31274734.028    16633992.140 5   4785614.87749  31274734.9424
  28262401.841    13250473.733 7   9287961.64149  28262400.9854
  29438302.841     4700867.835 7   3524873.95749  29438302.0914
  31853828.700     1757804.341 4   1337522.97949  31853830.8214
  29530214.880     2880279.459 6   2208194.73049  29530214.7634
  30117173.934    36165637.791 6  28232442.84049  30117173.4894
 95  2 17 20 54  0.0250000  0  8 18  2 28 19 31 16 27 29
  28228503.044    17754995.157 7  13819114.17249  28228502.4234
  30787888.645      -54621.210 6    -31277.38549  30787890.4034
  31300526.950    16769537.024 5   4891234.25949  31300527.8294
  28278059.981    13332757.275 7   9352078.68749  28278059.1964
  29452318.614     4774522.134 7   3582266.94649  29452317.7594
  31862589.966     1803844.125 5   1373398.18849  31862591.5594
  29535352.645     2907279.129 6   2229233.46349  29535352.6924
  30150498.630    36340760.227 6  28368901.82049  30150498.6414
 95  2 17 20 54 30.0250000  0  8 18  2 28 19 31 16 27 29
  28254115.497    17889589.940 7  13923993.20749  28254114.7594
  30790077.731      -43116.633 6    -22312.71849  30790078.8454
  31326419.419    16905600.761 5   4997257.93849  31326420.0634
  28293761.450    13415268.658 7   9416373.28049  28293760.8174
  29466448.653     4848777.260 6   3640128.11449  29466448.2314
  31871445.997     1850381.854 5   1409661.43149  31871447.8254
  29540516.755     2934413.467 6   2250377.13149  29540516.4734
  30183884.692    36516203.666 6  28505610.93649  30183884.7044
 95  2 17 20 55  0.0250000  0  8 18  2 28 19 31 16 27 29
  28279827.380    18024706.187 7  14029278.56849  28279826.6184
  30792313.520      -31368.341 6    -13158.13049  30792314.2944
  31352408.395    17042174.570 5   5103679.04949  31352408.9814
  28309506.505    13498009.682 7   9480846.79649  28309506.0484
  29480691.263     4923621.462 7   3698448.28249  29480690.8054
  31880398.372     1897425.677 5   1446318.95849  31880400.4114
  29545705.309     2961679.379 6   2271623.31049  29545704.9584
  30217329.036    36691956.729 6  28642561.30449  30217329.0834
 95  2 17 20 55 30.0250000  0  8 18  2 28 19 31 16 27 29
  28305640.122    18160352.419 7  14134976.91549  28305639.2904
  30794594.020      -19384.846 6     -3820.25049  30794594.8174
  31378493.770    17179256.210 5   5210495.89349  31378493.5134
  28325296.356    13580985.793 7   9545503.51149  28325295.6884
  29495046.528     4999058.813 7   3757230.66249  29495046.2704
  31889447.427     1944980.739 4   1483374.84049  31889449.8174
  29550918.114     2989074.020 6   2292969.80449  29550917.8914
  30250833.161    36868019.379 6  28779752.91149  30250832.9974
 95  2 17 20 56  0.0250000  0  8 18  2 28 19 31 16 27 29
  28331554.856    18296534.235 7  14241092.59849  28331553.9194
  30796920.864       -7159.830 6      5705.82349  30796921.3454
  31404677.919    17316853.273 5   5317714.34149  31404677.5914
  28341130.786    13664196.211 7   9610342.80949  28341130.0244
  29509518.802     5075111.307 6   3816492.35649  29509518.6384
  31898596.903     1993061.166 4   1520840.14449  31898598.1454
  29556159.231     3016617.533 6   2314432.30749  29556158.9504
  30284395.083    37044389.937 6  28917184.46949  30284395.3764
 95  2 17 20 56 30.0250000  0  8 18  2 28 19 31 16 27 29
  28357567.645    18433232.638 7  14347610.80549  28357566.5914
  30799295.184        5323.068 6     15432.80949  30799296.2514
  31430960.856    17454969.986 5   5425337.72649  31430962.0634
  28357007.708    13747632.307 7   9675357.94249  28357006.9584
  29524111.794     5151797.807 6   3876248.07449  29524111.2434
  31907849.942     2041681.606 4   1558726.23749  31907851.0554
  29561432.598     3044328.705 6   2336025.43549  29561432.1184
  30318018.505    37221080.735 6  29054865.52849  30318018.7634
 95  2 17 20 57  0.0250000  0  8 18  2 28 19 31 16 27 29
  28383674.216    18570425.108 7  14454514.01349  28383673.0674
  30801721.161       18071.501 6     25366.73449  30801722.3334
  31457339.794    17593596.177 5   5533358.12849  31457340.6144
  28372926.138    13831283.171 7   9740540.44449  28372925.5524
  29538825.802     5229121.818 7   3936500.57049  29538824.7474
  31917201.388     2090831.978 4   1597025.26449  31917203.2744
  29566734.950     3072190.148 7   2357735.67249  29566734.3414
  30351700.005    37398076.973 6  29192784.61549  30351700.3454
 95  2 17 20 57 30.0260000  0  8 18  2 28 19 31 16 27 29
  28409874.619    18708106.945 7  14561798.53749  28409873.5994
  30804201.752       31105.057 6     35522.81449  30804202.2444
  31483816.955    17732733.349 5   5641776.67349  31483818.2214
  28388881.478    13915127.656 7   9805873.81549  28388880.6114
  29553661.931     5307083.484 7   3997249.95349  29553660.9944
  31926651.369     2140494.545 4   1635723.36849  31926653.1384
  29572061.767     3100182.474 7   2379547.89649  29572061.2404
  30385439.455    37575380.687 6  29330943.28049  30385439.7014
 95  2 17 20 58  0.0260000  0  8 18  2 28 19 31 16 27 29
  28436162.400    18846250.373 7  14669442.74449  28436161.2634
  30806736.869       44423.407 6     45900.80749  30806737.4554
  31510389.392    17872368.878 5   5750583.55649  31510389.7564
  28404871.135    13999152.030 7   9871347.35949  28404869.9864
  29568614.299     5385659.716 7   4058478.20549  29568613.3734
  31936199.166     2190666.818 4   1674818.69449  31936201.7444
  29577408.431     3128282.235 7   2401443.82649  29577407.7634
  30419236.306    37752984.406 6  29469335.70649  30419236.6234
 95  2 17 20 58 30.0260000  0  8 18  2 28 19 31 16 27 29
  28462539.760    18984866.144 7  14777455.00749  28462539.1274
  30809325.947       58034.798 6     56507.15949  30809326.4864
  31537058.658    18012514.570 5   5859787.95949  31537058.1194
  28420898.213    14083375.984 7   9936976.42249  28420897.0994
  29583685.174     5464856.793 7   4120190.23349  29583684.0254
  31945844.978     2241351.539 5   1714313.29049  31945846.4204
  29582772.736     3156471.911 7   2423409.83249  29582771.7634
  30453096.510    37930920.445 6  29607987.09449  30453096.9784
 95  2 17 20 59  0.0260000  0  8 18  2 28 19 31 16 27 29
  28489006.924    19123952.726 7  14885834.15749  28489006.3144
  30811966.705       71914.192 6     67322.33749  30811967.7484
  31563822.377    18153160.364 5   5969382.05949  31563822.4824
  28436963.064    14167795.988 7  10002758.25549  28436962.2094
  29598870.775     5544658.570 7   4182373.46149  29598870.0964
  31955587.439     2292548.301 5   1754206.90449  31955588.9514
  29588152.306     3184738.750 7   2445435.98149  29588151.5104
  30487017.267    38109173.445 6  29746885.47349  30487018.0884
 95  2 17 20 59 30.0260000  0  8 18  2 28 19 31 16 27 29
  28515566.244    19263520.895 7  14994588.55149  28515565.3774
  30814656.697       86047.629 6     78335.44749  30814657.2714
  31590680.924    18294305.873 5   6079365.56049  31590681.2054
  28453066.978    14252423.468 7  10068701.74349  28453066.0174
  29614168.361     5625049.356 7   4245015.64749  29614167.7404
  31965428.689     2344269.737 4   1794509.33949  31965430.9744
  29593550.244     3213105.912 7   2467540.28049  29593549.5294
  30520999.877    38287755.998 6  29886040.63249  30521000.5804
 95  2 17 21  0  0.0260000  0  8 18  2 28 19 31 16 27 29
  28542217.142    19403571.423 7  15103718.81149  28542216.1114
  30817394.338      100431.721 6     89543.89749  30817394.4204
  31617634.119    18435945.666 5   6189734.18949  31617634.5534
  28469216.369    14337290.585 7  10134831.97349  28469215.6894
  29629579.564     5706033.220 7   4308119.97949  29629579.2244
  31975373.885     2396531.243 4   1835232.63349  31975377.7404
  29598971.275     3241595.904 7   2489740.30649  29598970.5374
  30555047.260    38466672.581 6  30025456.08549  30555048.0334
 95  2 17 21  0 30.0260000  0  8 18  2 28 19 31 16 27 29
  28568963.424    19544123.142 7  15213239.60949  28568962.4044
  30820181.080      115073.957 6    100953.49749  30820181.3964
  31644682.752    18578087.378 5   6300493.96949  31644683.0684
  28485414.306    14422413.129 7  10201161.23449  28485413.7444
  29645107.267     5787630.179 7   4371702.05449  29645106.6234
  31985422.916     2449338.648 4   1876381.28449  31985423.5604
  29604422.346     3270239.632 7   2512060.12149  29604421.4314
  30589155.533    38645913.960 6  30165124.61649  30589155.3574
 95  2 17 21  1  0.0260000  0  8 18  2 28 19 31 16 27 29
  28595802.752    19685166.314 7  15323143.36349  28595801.9904
  30823013.314      129962.484 6    112555.01649  30823013.6314
  31671824.056    18720713.779 5   6411631.39249  31671824.0334
  28501658.767    14507777.188 7  10267678.69749  28501658.1114
  29660746.744     5869815.617 7   4435742.70349  29660745.5494
  31995573.791     2502681.246 4   1917946.96849  31995574.0254
  29609901.611     3299034.066 7   2534497.38449  29609900.5564
  30623319.728    38825447.877 6  30305021.10049  30623319.9394
 95  2 17 21  1 30.0260000  0  8 18  2 28 19 31 16 27 29
  28622739.510    19826720.033 7  15433444.94549  28622738.6314
  30825901.385      145138.652 6    124380.66249  30825901.7014
  31699059.908    18863838.234 5   6523156.95149  31699061.2214
  28517951.385    14593395.014 7  10334393.88849  28517950.7634
  29676502.510     5952617.782 7   4500263.89349  29676501.5374
  32005825.291     2556558.419 3   1959929.19749  32005828.2444
  29615413.525     3327997.956 7   2557066.68649  29615412.5174
  30657541.681    39005284.640 6  30445153.56649  30657541.9634
 95  2 17 21  2  0.0260000  0  8 18  2 28 19 31 16 27 29
  28649773.400    19968784.392 7  15544144.40849  28649772.6154
  30828844.244      160607.374 6    136434.24249  30828845.2634
  31726387.658    19007448.502 5   6635061.01449  31726387.3424
  28534287.306    14679240.740 7  10401286.65549  28534286.6744
  29692379.619     6036051.055 7   4565276.84249  29692378.8224
  32016175.564     2610945.380 4   2002308.67249  32016180.1464
  29620949.431     3357091.805 7   2579737.22749  29620948.3534
  30691816.525    39185400.397 6  30585503.40749  30691816.9594
 95  2 17 21  2 30.0260000  0  8 18  2 28 19 31 16 27 29
  28676906.197    20111368.233 7  15655248.68949  28676905.4594
  30831841.338      176356.631 6    148706.44649  30831842.2404
  31753807.885    19151543.569 5   6747342.89249  31753807.9674
  28550661.869    14765288.873 7  10468337.16749  28550661.0254
  29708376.127     6120112.553 7   4630779.34249  29708375.4354
  32026619.994     2665832.910 4   2045078.21749  32026622.6544
  29626507.174     3386297.252 7   2602494.74749  29626506.5414
  30726140.260    39365773.607 6  30726053.88849  30726140.6814
 95  2 17 21  3  0.0260000  0  8 18  2 28 19 31 16 27 29
  28704138.142    20254474.129 7  15766759.75249  28704137.5214
  30834893.049      192392.955 6    161202.33749  30834894.3034
  31781320.041    19296123.507 5   6860002.55649  31781321.6934
  28567074.931    14851540.115 7  10535545.93449  28567073.9354
  29724493.400     6204814.208 6   4696780.66049  29724493.1314
  32037160.697       22212.65914   2088238.30549  32037162.8774
  29632085.346     3415612.529 7   2625337.84749  29632084.4784
  30760516.447    39546418.202 6  30866815.82649  30760516.9634
 95  2 17 21  3 30.0260000  0  8 18  2 28 19 31 16 27 29
  28731468.978    20398098.731 7  15878674.99249  28731468.2054
  30837997.088      208707.221 6    173914.78849  30837998.3424
  31808924.916    19441186.978 5   6973039.02349  31808926.0884
  28583526.767    14937996.372 7  10602914.43549  28583525.7834
  29740736.127     6290170.131 6   4763291.77649  29740735.5884
  32047795.689       22417.58514   2131788.10449  32047797.2834
  29637685.697     3445040.507 7   2648268.75449  29637684.8064
  30794942.635    39727331.693 6  31007787.28149  30794942.7054
 95  2 17 21  4  0.0260000  0  8 18  2 28 19 31 16 27 29
  28758895.533    20542224.903 7  15990981.09249  28758894.6784
  30841149.322      225273.214 6    186823.41549  30841150.4594
  31836621.471    19586736.168 5   7086453.97149  31836623.3454
  28600019.799    15024668.479 7  10670451.16349  28600018.9554
  29757101.064     6376168.991 6   4830303.90549  29757100.5604
  32058528.033       22620.06314   2175738.10549  32058531.5024
  29643306.900     3474581.506 7   2671287.75949  29643306.2214
  30829421.002    39908517.585 6  31148971.03549  30829421.8104
 95  2 17 21  4 30.0260000  0  8 18  2 28 19 31 16 27 29
  28786411.424    20686820.092 7  16103652.62749  28786410.4514
  30844345.728      242070.639 6    199912.34549  30844347.0994
  31864410.049    19732762.900 5   7200240.98749  31864411.0334
  28616555.080    15111562.434 7  10738160.73149  28616554.4354
  29773583.283     6462782.984 6   4897795.33849  29773583.0374
  32069361.299       20934.53414   2220097.21449  32069365.2134
  29648953.830     3504258.200 7   2694412.46549  29648953.4554
  30863951.541    40089973.571 6  31290365.20449  30863951.8924
 95  2 17 21  5  0.0260000  0  8 18  2 28 19 31 16 27 29
  28814013.400    20831869.945 7  16216678.46249  28814012.4744
  30847589.025      259110.660 6    213190.33049  30847589.9744
  31892289.971    19879271.825 5   7314403.79249  31892290.9784
  28633135.510    15198693.147 7  10806054.79749  28633134.8064
  29790183.369     6550014.989 6   4965768.35449  29790182.6784
  32080297.885       78403.179 5   2264878.00849  32080299.6894
  29654629.728     3534084.395 7   2717653.68449  29654629.2364
  30898537.955    40271726.856 6  31431991.04449  30898538.7284
 95  2 17 21  5 30.0260000  0  8 18  2 28 19 31 16 27 29
  28841697.236    20977350.129 7  16330039.61649  28841696.5214
  30850875.955      276386.042 6    226651.71149  30850876.9514
  31920259.533    20026252.457 5   7428934.15449  31920260.8104
  28649758.056    15286045.159 7  10874121.30749  28649757.4244
  29806896.838     6637844.644 6   5034207.04649  29806896.3574
  32091337.221      136419.070 5   2310085.19449  32091337.7014
  29660331.861     3564050.203 7   2741003.69049  29660331.1934
  30933177.322    40453756.592 6  31573832.31749  30933177.0764
 95  2 17 21  6  0.0260000  0  8 18  2 28 19 31 16 27 29
  28869466.299    21123278.125 7  16443749.72149  28869465.8534
  30854214.088      293927.188 6    240320.17649  30854215.1544
  31948319.564    20173715.654 5   7543840.51949  31948320.2094
  28666425.174    15373629.150 7  10942368.57149  28666424.3884
  29823725.744     6726280.998 6   5103118.51049  29823725.2524
  32102487.064      195009.935 4   2355740.44649  32102488.0134
  29666062.971     3594166.392 7   2764470.86149  29666062.4204
  30967871.611    40636074.940 6  31715898.47949  30967870.9904
 95  2 17 21  6 30.0270000  0  8 18  2 28 19 31 16 27 29
  28897325.288    21269676.443 7  16557826.30049  28897324.7724
  30857606.280      311751.203 6    254209.06549  30857607.2064
  31976473.288    20321657.623 5   7659119.94849  31976473.6164
  28683133.288    15461433.444 7  11010787.50949  28683132.4564
  29840672.132     6815335.503 6   5172511.64149  29840671.2884
  32113741.944      254160.388 4   2401831.72549  32113745.0144
  29671822.225     3624430.222 7   2788053.07549  29671821.5464
  31002618.405    40818668.357 6  31858178.96749  31002617.7964
 95  2 17 21  7  0.0270000  0  8 18  2 28 19 31 16 27 29
  28925273.983    21416547.803 7  16672271.47849  28925273.2804
  30861053.405      329868.209 6    268326.25949  30861054.3784
  32004714.444    20470066.400 5   7774763.14849  32004715.2064
  28699881.975    15549448.551 7  11079370.71649  28699881.2374
  29857738.366     6905021.372 6   5242396.74449  29857737.5934
  32125102.944      313849.853 5   2448343.02349  32125104.4794
  29677607.061     3654829.169 7   2811740.59349  29677606.2184
  31037411.530    41001509.797 6  32000652.73449  31037411.4364
 95  2 17 21  7 30.0270000  0  8 18  2 28 19 31 16 27 29
  28953318.085    21563921.605 7  16787108.17549  28953317.3234
  30864558.389      348286.851 6    282678.49349  30864559.4794
  32033044.866    20618948.648 5   7890775.28249  32033045.9444
  28716673.827    15637688.782 7  11148129.33649  28716673.1004
  29874929.663     6995360.696 7   5312791.02449  29874929.3004
  32136562.889      374075.626 5   2495272.18449  32136563.2644
  29683417.975     3685369.876 7   2835538.57749  29683417.3074
  31072252.350    41184597.703 6  32143318.54649  31072252.6434
 95  2 17 21  8  0.0270000  0  8 18  2 28 19 31 16 27 29
  28981461.686    21711815.914 7  16902350.46449  28981460.7724
  30868118.733      366994.188 6    297255.67249  30868119.2144
  32061466.421    20768301.023 5   8007153.71949  32061467.2644
  28733509.335    15726162.682 7  11217070.03649  28733508.9014
  29892245.733     7086356.415 7   5383696.77849  29892245.2064
  32148118.835      434811.642 4   2542598.98749  32148120.4054
  29689256.983     3716053.055 7   2859447.56249  29689256.8314
  31107142.639    41367948.088 6  32286188.87049  31107142.9794
 95  2 17 21  8 30.0270000  0  8 18  2 28 19 31 16 27 29
  29009702.179    21860220.247 7  17017990.17649  29009701.3824
  30871732.624      385985.761 6    312054.34249  30871732.6474
  32089977.054    20918122.498 5   8123897.70649  32089977.6514
  28750390.429    15814870.928 7  11286193.34249  28750389.9014
  29909682.804     7177994.222 6   5455102.85349  29909682.6864
  32159772.827      496051.562 4   2590318.42749  32159775.7924
  29695124.257     3746884.927 7   2883472.41749  29695123.9174
  31142085.897    41551573.191 6  32429273.28349  31142085.5694
 95  2 17 21  9  0.0270000  0  8 18  2 28 19 31 16 27 29
  29038036.022    22009116.077 7  17134012.86749  29038035.3074
  30875400.311      405260.267 6    327073.48549  30875400.6754
  32118575.382    21068410.609 5   8241005.30649  32118575.1594
  28767315.507    15903812.556 7  11355498.49949  28767314.8744
  29927240.811     7270259.771 6   5526998.07849  29927240.8704
  32171527.100      557819.283 4   2638449.11249  32171529.5964
  29701018.843     3777860.904 7   2907609.57049  29701018.4324
  31177085.054    41735494.166 6  32572588.22449  31177085.1594
 95  2 17 21  9 30.0270000  0  8 18  2 28 19 31 16 27 29
  29066461.616    22158493.804 7  17250411.06549  29066461.0184
  30879120.218      424808.134 6    342305.64049  30879120.2414
  32147262.397    21219158.961 5   8358471.53049  32147262.5264
  28784283.179    15992979.119 7  11424978.93249  28784282.4994
  29944912.522     7363125.539 6   5599361.00149  29944912.6514
  32183383.343      620124.950 4   2686998.99249  32183387.3974
  29706939.718     3808976.625 7   2931855.61149  29706939.2254
  31212142.046    41919721.623 6  32716141.98449  31212142.2454
 95  2 17 21 10  0.0270000  0  8 18  2 28 19 31 16 27 29
  29094972.679    22308322.388 7  17367160.57849  29094972.0224
  30882891.358      444625.442 6    357747.73949  30882891.4404
  32176035.866    21370365.351 5   8476294.66349  32176035.6434
  28801293.335    16082366.566 7  11494631.47649  28801292.4914
  29962694.788     7456569.926 6   5672174.81549  29962694.3894
  32195344.358      682979.857 4   2735976.86249  32195347.3704
  29712886.007     3840224.483 7   2956204.61649  29712885.6324
  31247256.952    42104250.828 6  32859930.87349  31247257.7144
